<?xml version="1.0" encoding="UTF-8" standalone="no" ?>
<gpx xmlns="http://www.topografix.com/GPX/1/1" xmlns:xsi="http://www.w3.org/2001/XMLSchema-instance" xsi:schemaLocation="http://www.topografix.com/GPX/1/1 http://www.topografix.com/GPX/1/1/gpx.xsd" version="1.1" creator="VisuGPX - https://www.visugpx.com">
  <metadata>
    <name>sortie col de vence</name>
    <desc><![CDATA[sortie du 8 avril 2012, CA Peymeinade, Col de Vence]]></desc>
  </metadata>
  <trk>
    <name><![CDATA[sortie col de v]]></name>
    <trkseg>
      <trkpt lat="43.63943" lon="6.86954">
        <ele>195</ele>
        <time>2012-04-02T00:00:00Z</time>
      </trkpt>
      <trkpt lat="43.63906" lon="6.86949">
        <ele>193</ele>
        <time>2012-04-02T00:00:04Z</time>
      </trkpt>
      <trkpt lat="43.63907" lon="6.86902">
        <ele>192</ele>
        <time>2012-04-02T00:00:09Z</time>
      </trkpt>
      <trkpt lat="43.63903" lon="6.86897">
        <ele>192</ele>
        <time>2012-04-02T00:00:10Z</time>
      </trkpt>
      <trkpt lat="43.63885" lon="6.86719">
        <ele>189</ele>
        <time>2012-04-02T00:00:27Z</time>
      </trkpt>
      <trkpt lat="43.63851" lon="6.8654">
        <ele>196</ele>
        <time>2012-04-02T00:01:02Z</time>
      </trkpt>
      <trkpt lat="43.63837" lon="6.86503">
        <ele>197</ele>
        <time>2012-04-02T00:01:10Z</time>
      </trkpt>
      <trkpt lat="43.63821" lon="6.86491">
        <ele>198</ele>
        <time>2012-04-02T00:01:15Z</time>
      </trkpt>
      <trkpt lat="43.63808" lon="6.86488">
        <ele>199</ele>
        <time>2012-04-02T00:01:18Z</time>
      </trkpt>
      <trkpt lat="43.63665" lon="6.86478">
        <ele>207</ele>
        <time>2012-04-02T00:01:56Z</time>
      </trkpt>
      <trkpt lat="43.63644" lon="6.86467">
        <ele>208</ele>
        <time>2012-04-02T00:02:01Z</time>
      </trkpt>
      <trkpt lat="43.63635" lon="6.86445">
        <ele>209</ele>
        <time>2012-04-02T00:02:06Z</time>
      </trkpt>
      <trkpt lat="43.63635" lon="6.86417">
        <ele>210</ele>
        <time>2012-04-02T00:02:11Z</time>
      </trkpt>
      <trkpt lat="43.63737" lon="6.86233">
        <ele>219</ele>
        <time>2012-04-02T00:02:55Z</time>
      </trkpt>
      <trkpt lat="43.63744" lon="6.86213">
        <ele>220</ele>
        <time>2012-04-02T00:03:00Z</time>
      </trkpt>
      <trkpt lat="43.63746" lon="6.86185">
        <ele>221</ele>
        <time>2012-04-02T00:03:06Z</time>
      </trkpt>
      <trkpt lat="43.6374" lon="6.8616">
        <ele>223</ele>
        <time>2012-04-02T00:03:12Z</time>
      </trkpt>
      <trkpt lat="43.6369" lon="6.86046">
        <ele>230</ele>
        <time>2012-04-02T00:03:42Z</time>
      </trkpt>
      <trkpt lat="43.6363" lon="6.85922">
        <ele>234</ele>
        <time>2012-04-02T00:04:06Z</time>
      </trkpt>
      <trkpt lat="43.63599" lon="6.85834">
        <ele>233</ele>
        <time>2012-04-02T00:04:15Z</time>
      </trkpt>
      <trkpt lat="43.63601" lon="6.85825">
        <ele>232</ele>
        <time>2012-04-02T00:04:16Z</time>
      </trkpt>
      <trkpt lat="43.63597" lon="6.85816">
        <ele>232</ele>
        <time>2012-04-02T00:04:17Z</time>
      </trkpt>
      <trkpt lat="43.63587" lon="6.85817">
        <ele>232</ele>
        <time>2012-04-02T00:04:18Z</time>
      </trkpt>
      <trkpt lat="43.63584" lon="6.85827">
        <ele>232</ele>
        <time>2012-04-02T00:04:19Z</time>
      </trkpt>
      <trkpt lat="43.63586" lon="6.85834">
        <ele>232</ele>
        <time>2012-04-02T00:04:20Z</time>
      </trkpt>
      <trkpt lat="43.63597" lon="6.85847">
        <ele>232</ele>
        <time>2012-04-02T00:04:22Z</time>
      </trkpt>
      <trkpt lat="43.6362" lon="6.85904">
        <ele>231</ele>
        <time>2012-04-02T00:04:28Z</time>
      </trkpt>
      <trkpt lat="43.6369" lon="6.86046">
        <ele>230</ele>
        <time>2012-04-02T00:04:45Z</time>
      </trkpt>
      <trkpt lat="43.6374" lon="6.8616">
        <ele>223</ele>
        <time>2012-04-02T00:04:58Z</time>
      </trkpt>
      <trkpt lat="43.63746" lon="6.86185">
        <ele>222</ele>
        <time>2012-04-02T00:05:00Z</time>
      </trkpt>
      <trkpt lat="43.63744" lon="6.86213">
        <ele>221</ele>
        <time>2012-04-02T00:05:03Z</time>
      </trkpt>
      <trkpt lat="43.63737" lon="6.86233">
        <ele>220</ele>
        <time>2012-04-02T00:05:05Z</time>
      </trkpt>
      <trkpt lat="43.63635" lon="6.86417">
        <ele>213</ele>
        <time>2012-04-02T00:05:28Z</time>
      </trkpt>
      <trkpt lat="43.63638" lon="6.86455">
        <ele>211</ele>
        <time>2012-04-02T00:05:31Z</time>
      </trkpt>
      <trkpt lat="43.63649" lon="6.86472">
        <ele>210</ele>
        <time>2012-04-02T00:05:34Z</time>
      </trkpt>
      <trkpt lat="43.63665" lon="6.86478">
        <ele>209</ele>
        <time>2012-04-02T00:05:36Z</time>
      </trkpt>
      <trkpt lat="43.63808" lon="6.86488">
        <ele>200</ele>
        <time>2012-04-02T00:05:55Z</time>
      </trkpt>
      <trkpt lat="43.63821" lon="6.86491">
        <ele>199</ele>
        <time>2012-04-02T00:05:57Z</time>
      </trkpt>
      <trkpt lat="43.63837" lon="6.86503">
        <ele>198</ele>
        <time>2012-04-02T00:05:59Z</time>
      </trkpt>
      <trkpt lat="43.63851" lon="6.8654">
        <ele>196</ele>
        <time>2012-04-02T00:06:03Z</time>
      </trkpt>
      <trkpt lat="43.63883" lon="6.86707">
        <ele>189</ele>
        <time>2012-04-02T00:06:20Z</time>
      </trkpt>
      <trkpt lat="43.63903" lon="6.86897">
        <ele>191</ele>
        <time>2012-04-02T00:06:43Z</time>
      </trkpt>
      <trkpt lat="43.63901" lon="6.8696">
        <ele>191</ele>
        <time>2012-04-02T00:06:51Z</time>
      </trkpt>
      <trkpt lat="43.6388" lon="6.87156">
        <ele>194</ele>
        <time>2012-04-02T00:07:16Z</time>
      </trkpt>
      <trkpt lat="43.63885" lon="6.87162">
        <ele>193</ele>
        <time>2012-04-02T00:07:17Z</time>
      </trkpt>
      <trkpt lat="43.6389" lon="6.87182">
        <ele>193</ele>
        <time>2012-04-02T00:07:19Z</time>
      </trkpt>
      <trkpt lat="43.639" lon="6.87271">
        <ele>191</ele>
        <time>2012-04-02T00:07:27Z</time>
      </trkpt>
      <trkpt lat="43.6389" lon="6.87492">
        <ele>187</ele>
        <time>2012-04-02T00:07:49Z</time>
      </trkpt>
      <trkpt lat="43.63894" lon="6.87548">
        <ele>186</ele>
        <time>2012-04-02T00:07:54Z</time>
      </trkpt>
      <trkpt lat="43.63908" lon="6.87603">
        <ele>186</ele>
        <time>2012-04-02T00:08:00Z</time>
      </trkpt>
      <trkpt lat="43.63925" lon="6.87638">
        <ele>186</ele>
        <time>2012-04-02T00:08:04Z</time>
      </trkpt>
      <trkpt lat="43.63944" lon="6.87663">
        <ele>186</ele>
        <time>2012-04-02T00:08:10Z</time>
      </trkpt>
      <trkpt lat="43.63972" lon="6.87689">
        <ele>188</ele>
        <time>2012-04-02T00:08:17Z</time>
      </trkpt>
      <trkpt lat="43.64041" lon="6.87738">
        <ele>191</ele>
        <time>2012-04-02T00:08:34Z</time>
      </trkpt>
      <trkpt lat="43.64255" lon="6.8804">
        <ele>187</ele>
        <time>2012-04-02T00:09:15Z</time>
      </trkpt>
      <trkpt lat="43.64353" lon="6.8824">
        <ele>186</ele>
        <time>2012-04-02T00:09:39Z</time>
      </trkpt>
      <trkpt lat="43.64382" lon="6.88312">
        <ele>186</ele>
        <time>2012-04-02T00:09:49Z</time>
      </trkpt>
      <trkpt lat="43.6438" lon="6.88328">
        <ele>187</ele>
        <time>2012-04-02T00:09:51Z</time>
      </trkpt>
      <trkpt lat="43.64388" lon="6.88336">
        <ele>187</ele>
        <time>2012-04-02T00:09:53Z</time>
      </trkpt>
      <trkpt lat="43.64394" lon="6.88334">
        <ele>187</ele>
        <time>2012-04-02T00:09:54Z</time>
      </trkpt>
      <trkpt lat="43.64416" lon="6.8837">
        <ele>188</ele>
        <time>2012-04-02T00:10:00Z</time>
      </trkpt>
      <trkpt lat="43.64566" lon="6.88687">
        <ele>210</ele>
        <time>2012-04-02T00:11:29Z</time>
      </trkpt>
      <trkpt lat="43.64566" lon="6.88687">
        <ele>210</ele>
        <time>2012-04-02T00:11:30Z</time>
      </trkpt>
      <trkpt lat="43.64581" lon="6.88743">
        <ele>213</ele>
        <time>2012-04-02T00:11:44Z</time>
      </trkpt>
      <trkpt lat="43.64583" lon="6.88775">
        <ele>215</ele>
        <time>2012-04-02T00:11:51Z</time>
      </trkpt>
      <trkpt lat="43.64577" lon="6.88829">
        <ele>218</ele>
        <time>2012-04-02T00:12:03Z</time>
      </trkpt>
      <trkpt lat="43.64464" lon="6.89124">
        <ele>211</ele>
        <time>2012-04-02T00:12:36Z</time>
      </trkpt>
      <trkpt lat="43.64461" lon="6.89138">
        <ele>211</ele>
        <time>2012-04-02T00:12:38Z</time>
      </trkpt>
      <trkpt lat="43.64462" lon="6.89182">
        <ele>212</ele>
        <time>2012-04-02T00:12:46Z</time>
      </trkpt>
      <trkpt lat="43.6447" lon="6.89227">
        <ele>214</ele>
        <time>2012-04-02T00:12:53Z</time>
      </trkpt>
      <trkpt lat="43.64462" lon="6.8925">
        <ele>215</ele>
        <time>2012-04-02T00:12:58Z</time>
      </trkpt>
      <trkpt lat="43.64466" lon="6.89267">
        <ele>215</ele>
        <time>2012-04-02T00:13:01Z</time>
      </trkpt>
      <trkpt lat="43.6448" lon="6.8928">
        <ele>216</ele>
        <time>2012-04-02T00:13:05Z</time>
      </trkpt>
      <trkpt lat="43.64492" lon="6.89279">
        <ele>217</ele>
        <time>2012-04-02T00:13:09Z</time>
      </trkpt>
      <trkpt lat="43.64502" lon="6.89269">
        <ele>217</ele>
        <time>2012-04-02T00:13:12Z</time>
      </trkpt>
      <trkpt lat="43.64508" lon="6.8923">
        <ele>219</ele>
        <time>2012-04-02T00:13:19Z</time>
      </trkpt>
      <trkpt lat="43.64521" lon="6.89195">
        <ele>220</ele>
        <time>2012-04-02T00:13:26Z</time>
      </trkpt>
      <trkpt lat="43.64562" lon="6.89171">
        <ele>223</ele>
        <time>2012-04-02T00:13:38Z</time>
      </trkpt>
      <trkpt lat="43.64576" lon="6.89154">
        <ele>224</ele>
        <time>2012-04-02T00:13:45Z</time>
      </trkpt>
      <trkpt lat="43.64643" lon="6.8902">
        <ele>237</ele>
        <time>2012-04-02T00:14:30Z</time>
      </trkpt>
      <trkpt lat="43.64667" lon="6.88945">
        <ele>241</ele>
        <time>2012-04-02T00:14:48Z</time>
      </trkpt>
      <trkpt lat="43.64681" lon="6.88922">
        <ele>242</ele>
        <time>2012-04-02T00:14:54Z</time>
      </trkpt>
      <trkpt lat="43.64707" lon="6.88897">
        <ele>245</ele>
        <time>2012-04-02T00:15:04Z</time>
      </trkpt>
      <trkpt lat="43.64735" lon="6.88852">
        <ele>245</ele>
        <time>2012-04-02T00:15:12Z</time>
      </trkpt>
      <trkpt lat="43.64784" lon="6.88733">
        <ele>248</ele>
        <time>2012-04-02T00:15:30Z</time>
      </trkpt>
      <trkpt lat="43.64799" lon="6.88672">
        <ele>248</ele>
        <time>2012-04-02T00:15:36Z</time>
      </trkpt>
      <trkpt lat="43.64814" lon="6.88639">
        <ele>248</ele>
        <time>2012-04-02T00:15:40Z</time>
      </trkpt>
      <trkpt lat="43.64836" lon="6.8862">
        <ele>248</ele>
        <time>2012-04-02T00:15:44Z</time>
      </trkpt>
      <trkpt lat="43.64887" lon="6.88606">
        <ele>252</ele>
        <time>2012-04-02T00:16:00Z</time>
      </trkpt>
      <trkpt lat="43.6493" lon="6.88544">
        <ele>257</ele>
        <time>2012-04-02T00:16:20Z</time>
      </trkpt>
      <trkpt lat="43.65009" lon="6.88478">
        <ele>262</ele>
        <time>2012-04-02T00:16:45Z</time>
      </trkpt>
      <trkpt lat="43.64998" lon="6.88505">
        <ele>261</ele>
        <time>2012-04-02T00:16:48Z</time>
      </trkpt>
      <trkpt lat="43.64969" lon="6.88537">
        <ele>261</ele>
        <time>2012-04-02T00:16:53Z</time>
      </trkpt>
      <trkpt lat="43.64943" lon="6.8858">
        <ele>261</ele>
        <time>2012-04-02T00:16:58Z</time>
      </trkpt>
      <trkpt lat="43.64925" lon="6.88645">
        <ele>261</ele>
        <time>2012-04-02T00:17:07Z</time>
      </trkpt>
      <trkpt lat="43.64895" lon="6.88706">
        <ele>263</ele>
        <time>2012-04-02T00:17:17Z</time>
      </trkpt>
      <trkpt lat="43.64889" lon="6.88724">
        <ele>263</ele>
        <time>2012-04-02T00:17:21Z</time>
      </trkpt>
      <trkpt lat="43.64882" lon="6.88796">
        <ele>267</ele>
        <time>2012-04-02T00:17:35Z</time>
      </trkpt>
      <trkpt lat="43.64874" lon="6.88826">
        <ele>268</ele>
        <time>2012-04-02T00:17:42Z</time>
      </trkpt>
      <trkpt lat="43.6484" lon="6.88891">
        <ele>272</ele>
        <time>2012-04-02T00:17:58Z</time>
      </trkpt>
      <trkpt lat="43.64832" lon="6.88966">
        <ele>275</ele>
        <time>2012-04-02T00:18:13Z</time>
      </trkpt>
      <trkpt lat="43.64794" lon="6.89037">
        <ele>279</ele>
        <time>2012-04-02T00:18:31Z</time>
      </trkpt>
      <trkpt lat="43.64744" lon="6.89197">
        <ele>281</ele>
        <time>2012-04-02T00:18:52Z</time>
      </trkpt>
      <trkpt lat="43.64726" lon="6.89308">
        <ele>287</ele>
        <time>2012-04-02T00:19:19Z</time>
      </trkpt>
      <trkpt lat="43.64733" lon="6.89454">
        <ele>296</ele>
        <time>2012-04-02T00:19:54Z</time>
      </trkpt>
      <trkpt lat="43.64725" lon="6.89564">
        <ele>288</ele>
        <time>2012-04-02T00:20:04Z</time>
      </trkpt>
      <trkpt lat="43.64732" lon="6.89626">
        <ele>285</ele>
        <time>2012-04-02T00:20:10Z</time>
      </trkpt>
      <trkpt lat="43.64745" lon="6.89683">
        <ele>286</ele>
        <time>2012-04-02T00:20:19Z</time>
      </trkpt>
      <trkpt lat="43.64758" lon="6.89708">
        <ele>287</ele>
        <time>2012-04-02T00:20:24Z</time>
      </trkpt>
      <trkpt lat="43.64826" lon="6.89796">
        <ele>290</ele>
        <time>2012-04-02T00:20:44Z</time>
      </trkpt>
      <trkpt lat="43.64834" lon="6.89804">
        <ele>290</ele>
        <time>2012-04-02T00:20:47Z</time>
      </trkpt>
      <trkpt lat="43.64876" lon="6.89822">
        <ele>294</ele>
        <time>2012-04-02T00:21:02Z</time>
      </trkpt>
      <trkpt lat="43.64911" lon="6.89868">
        <ele>299</ele>
        <time>2012-04-02T00:21:19Z</time>
      </trkpt>
      <trkpt lat="43.64958" lon="6.899">
        <ele>300</ele>
        <time>2012-04-02T00:21:29Z</time>
      </trkpt>
      <trkpt lat="43.65013" lon="6.89991">
        <ele>302</ele>
        <time>2012-04-02T00:21:45Z</time>
      </trkpt>
      <trkpt lat="43.65106" lon="6.90108">
        <ele>300</ele>
        <time>2012-04-02T00:22:01Z</time>
      </trkpt>
      <trkpt lat="43.65229" lon="6.9021">
        <ele>303</ele>
        <time>2012-04-02T00:22:28Z</time>
      </trkpt>
      <trkpt lat="43.65298" lon="6.9028">
        <ele>303</ele>
        <time>2012-04-02T00:22:39Z</time>
      </trkpt>
      <trkpt lat="43.65336" lon="6.903">
        <ele>303</ele>
        <time>2012-04-02T00:22:45Z</time>
      </trkpt>
      <trkpt lat="43.65375" lon="6.90338">
        <ele>305</ele>
        <time>2012-04-02T00:22:56Z</time>
      </trkpt>
      <trkpt lat="43.65396" lon="6.90345">
        <ele>306</ele>
        <time>2012-04-02T00:23:01Z</time>
      </trkpt>
      <trkpt lat="43.65458" lon="6.90343">
        <ele>309</ele>
        <time>2012-04-02T00:23:16Z</time>
      </trkpt>
      <trkpt lat="43.65506" lon="6.90357">
        <ele>305</ele>
        <time>2012-04-02T00:23:23Z</time>
      </trkpt>
      <trkpt lat="43.65537" lon="6.90377">
        <ele>302</ele>
        <time>2012-04-02T00:23:28Z</time>
      </trkpt>
      <trkpt lat="43.65556" lon="6.90383">
        <ele>301</ele>
        <time>2012-04-02T00:23:30Z</time>
      </trkpt>
      <trkpt lat="43.6559" lon="6.90366">
        <ele>303</ele>
        <time>2012-04-02T00:23:42Z</time>
      </trkpt>
      <trkpt lat="43.65638" lon="6.90329">
        <ele>308</ele>
        <time>2012-04-02T00:23:59Z</time>
      </trkpt>
      <trkpt lat="43.65683" lon="6.90322">
        <ele>299</ele>
        <time>2012-04-02T00:24:05Z</time>
      </trkpt>
      <trkpt lat="43.65715" lon="6.9034">
        <ele>293</ele>
        <time>2012-04-02T00:24:10Z</time>
      </trkpt>
      <trkpt lat="43.65755" lon="6.90342">
        <ele>286</ele>
        <time>2012-04-02T00:24:15Z</time>
      </trkpt>
      <trkpt lat="43.65769" lon="6.90338">
        <ele>285</ele>
        <time>2012-04-02T00:24:17Z</time>
      </trkpt>
      <trkpt lat="43.65812" lon="6.90308">
        <ele>282</ele>
        <time>2012-04-02T00:24:24Z</time>
      </trkpt>
      <trkpt lat="43.65858" lon="6.90313">
        <ele>280</ele>
        <time>2012-04-02T00:24:30Z</time>
      </trkpt>
      <trkpt lat="43.65879" lon="6.90298">
        <ele>280</ele>
        <time>2012-04-02T00:24:33Z</time>
      </trkpt>
      <trkpt lat="43.65879" lon="6.90298">
        <ele>280</ele>
        <time>2012-04-02T00:24:34Z</time>
      </trkpt>
      <trkpt lat="43.65963" lon="6.90222">
        <ele>282</ele>
        <time>2012-04-02T00:24:52Z</time>
      </trkpt>
      <trkpt lat="43.66018" lon="6.90193">
        <ele>282</ele>
        <time>2012-04-02T00:25:00Z</time>
      </trkpt>
      <trkpt lat="43.66042" lon="6.9019">
        <ele>282</ele>
        <time>2012-04-02T00:25:03Z</time>
      </trkpt>
      <trkpt lat="43.66065" lon="6.9021">
        <ele>282</ele>
        <time>2012-04-02T00:25:07Z</time>
      </trkpt>
      <trkpt lat="43.66072" lon="6.90244">
        <ele>281</ele>
        <time>2012-04-02T00:25:10Z</time>
      </trkpt>
      <trkpt lat="43.66042" lon="6.90348">
        <ele>281</ele>
        <time>2012-04-02T00:25:21Z</time>
      </trkpt>
      <trkpt lat="43.66037" lon="6.90414">
        <ele>279</ele>
        <time>2012-04-02T00:25:27Z</time>
      </trkpt>
      <trkpt lat="43.66026" lon="6.90483">
        <ele>277</ele>
        <time>2012-04-02T00:25:34Z</time>
      </trkpt>
      <trkpt lat="43.66063" lon="6.90604">
        <ele>286</ele>
        <time>2012-04-02T00:26:09Z</time>
      </trkpt>
      <trkpt lat="43.66051" lon="6.90708">
        <ele>282</ele>
        <time>2012-04-02T00:26:19Z</time>
      </trkpt>
      <trkpt lat="43.66041" lon="6.90723">
        <ele>282</ele>
        <time>2012-04-02T00:26:21Z</time>
      </trkpt>
      <trkpt lat="43.65994" lon="6.90744">
        <ele>280</ele>
        <time>2012-04-02T00:26:27Z</time>
      </trkpt>
      <trkpt lat="43.65961" lon="6.9078">
        <ele>281</ele>
        <time>2012-04-02T00:26:36Z</time>
      </trkpt>
      <trkpt lat="43.65929" lon="6.90801">
        <ele>282</ele>
        <time>2012-04-02T00:26:44Z</time>
      </trkpt>
      <trkpt lat="43.65868" lon="6.90825">
        <ele>285</ele>
        <time>2012-04-02T00:26:58Z</time>
      </trkpt>
      <trkpt lat="43.65804" lon="6.90864">
        <ele>289</ele>
        <time>2012-04-02T00:27:18Z</time>
      </trkpt>
      <trkpt lat="43.65687" lon="6.90902">
        <ele>297</ele>
        <time>2012-04-02T00:27:52Z</time>
      </trkpt>
      <trkpt lat="43.65651" lon="6.90933">
        <ele>297</ele>
        <time>2012-04-02T00:27:59Z</time>
      </trkpt>
      <trkpt lat="43.65589" lon="6.90962">
        <ele>298</ele>
        <time>2012-04-02T00:28:09Z</time>
      </trkpt>
      <trkpt lat="43.65572" lon="6.90983">
        <ele>301</ele>
        <time>2012-04-02T00:28:20Z</time>
      </trkpt>
      <trkpt lat="43.65563" lon="6.91015">
        <ele>304</ele>
        <time>2012-04-02T00:28:32Z</time>
      </trkpt>
      <trkpt lat="43.65562" lon="6.91042">
        <ele>307</ele>
        <time>2012-04-02T00:28:41Z</time>
      </trkpt>
      <trkpt lat="43.65572" lon="6.91104">
        <ele>314</ele>
        <time>2012-04-02T00:29:03Z</time>
      </trkpt>
      <trkpt lat="43.65572" lon="6.9113">
        <ele>316</ele>
        <time>2012-04-02T00:29:10Z</time>
      </trkpt>
      <trkpt lat="43.65555" lon="6.91248">
        <ele>326</ele>
        <time>2012-04-02T00:29:46Z</time>
      </trkpt>
      <trkpt lat="43.65531" lon="6.9134">
        <ele>327</ele>
        <time>2012-04-02T00:30:00Z</time>
      </trkpt>
      <trkpt lat="43.65524" lon="6.91348">
        <ele>328</ele>
        <time>2012-04-02T00:30:02Z</time>
      </trkpt>
      <trkpt lat="43.65513" lon="6.91351">
        <ele>328</ele>
        <time>2012-04-02T00:30:04Z</time>
      </trkpt>
      <trkpt lat="43.65461" lon="6.91359">
        <ele>330</ele>
        <time>2012-04-02T00:30:14Z</time>
      </trkpt>
      <trkpt lat="43.65416" lon="6.9139">
        <ele>327</ele>
        <time>2012-04-02T00:30:21Z</time>
      </trkpt>
      <trkpt lat="43.65346" lon="6.91405">
        <ele>325</ele>
        <time>2012-04-02T00:30:31Z</time>
      </trkpt>
      <trkpt lat="43.65275" lon="6.91452">
        <ele>325</ele>
        <time>2012-04-02T00:30:41Z</time>
      </trkpt>
      <trkpt lat="43.65226" lon="6.91476">
        <ele>325</ele>
        <time>2012-04-02T00:30:48Z</time>
      </trkpt>
      <trkpt lat="43.6511" lon="6.91496">
        <ele>321</ele>
        <time>2012-04-02T00:31:04Z</time>
      </trkpt>
      <trkpt lat="43.65091" lon="6.91506">
        <ele>321</ele>
        <time>2012-04-02T00:31:07Z</time>
      </trkpt>
      <trkpt lat="43.65079" lon="6.9152">
        <ele>321</ele>
        <time>2012-04-02T00:31:10Z</time>
      </trkpt>
      <trkpt lat="43.65071" lon="6.91542">
        <ele>321</ele>
        <time>2012-04-02T00:31:13Z</time>
      </trkpt>
      <trkpt lat="43.6507" lon="6.91561">
        <ele>322</ele>
        <time>2012-04-02T00:31:15Z</time>
      </trkpt>
      <trkpt lat="43.65075" lon="6.91589">
        <ele>322</ele>
        <time>2012-04-02T00:31:19Z</time>
      </trkpt>
      <trkpt lat="43.65095" lon="6.91625">
        <ele>323</ele>
        <time>2012-04-02T00:31:25Z</time>
      </trkpt>
      <trkpt lat="43.65122" lon="6.91659">
        <ele>326</ele>
        <time>2012-04-02T00:31:37Z</time>
      </trkpt>
      <trkpt lat="43.65122" lon="6.91659">
        <ele>326</ele>
        <time>2012-04-02T00:31:38Z</time>
      </trkpt>
      <trkpt lat="43.65134" lon="6.91678">
        <ele>325</ele>
        <time>2012-04-02T00:31:40Z</time>
      </trkpt>
      <trkpt lat="43.65183" lon="6.91817">
        <ele>321</ele>
        <time>2012-04-02T00:31:55Z</time>
      </trkpt>
      <trkpt lat="43.65201" lon="6.91848">
        <ele>322</ele>
        <time>2012-04-02T00:32:03Z</time>
      </trkpt>
      <trkpt lat="43.65214" lon="6.91861">
        <ele>323</ele>
        <time>2012-04-02T00:32:07Z</time>
      </trkpt>
      <trkpt lat="43.65228" lon="6.91868">
        <ele>324</ele>
        <time>2012-04-02T00:32:12Z</time>
      </trkpt>
      <trkpt lat="43.6525" lon="6.91864">
        <ele>325</ele>
        <time>2012-04-02T00:32:18Z</time>
      </trkpt>
      <trkpt lat="43.6528" lon="6.91835">
        <ele>328</ele>
        <time>2012-04-02T00:32:28Z</time>
      </trkpt>
      <trkpt lat="43.65311" lon="6.91819">
        <ele>330</ele>
        <time>2012-04-02T00:32:39Z</time>
      </trkpt>
      <trkpt lat="43.65469" lon="6.91798">
        <ele>345</ele>
        <time>2012-04-02T00:33:34Z</time>
      </trkpt>
      <trkpt lat="43.65496" lon="6.91814">
        <ele>345</ele>
        <time>2012-04-02T00:33:40Z</time>
      </trkpt>
      <trkpt lat="43.65612" lon="6.91939">
        <ele>351</ele>
        <time>2012-04-02T00:34:12Z</time>
      </trkpt>
      <trkpt lat="43.65621" lon="6.91952">
        <ele>351</ele>
        <time>2012-04-02T00:34:15Z</time>
      </trkpt>
      <trkpt lat="43.65621" lon="6.91966">
        <ele>351</ele>
        <time>2012-04-02T00:34:17Z</time>
      </trkpt>
      <trkpt lat="43.65675" lon="6.92006">
        <ele>354</ele>
        <time>2012-04-02T00:34:31Z</time>
      </trkpt>
      <trkpt lat="43.65678" lon="6.92014">
        <ele>354</ele>
        <time>2012-04-02T00:34:33Z</time>
      </trkpt>
      <trkpt lat="43.6569" lon="6.92018">
        <ele>355</ele>
        <time>2012-04-02T00:34:35Z</time>
      </trkpt>
      <trkpt lat="43.65711" lon="6.92057">
        <ele>354</ele>
        <time>2012-04-02T00:34:40Z</time>
      </trkpt>
      <trkpt lat="43.65728" lon="6.92101">
        <ele>354</ele>
        <time>2012-04-02T00:34:45Z</time>
      </trkpt>
      <trkpt lat="43.65736" lon="6.92113">
        <ele>353</ele>
        <time>2012-04-02T00:34:47Z</time>
      </trkpt>
      <trkpt lat="43.65743" lon="6.92101">
        <ele>353</ele>
        <time>2012-04-02T00:34:48Z</time>
      </trkpt>
      <trkpt lat="43.65864" lon="6.92214">
        <ele>352</ele>
        <time>2012-04-02T00:35:08Z</time>
      </trkpt>
      <trkpt lat="43.65905" lon="6.92227">
        <ele>353</ele>
        <time>2012-04-02T00:35:16Z</time>
      </trkpt>
      <trkpt lat="43.66017" lon="6.92243">
        <ele>357</ele>
        <time>2012-04-02T00:35:40Z</time>
      </trkpt>
      <trkpt lat="43.6602" lon="6.92251">
        <ele>356</ele>
        <time>2012-04-02T00:35:41Z</time>
      </trkpt>
      <trkpt lat="43.66026" lon="6.92249">
        <ele>356</ele>
        <time>2012-04-02T00:35:42Z</time>
      </trkpt>
      <trkpt lat="43.66027" lon="6.92244">
        <ele>356</ele>
        <time>2012-04-02T00:35:42Z</time>
      </trkpt>
      <trkpt lat="43.66081" lon="6.92251">
        <ele>353</ele>
        <time>2012-04-02T00:35:50Z</time>
      </trkpt>
      <trkpt lat="43.66099" lon="6.92285">
        <ele>352</ele>
        <time>2012-04-02T00:35:54Z</time>
      </trkpt>
      <trkpt lat="43.66123" lon="6.92294">
        <ele>351</ele>
        <time>2012-04-02T00:35:57Z</time>
      </trkpt>
      <trkpt lat="43.66132" lon="6.92291">
        <ele>351</ele>
        <time>2012-04-02T00:35:59Z</time>
      </trkpt>
      <trkpt lat="43.66137" lon="6.92278">
        <ele>351</ele>
        <time>2012-04-02T00:36:02Z</time>
      </trkpt>
      <trkpt lat="43.66386" lon="6.92513">
        <ele>363</ele>
        <time>2012-04-02T00:37:09Z</time>
      </trkpt>
      <trkpt lat="43.66403" lon="6.9254">
        <ele>361</ele>
        <time>2012-04-02T00:37:12Z</time>
      </trkpt>
      <trkpt lat="43.66407" lon="6.92566">
        <ele>361</ele>
        <time>2012-04-02T00:37:15Z</time>
      </trkpt>
      <trkpt lat="43.66389" lon="6.92635">
        <ele>358</ele>
        <time>2012-04-02T00:37:22Z</time>
      </trkpt>
      <trkpt lat="43.66384" lon="6.92719">
        <ele>356</ele>
        <time>2012-04-02T00:37:30Z</time>
      </trkpt>
      <trkpt lat="43.66378" lon="6.92745">
        <ele>355</ele>
        <time>2012-04-02T00:37:33Z</time>
      </trkpt>
      <trkpt lat="43.66359" lon="6.92791">
        <ele>353</ele>
        <time>2012-04-02T00:37:38Z</time>
      </trkpt>
      <trkpt lat="43.66347" lon="6.9284">
        <ele>352</ele>
        <time>2012-04-02T00:37:43Z</time>
      </trkpt>
      <trkpt lat="43.66343" lon="6.92878">
        <ele>352</ele>
        <time>2012-04-02T00:37:48Z</time>
      </trkpt>
      <trkpt lat="43.66346" lon="6.93037">
        <ele>356</ele>
        <time>2012-04-02T00:38:12Z</time>
      </trkpt>
      <trkpt lat="43.6637" lon="6.9316">
        <ele>355</ele>
        <time>2012-04-02T00:38:24Z</time>
      </trkpt>
      <trkpt lat="43.66444" lon="6.93394">
        <ele>344</ele>
        <time>2012-04-02T00:38:49Z</time>
      </trkpt>
      <trkpt lat="43.66462" lon="6.93438">
        <ele>345</ele>
        <time>2012-04-02T00:38:58Z</time>
      </trkpt>
      <trkpt lat="43.66493" lon="6.93476">
        <ele>347</ele>
        <time>2012-04-02T00:39:08Z</time>
      </trkpt>
      <trkpt lat="43.66532" lon="6.93495">
        <ele>350</ele>
        <time>2012-04-02T00:39:19Z</time>
      </trkpt>
      <trkpt lat="43.66556" lon="6.93513">
        <ele>350</ele>
        <time>2012-04-02T00:39:23Z</time>
      </trkpt>
      <trkpt lat="43.66568" lon="6.93535">
        <ele>350</ele>
        <time>2012-04-02T00:39:26Z</time>
      </trkpt>
      <trkpt lat="43.66568" lon="6.93545">
        <ele>350</ele>
        <time>2012-04-02T00:39:27Z</time>
      </trkpt>
      <trkpt lat="43.66587" lon="6.93608">
        <ele>351</ele>
        <time>2012-04-02T00:39:35Z</time>
      </trkpt>
      <trkpt lat="43.66599" lon="6.93625">
        <ele>352</ele>
        <time>2012-04-02T00:39:42Z</time>
      </trkpt>
      <trkpt lat="43.66619" lon="6.93637">
        <ele>355</ele>
        <time>2012-04-02T00:39:50Z</time>
      </trkpt>
      <trkpt lat="43.66692" lon="6.93658">
        <ele>363</ele>
        <time>2012-04-02T00:40:19Z</time>
      </trkpt>
      <trkpt lat="43.66704" lon="6.93671">
        <ele>362</ele>
        <time>2012-04-02T00:40:21Z</time>
      </trkpt>
      <trkpt lat="43.66715" lon="6.93688">
        <ele>361</ele>
        <time>2012-04-02T00:40:23Z</time>
      </trkpt>
      <trkpt lat="43.66716" lon="6.93746">
        <ele>358</ele>
        <time>2012-04-02T00:40:29Z</time>
      </trkpt>
      <trkpt lat="43.66722" lon="6.93776">
        <ele>357</ele>
        <time>2012-04-02T00:40:32Z</time>
      </trkpt>
      <trkpt lat="43.66759" lon="6.93848">
        <ele>358</ele>
        <time>2012-04-02T00:40:44Z</time>
      </trkpt>
      <trkpt lat="43.66848" lon="6.93995">
        <ele>362</ele>
        <time>2012-04-02T00:41:11Z</time>
      </trkpt>
      <trkpt lat="43.66874" lon="6.94021">
        <ele>364</ele>
        <time>2012-04-02T00:41:22Z</time>
      </trkpt>
      <trkpt lat="43.66964" lon="6.94077">
        <ele>373</ele>
        <time>2012-04-02T00:41:55Z</time>
      </trkpt>
      <trkpt lat="43.6701" lon="6.94131">
        <ele>372</ele>
        <time>2012-04-02T00:42:03Z</time>
      </trkpt>
      <trkpt lat="43.6701" lon="6.9413">
        <ele>372</ele>
        <time>2012-04-02T00:42:03Z</time>
      </trkpt>
      <trkpt lat="43.67038" lon="6.94147">
        <ele>373</ele>
        <time>2012-04-02T00:42:10Z</time>
      </trkpt>
      <trkpt lat="43.67073" lon="6.94154">
        <ele>374</ele>
        <time>2012-04-02T00:42:19Z</time>
      </trkpt>
      <trkpt lat="43.67092" lon="6.94163">
        <ele>375</ele>
        <time>2012-04-02T00:42:23Z</time>
      </trkpt>
      <trkpt lat="43.67164" lon="6.94215">
        <ele>379</ele>
        <time>2012-04-02T00:42:42Z</time>
      </trkpt>
      <trkpt lat="43.67181" lon="6.94231">
        <ele>376</ele>
        <time>2012-04-02T00:42:45Z</time>
      </trkpt>
      <trkpt lat="43.67196" lon="6.94254">
        <ele>372</ele>
        <time>2012-04-02T00:42:48Z</time>
      </trkpt>
      <trkpt lat="43.67232" lon="6.94322">
        <ele>364</ele>
        <time>2012-04-02T00:42:56Z</time>
      </trkpt>
      <trkpt lat="43.67247" lon="6.94334">
        <ele>365</ele>
        <time>2012-04-02T00:43:03Z</time>
      </trkpt>
      <trkpt lat="43.67286" lon="6.94346">
        <ele>370</ele>
        <time>2012-04-02T00:43:18Z</time>
      </trkpt>
      <trkpt lat="43.67351" lon="6.94344">
        <ele>377</ele>
        <time>2012-04-02T00:43:44Z</time>
      </trkpt>
      <trkpt lat="43.67373" lon="6.94355">
        <ele>376</ele>
        <time>2012-04-02T00:43:47Z</time>
      </trkpt>
      <trkpt lat="43.67381" lon="6.94366">
        <ele>375</ele>
        <time>2012-04-02T00:43:48Z</time>
      </trkpt>
      <trkpt lat="43.67398" lon="6.94415">
        <ele>374</ele>
        <time>2012-04-02T00:43:53Z</time>
      </trkpt>
      <trkpt lat="43.67438" lon="6.94477">
        <ele>373</ele>
        <time>2012-04-02T00:44:02Z</time>
      </trkpt>
      <trkpt lat="43.67493" lon="6.94544">
        <ele>374</ele>
        <time>2012-04-02T00:44:15Z</time>
      </trkpt>
      <trkpt lat="43.67531" lon="6.94609">
        <ele>376</ele>
        <time>2012-04-02T00:44:27Z</time>
      </trkpt>
      <trkpt lat="43.67558" lon="6.94633">
        <ele>377</ele>
        <time>2012-04-02T00:44:35Z</time>
      </trkpt>
      <trkpt lat="43.67599" lon="6.94656">
        <ele>379</ele>
        <time>2012-04-02T00:44:46Z</time>
      </trkpt>
      <trkpt lat="43.6764" lon="6.9469">
        <ele>382</ele>
        <time>2012-04-02T00:44:58Z</time>
      </trkpt>
      <trkpt lat="43.67662" lon="6.947">
        <ele>382</ele>
        <time>2012-04-02T00:45:02Z</time>
      </trkpt>
      <trkpt lat="43.67932" lon="6.94782">
        <ele>389</ele>
        <time>2012-04-02T00:45:54Z</time>
      </trkpt>
      <trkpt lat="43.67957" lon="6.94793">
        <ele>385</ele>
        <time>2012-04-02T00:45:58Z</time>
      </trkpt>
      <trkpt lat="43.67972" lon="6.94813">
        <ele>383</ele>
        <time>2012-04-02T00:46:01Z</time>
      </trkpt>
      <trkpt lat="43.67979" lon="6.9485">
        <ele>380</ele>
        <time>2012-04-02T00:46:04Z</time>
      </trkpt>
      <trkpt lat="43.67954" lon="6.94937">
        <ele>372</ele>
        <time>2012-04-02T00:46:13Z</time>
      </trkpt>
      <trkpt lat="43.67952" lon="6.94957">
        <ele>371</ele>
        <time>2012-04-02T00:46:15Z</time>
      </trkpt>
      <trkpt lat="43.67957" lon="6.94995">
        <ele>370</ele>
        <time>2012-04-02T00:46:19Z</time>
      </trkpt>
      <trkpt lat="43.67984" lon="6.95055">
        <ele>368</ele>
        <time>2012-04-02T00:46:26Z</time>
      </trkpt>
      <trkpt lat="43.67991" lon="6.95153">
        <ele>364</ele>
        <time>2012-04-02T00:46:35Z</time>
      </trkpt>
      <trkpt lat="43.68002" lon="6.95181">
        <ele>364</ele>
        <time>2012-04-02T00:46:38Z</time>
      </trkpt>
      <trkpt lat="43.6807" lon="6.95292">
        <ele>367</ele>
        <time>2012-04-02T00:47:00Z</time>
      </trkpt>
      <trkpt lat="43.68138" lon="6.95436">
        <ele>367</ele>
        <time>2012-04-02T00:47:16Z</time>
      </trkpt>
      <trkpt lat="43.68165" lon="6.95502">
        <ele>369</ele>
        <time>2012-04-02T00:47:30Z</time>
      </trkpt>
      <trkpt lat="43.68182" lon="6.95575">
        <ele>372</ele>
        <time>2012-04-02T00:47:43Z</time>
      </trkpt>
      <trkpt lat="43.68174" lon="6.95607">
        <ele>372</ele>
        <time>2012-04-02T00:47:46Z</time>
      </trkpt>
      <trkpt lat="43.68113" lon="6.95748">
        <ele>372</ele>
        <time>2012-04-02T00:48:02Z</time>
      </trkpt>
      <trkpt lat="43.68102" lon="6.95786">
        <ele>375</ele>
        <time>2012-04-02T00:48:14Z</time>
      </trkpt>
      <trkpt lat="43.68105" lon="6.95811">
        <ele>377</ele>
        <time>2012-04-02T00:48:22Z</time>
      </trkpt>
      <trkpt lat="43.68144" lon="6.95897">
        <ele>386</ele>
        <time>2012-04-02T00:48:52Z</time>
      </trkpt>
      <trkpt lat="43.6815" lon="6.95979">
        <ele>392</ele>
        <time>2012-04-02T00:49:16Z</time>
      </trkpt>
      <trkpt lat="43.68183" lon="6.96042">
        <ele>399</ele>
        <time>2012-04-02T00:49:39Z</time>
      </trkpt>
      <trkpt lat="43.6819" lon="6.9607">
        <ele>398</ele>
        <time>2012-04-02T00:49:42Z</time>
      </trkpt>
      <trkpt lat="43.68188" lon="6.96084">
        <ele>398</ele>
        <time>2012-04-02T00:49:43Z</time>
      </trkpt>
      <trkpt lat="43.68169" lon="6.96133">
        <ele>397</ele>
        <time>2012-04-02T00:49:48Z</time>
      </trkpt>
      <trkpt lat="43.68168" lon="6.96165">
        <ele>397</ele>
        <time>2012-04-02T00:49:51Z</time>
      </trkpt>
      <trkpt lat="43.68192" lon="6.9636">
        <ele>409</ele>
        <time>2012-04-02T00:50:39Z</time>
      </trkpt>
      <trkpt lat="43.68193" lon="6.96411">
        <ele>409</ele>
        <time>2012-04-02T00:50:46Z</time>
      </trkpt>
      <trkpt lat="43.68181" lon="6.96506">
        <ele>411</ele>
        <time>2012-04-02T00:50:58Z</time>
      </trkpt>
      <trkpt lat="43.68054" lon="6.97104">
        <ele>422</ele>
        <time>2012-04-02T00:52:25Z</time>
      </trkpt>
      <trkpt lat="43.68042" lon="6.97131">
        <ele>422</ele>
        <time>2012-04-02T00:52:29Z</time>
      </trkpt>
      <trkpt lat="43.68042" lon="6.97139">
        <ele>422</ele>
        <time>2012-04-02T00:52:30Z</time>
      </trkpt>
      <trkpt lat="43.68035" lon="6.97149">
        <ele>422</ele>
        <time>2012-04-02T00:52:31Z</time>
      </trkpt>
      <trkpt lat="43.68038" lon="6.97163">
        <ele>422</ele>
        <time>2012-04-02T00:52:33Z</time>
      </trkpt>
      <trkpt lat="43.68055" lon="6.97164">
        <ele>422</ele>
        <time>2012-04-02T00:52:36Z</time>
      </trkpt>
      <trkpt lat="43.68069" lon="6.97177">
        <ele>422</ele>
        <time>2012-04-02T00:52:38Z</time>
      </trkpt>
      <trkpt lat="43.68087" lon="6.97202">
        <ele>423</ele>
        <time>2012-04-02T00:52:43Z</time>
      </trkpt>
      <trkpt lat="43.68107" lon="6.97198">
        <ele>423</ele>
        <time>2012-04-02T00:52:46Z</time>
      </trkpt>
      <trkpt lat="43.68145" lon="6.97177">
        <ele>424</ele>
        <time>2012-04-02T00:52:52Z</time>
      </trkpt>
      <trkpt lat="43.68171" lon="6.97185">
        <ele>422</ele>
        <time>2012-04-02T00:52:56Z</time>
      </trkpt>
      <trkpt lat="43.6818" lon="6.97199">
        <ele>421</ele>
        <time>2012-04-02T00:52:58Z</time>
      </trkpt>
      <trkpt lat="43.68228" lon="6.97344">
        <ele>413</ele>
        <time>2012-04-02T00:53:13Z</time>
      </trkpt>
      <trkpt lat="43.68257" lon="6.97399">
        <ele>406</ele>
        <time>2012-04-02T00:53:20Z</time>
      </trkpt>
      <trkpt lat="43.6828" lon="6.97484">
        <ele>399</ele>
        <time>2012-04-02T00:53:29Z</time>
      </trkpt>
      <trkpt lat="43.68299" lon="6.9752">
        <ele>395</ele>
        <time>2012-04-02T00:53:33Z</time>
      </trkpt>
      <trkpt lat="43.68347" lon="6.97582">
        <ele>389</ele>
        <time>2012-04-02T00:53:42Z</time>
      </trkpt>
      <trkpt lat="43.68399" lon="6.97615">
        <ele>384</ele>
        <time>2012-04-02T00:53:49Z</time>
      </trkpt>
      <trkpt lat="43.68486" lon="6.97712">
        <ele>375</ele>
        <time>2012-04-02T00:54:04Z</time>
      </trkpt>
      <trkpt lat="43.68537" lon="6.97745">
        <ele>370</ele>
        <time>2012-04-02T00:54:12Z</time>
      </trkpt>
      <trkpt lat="43.68597" lon="6.97835">
        <ele>363</ele>
        <time>2012-04-02T00:54:24Z</time>
      </trkpt>
      <trkpt lat="43.68615" lon="6.9785">
        <ele>362</ele>
        <time>2012-04-02T00:54:26Z</time>
      </trkpt>
      <trkpt lat="43.68705" lon="6.97895">
        <ele>362</ele>
        <time>2012-04-02T00:54:39Z</time>
      </trkpt>
      <trkpt lat="43.68812" lon="6.97891">
        <ele>372</ele>
        <time>2012-04-02T00:55:17Z</time>
      </trkpt>
      <trkpt lat="43.68839" lon="6.97901">
        <ele>370</ele>
        <time>2012-04-02T00:55:21Z</time>
      </trkpt>
      <trkpt lat="43.68912" lon="6.97951">
        <ele>365</ele>
        <time>2012-04-02T00:55:32Z</time>
      </trkpt>
      <trkpt lat="43.69009" lon="6.97958">
        <ele>367</ele>
        <time>2012-04-02T00:55:50Z</time>
      </trkpt>
      <trkpt lat="43.69056" lon="6.97972">
        <ele>365</ele>
        <time>2012-04-02T00:55:56Z</time>
      </trkpt>
      <trkpt lat="43.69056" lon="6.97972">
        <ele>365</ele>
        <time>2012-04-02T00:55:57Z</time>
      </trkpt>
      <trkpt lat="43.69179" lon="6.9802">
        <ele>353</ele>
        <time>2012-04-02T00:56:14Z</time>
      </trkpt>
      <trkpt lat="43.69207" lon="6.98018">
        <ele>354</ele>
        <time>2012-04-02T00:56:21Z</time>
      </trkpt>
      <trkpt lat="43.69224" lon="6.98007">
        <ele>354</ele>
        <time>2012-04-02T00:56:25Z</time>
      </trkpt>
      <trkpt lat="43.69258" lon="6.97961">
        <ele>356</ele>
        <time>2012-04-02T00:56:35Z</time>
      </trkpt>
      <trkpt lat="43.69322" lon="6.97938">
        <ele>359</ele>
        <time>2012-04-02T00:56:50Z</time>
      </trkpt>
      <trkpt lat="43.69383" lon="6.97893">
        <ele>354</ele>
        <time>2012-04-02T00:56:59Z</time>
      </trkpt>
      <trkpt lat="43.69458" lon="6.97891">
        <ele>350</ele>
        <time>2012-04-02T00:57:09Z</time>
      </trkpt>
      <trkpt lat="43.69536" lon="6.97853">
        <ele>342</ele>
        <time>2012-04-02T00:57:20Z</time>
      </trkpt>
      <trkpt lat="43.69588" lon="6.97847">
        <ele>337</ele>
        <time>2012-04-02T00:57:27Z</time>
      </trkpt>
      <trkpt lat="43.69606" lon="6.97833">
        <ele>337</ele>
        <time>2012-04-02T00:57:31Z</time>
      </trkpt>
      <trkpt lat="43.69675" lon="6.97758">
        <ele>338</ele>
        <time>2012-04-02T00:57:44Z</time>
      </trkpt>
      <trkpt lat="43.69706" lon="6.97736">
        <ele>333</ele>
        <time>2012-04-02T00:57:49Z</time>
      </trkpt>
      <trkpt lat="43.69744" lon="6.97733">
        <ele>329</ele>
        <time>2012-04-02T00:57:54Z</time>
      </trkpt>
      <trkpt lat="43.69761" lon="6.9774">
        <ele>327</ele>
        <time>2012-04-02T00:57:56Z</time>
      </trkpt>
      <trkpt lat="43.69778" lon="6.97755">
        <ele>325</ele>
        <time>2012-04-02T00:57:59Z</time>
      </trkpt>
      <trkpt lat="43.69792" lon="6.97775">
        <ele>322</ele>
        <time>2012-04-02T00:58:02Z</time>
      </trkpt>
      <trkpt lat="43.69806" lon="6.97809">
        <ele>318</ele>
        <time>2012-04-02T00:58:06Z</time>
      </trkpt>
      <trkpt lat="43.69816" lon="6.979">
        <ele>310</ele>
        <time>2012-04-02T00:58:15Z</time>
      </trkpt>
      <trkpt lat="43.69857" lon="6.97986">
        <ele>321</ele>
        <time>2012-04-02T00:58:53Z</time>
      </trkpt>
      <trkpt lat="43.69865" lon="6.98011">
        <ele>325</ele>
        <time>2012-04-02T00:59:03Z</time>
      </trkpt>
      <trkpt lat="43.6987" lon="6.98045">
        <ele>322</ele>
        <time>2012-04-02T00:59:06Z</time>
      </trkpt>
      <trkpt lat="43.69865" lon="6.98086">
        <ele>319</ele>
        <time>2012-04-02T00:59:10Z</time>
      </trkpt>
      <trkpt lat="43.6982" lon="6.98214">
        <ele>309</ele>
        <time>2012-04-02T00:59:24Z</time>
      </trkpt>
      <trkpt lat="43.69816" lon="6.98239">
        <ele>306</ele>
        <time>2012-04-02T00:59:27Z</time>
      </trkpt>
      <trkpt lat="43.69789" lon="6.98319">
        <ele>298</ele>
        <time>2012-04-02T00:59:35Z</time>
      </trkpt>
      <trkpt lat="43.69782" lon="6.98352">
        <ele>295</ele>
        <time>2012-04-02T00:59:39Z</time>
      </trkpt>
      <trkpt lat="43.69784" lon="6.98413">
        <ele>296</ele>
        <time>2012-04-02T00:59:48Z</time>
      </trkpt>
      <trkpt lat="43.69795" lon="6.98467">
        <ele>297</ele>
        <time>2012-04-02T00:59:56Z</time>
      </trkpt>
      <trkpt lat="43.69833" lon="6.98563">
        <ele>300</ele>
        <time>2012-04-02T01:00:12Z</time>
      </trkpt>
      <trkpt lat="43.69872" lon="6.98714">
        <ele>300</ele>
        <time>2012-04-02T01:00:28Z</time>
      </trkpt>
      <trkpt lat="43.69884" lon="6.98746">
        <ele>301</ele>
        <time>2012-04-02T01:00:34Z</time>
      </trkpt>
      <trkpt lat="43.6996" lon="6.98847">
        <ele>306</ele>
        <time>2012-04-02T01:01:00Z</time>
      </trkpt>
      <trkpt lat="43.70108" lon="6.99127">
        <ele>295</ele>
        <time>2012-04-02T01:01:33Z</time>
      </trkpt>
      <trkpt lat="43.70135" lon="6.99157">
        <ele>293</ele>
        <time>2012-04-02T01:01:38Z</time>
      </trkpt>
      <trkpt lat="43.70157" lon="6.99169">
        <ele>292</ele>
        <time>2012-04-02T01:01:41Z</time>
      </trkpt>
      <trkpt lat="43.70186" lon="6.9917">
        <ele>291</ele>
        <time>2012-04-02T01:01:45Z</time>
      </trkpt>
      <trkpt lat="43.70218" lon="6.99148">
        <ele>290</ele>
        <time>2012-04-02T01:01:50Z</time>
      </trkpt>
      <trkpt lat="43.70234" lon="6.99127">
        <ele>293</ele>
        <time>2012-04-02T01:02:02Z</time>
      </trkpt>
      <trkpt lat="43.70254" lon="6.99065">
        <ele>302</ele>
        <time>2012-04-02T01:02:30Z</time>
      </trkpt>
      <trkpt lat="43.70262" lon="6.99054">
        <ele>304</ele>
        <time>2012-04-02T01:02:36Z</time>
      </trkpt>
      <trkpt lat="43.70279" lon="6.99046">
        <ele>308</ele>
        <time>2012-04-02T01:02:46Z</time>
      </trkpt>
      <trkpt lat="43.703" lon="6.99054">
        <ele>302</ele>
        <time>2012-04-02T01:02:49Z</time>
      </trkpt>
      <trkpt lat="43.70363" lon="6.99116">
        <ele>284</ele>
        <time>2012-04-02T01:03:00Z</time>
      </trkpt>
      <trkpt lat="43.704" lon="6.99135">
        <ele>279</ele>
        <time>2012-04-02T01:03:05Z</time>
      </trkpt>
      <trkpt lat="43.70451" lon="6.99142">
        <ele>274</ele>
        <time>2012-04-02T01:03:12Z</time>
      </trkpt>
      <trkpt lat="43.7059" lon="6.99126">
        <ele>266</ele>
        <time>2012-04-02T01:03:30Z</time>
      </trkpt>
      <trkpt lat="43.70617" lon="6.99107">
        <ele>267</ele>
        <time>2012-04-02T01:03:38Z</time>
      </trkpt>
      <trkpt lat="43.70641" lon="6.99069">
        <ele>269</ele>
        <time>2012-04-02T01:03:48Z</time>
      </trkpt>
      <trkpt lat="43.70662" lon="6.99051">
        <ele>271</ele>
        <time>2012-04-02T01:03:55Z</time>
      </trkpt>
      <trkpt lat="43.70839" lon="6.98959">
        <ele>258</ele>
        <time>2012-04-02T01:04:20Z</time>
      </trkpt>
      <trkpt lat="43.70909" lon="6.98958">
        <ele>246</ele>
        <time>2012-04-02T01:04:29Z</time>
      </trkpt>
      <trkpt lat="43.71001" lon="6.98918">
        <ele>231</ele>
        <time>2012-04-02T01:04:42Z</time>
      </trkpt>
      <trkpt lat="43.71061" lon="6.98901">
        <ele>226</ele>
        <time>2012-04-02T01:04:50Z</time>
      </trkpt>
      <trkpt lat="43.71142" lon="6.98862">
        <ele>219</ele>
        <time>2012-04-02T01:05:02Z</time>
      </trkpt>
      <trkpt lat="43.71158" lon="6.98849">
        <ele>219</ele>
        <time>2012-04-02T01:05:05Z</time>
      </trkpt>
      <trkpt lat="43.71166" lon="6.98836">
        <ele>219</ele>
        <time>2012-04-02T01:05:08Z</time>
      </trkpt>
      <trkpt lat="43.71192" lon="6.98761">
        <ele>221</ele>
        <time>2012-04-02T01:05:20Z</time>
      </trkpt>
      <trkpt lat="43.71235" lon="6.98693">
        <ele>223</ele>
        <time>2012-04-02T01:05:32Z</time>
      </trkpt>
      <trkpt lat="43.7126" lon="6.98613">
        <ele>231</ele>
        <time>2012-04-02T01:06:01Z</time>
      </trkpt>
      <trkpt lat="43.71266" lon="6.98547">
        <ele>238</ele>
        <time>2012-04-02T01:06:23Z</time>
      </trkpt>
      <trkpt lat="43.71276" lon="6.98534">
        <ele>235</ele>
        <time>2012-04-02T01:06:25Z</time>
      </trkpt>
      <trkpt lat="43.71288" lon="6.98527">
        <ele>234</ele>
        <time>2012-04-02T01:06:27Z</time>
      </trkpt>
      <trkpt lat="43.71307" lon="6.98529">
        <ele>231</ele>
        <time>2012-04-02T01:06:29Z</time>
      </trkpt>
      <trkpt lat="43.7132" lon="6.98543">
        <ele>228</ele>
        <time>2012-04-02T01:06:31Z</time>
      </trkpt>
      <trkpt lat="43.71346" lon="6.98687">
        <ele>213</ele>
        <time>2012-04-02T01:06:46Z</time>
      </trkpt>
      <trkpt lat="43.71354" lon="6.98707">
        <ele>210</ele>
        <time>2012-04-02T01:06:48Z</time>
      </trkpt>
      <trkpt lat="43.71397" lon="6.98778">
        <ele>201</ele>
        <time>2012-04-02T01:06:57Z</time>
      </trkpt>
      <trkpt lat="43.71406" lon="6.98805">
        <ele>199</ele>
        <time>2012-04-02T01:07:00Z</time>
      </trkpt>
      <trkpt lat="43.71409" lon="6.98837">
        <ele>196</ele>
        <time>2012-04-02T01:07:03Z</time>
      </trkpt>
      <trkpt lat="43.71409" lon="6.98837">
        <ele>196</ele>
        <time>2012-04-02T01:07:04Z</time>
      </trkpt>
      <trkpt lat="43.71414" lon="6.98874">
        <ele>196</ele>
        <time>2012-04-02T01:07:08Z</time>
      </trkpt>
      <trkpt lat="43.71426" lon="6.98893">
        <ele>196</ele>
        <time>2012-04-02T01:07:10Z</time>
      </trkpt>
      <trkpt lat="43.71438" lon="6.98901">
        <ele>196</ele>
        <time>2012-04-02T01:07:12Z</time>
      </trkpt>
      <trkpt lat="43.71459" lon="6.98902">
        <ele>196</ele>
        <time>2012-04-02T01:07:15Z</time>
      </trkpt>
      <trkpt lat="43.71498" lon="6.98879">
        <ele>196</ele>
        <time>2012-04-02T01:07:20Z</time>
      </trkpt>
      <trkpt lat="43.71513" lon="6.98877">
        <ele>195</ele>
        <time>2012-04-02T01:07:22Z</time>
      </trkpt>
      <trkpt lat="43.71528" lon="6.98882">
        <ele>194</ele>
        <time>2012-04-02T01:07:24Z</time>
      </trkpt>
      <trkpt lat="43.71567" lon="6.98919">
        <ele>193</ele>
        <time>2012-04-02T01:07:31Z</time>
      </trkpt>
      <trkpt lat="43.71594" lon="6.98932">
        <ele>192</ele>
        <time>2012-04-02T01:07:34Z</time>
      </trkpt>
      <trkpt lat="43.71758" lon="6.98989">
        <ele>190</ele>
        <time>2012-04-02T01:07:57Z</time>
      </trkpt>
      <trkpt lat="43.71785" lon="6.98992">
        <ele>189</ele>
        <time>2012-04-02T01:08:01Z</time>
      </trkpt>
      <trkpt lat="43.71818" lon="6.98986">
        <ele>187</ele>
        <time>2012-04-02T01:08:05Z</time>
      </trkpt>
      <trkpt lat="43.7183" lon="6.98991">
        <ele>187</ele>
        <time>2012-04-02T01:08:07Z</time>
      </trkpt>
      <trkpt lat="43.71863" lon="6.9903">
        <ele>186</ele>
        <time>2012-04-02T01:08:13Z</time>
      </trkpt>
      <trkpt lat="43.71906" lon="6.99068">
        <ele>185</ele>
        <time>2012-04-02T01:08:19Z</time>
      </trkpt>
      <trkpt lat="43.71977" lon="6.99157">
        <ele>184</ele>
        <time>2012-04-02T01:08:32Z</time>
      </trkpt>
      <trkpt lat="43.71985" lon="6.99196">
        <ele>183</ele>
        <time>2012-04-02T01:08:36Z</time>
      </trkpt>
      <trkpt lat="43.7198" lon="6.9925">
        <ele>182</ele>
        <time>2012-04-02T01:08:41Z</time>
      </trkpt>
      <trkpt lat="43.71963" lon="6.99271">
        <ele>181</ele>
        <time>2012-04-02T01:08:44Z</time>
      </trkpt>
      <trkpt lat="43.71947" lon="6.99273">
        <ele>181</ele>
        <time>2012-04-02T01:08:47Z</time>
      </trkpt>
      <trkpt lat="43.71775" lon="6.99202">
        <ele>177</ele>
        <time>2012-04-02T01:09:10Z</time>
      </trkpt>
      <trkpt lat="43.71762" lon="6.99202">
        <ele>177</ele>
        <time>2012-04-02T01:09:12Z</time>
      </trkpt>
      <trkpt lat="43.7171" lon="6.99219">
        <ele>177</ele>
        <time>2012-04-02T01:09:21Z</time>
      </trkpt>
      <trkpt lat="43.71653" lon="6.99273">
        <ele>178</ele>
        <time>2012-04-02T01:09:31Z</time>
      </trkpt>
      <trkpt lat="43.71634" lon="6.99283">
        <ele>177</ele>
        <time>2012-04-02T01:09:34Z</time>
      </trkpt>
      <trkpt lat="43.7161" lon="6.99285">
        <ele>176</ele>
        <time>2012-04-02T01:09:37Z</time>
      </trkpt>
      <trkpt lat="43.71555" lon="6.99269">
        <ele>174</ele>
        <time>2012-04-02T01:09:44Z</time>
      </trkpt>
      <trkpt lat="43.71514" lon="6.99277">
        <ele>172</ele>
        <time>2012-04-02T01:09:50Z</time>
      </trkpt>
      <trkpt lat="43.71481" lon="6.99259">
        <ele>171</ele>
        <time>2012-04-02T01:09:55Z</time>
      </trkpt>
      <trkpt lat="43.71452" lon="6.99255">
        <ele>171</ele>
        <time>2012-04-02T01:09:59Z</time>
      </trkpt>
      <trkpt lat="43.71435" lon="6.9927">
        <ele>172</ele>
        <time>2012-04-02T01:10:04Z</time>
      </trkpt>
      <trkpt lat="43.71427" lon="6.99285">
        <ele>172</ele>
        <time>2012-04-02T01:10:07Z</time>
      </trkpt>
      <trkpt lat="43.71411" lon="6.99338">
        <ele>175</ele>
        <time>2012-04-02T01:10:18Z</time>
      </trkpt>
      <trkpt lat="43.71385" lon="6.99372">
        <ele>177</ele>
        <time>2012-04-02T01:10:28Z</time>
      </trkpt>
      <trkpt lat="43.71251" lon="6.99483">
        <ele>183</ele>
        <time>2012-04-02T01:11:03Z</time>
      </trkpt>
      <trkpt lat="43.71193" lon="6.99501">
        <ele>184</ele>
        <time>2012-04-02T01:11:14Z</time>
      </trkpt>
      <trkpt lat="43.71176" lon="6.99514">
        <ele>184</ele>
        <time>2012-04-02T01:11:18Z</time>
      </trkpt>
      <trkpt lat="43.71164" lon="6.99532">
        <ele>185</ele>
        <time>2012-04-02T01:11:21Z</time>
      </trkpt>
      <trkpt lat="43.71155" lon="6.99553">
        <ele>190</ele>
        <time>2012-04-02T01:11:37Z</time>
      </trkpt>
      <trkpt lat="43.71151" lon="6.99584">
        <ele>198</ele>
        <time>2012-04-02T01:11:57Z</time>
      </trkpt>
      <trkpt lat="43.71164" lon="6.99724">
        <ele>231</ele>
        <time>2012-04-02T01:13:30Z</time>
      </trkpt>
      <trkpt lat="43.71164" lon="6.99733">
        <ele>231</ele>
        <time>2012-04-02T01:13:31Z</time>
      </trkpt>
      <trkpt lat="43.71155" lon="6.99755">
        <ele>231</ele>
        <time>2012-04-02T01:13:35Z</time>
      </trkpt>
      <trkpt lat="43.71108" lon="6.99769">
        <ele>232</ele>
        <time>2012-04-02T01:13:43Z</time>
      </trkpt>
      <trkpt lat="43.71082" lon="6.998">
        <ele>233</ele>
        <time>2012-04-02T01:13:49Z</time>
      </trkpt>
      <trkpt lat="43.71067" lon="6.99808">
        <ele>231</ele>
        <time>2012-04-02T01:13:51Z</time>
      </trkpt>
      <trkpt lat="43.71029" lon="6.99798">
        <ele>227</ele>
        <time>2012-04-02T01:13:57Z</time>
      </trkpt>
      <trkpt lat="43.71011" lon="6.99801">
        <ele>226</ele>
        <time>2012-04-02T01:13:59Z</time>
      </trkpt>
      <trkpt lat="43.70922" lon="6.99882">
        <ele>216</ele>
        <time>2012-04-02T01:14:13Z</time>
      </trkpt>
      <trkpt lat="43.70915" lon="6.99884">
        <ele>216</ele>
        <time>2012-04-02T01:14:17Z</time>
      </trkpt>
      <trkpt lat="43.70877" lon="6.99973">
        <ele>227</ele>
        <time>2012-04-02T01:14:51Z</time>
      </trkpt>
      <trkpt lat="43.70866" lon="7.00006">
        <ele>231</ele>
        <time>2012-04-02T01:15:04Z</time>
      </trkpt>
      <trkpt lat="43.70855" lon="7.00068">
        <ele>236</ele>
        <time>2012-04-02T01:15:23Z</time>
      </trkpt>
      <trkpt lat="43.70844" lon="7.00092">
        <ele>238</ele>
        <time>2012-04-02T01:15:32Z</time>
      </trkpt>
      <trkpt lat="43.70808" lon="7.00124">
        <ele>244</ele>
        <time>2012-04-02T01:15:50Z</time>
      </trkpt>
      <trkpt lat="43.7078" lon="7.0018">
        <ele>244</ele>
        <time>2012-04-02T01:15:56Z</time>
      </trkpt>
      <trkpt lat="43.70768" lon="7.00194">
        <ele>244</ele>
        <time>2012-04-02T01:15:58Z</time>
      </trkpt>
      <trkpt lat="43.70732" lon="7.00218">
        <ele>244</ele>
        <time>2012-04-02T01:16:04Z</time>
      </trkpt>
      <trkpt lat="43.70689" lon="7.00274">
        <ele>238</ele>
        <time>2012-04-02T01:16:11Z</time>
      </trkpt>
      <trkpt lat="43.70642" lon="7.00302">
        <ele>233</ele>
        <time>2012-04-02T01:16:18Z</time>
      </trkpt>
      <trkpt lat="43.70616" lon="7.00331">
        <ele>236</ele>
        <time>2012-04-02T01:16:32Z</time>
      </trkpt>
      <trkpt lat="43.70594" lon="7.00382">
        <ele>241</ele>
        <time>2012-04-02T01:16:50Z</time>
      </trkpt>
      <trkpt lat="43.7058" lon="7.00528">
        <ele>254</ele>
        <time>2012-04-02T01:17:33Z</time>
      </trkpt>
      <trkpt lat="43.70539" lon="7.00672">
        <ele>263</ele>
        <time>2012-04-02T01:18:10Z</time>
      </trkpt>
      <trkpt lat="43.70523" lon="7.00774">
        <ele>265</ele>
        <time>2012-04-02T01:18:26Z</time>
      </trkpt>
      <trkpt lat="43.70505" lon="7.0082">
        <ele>267</ele>
        <time>2012-04-02T01:18:34Z</time>
      </trkpt>
      <trkpt lat="43.70475" lon="7.00877">
        <ele>268</ele>
        <time>2012-04-02T01:18:46Z</time>
      </trkpt>
      <trkpt lat="43.70475" lon="7.00907">
        <ele>269</ele>
        <time>2012-04-02T01:18:51Z</time>
      </trkpt>
      <trkpt lat="43.70487" lon="7.00949">
        <ele>271</ele>
        <time>2012-04-02T01:18:58Z</time>
      </trkpt>
      <trkpt lat="43.70476" lon="7.01044">
        <ele>276</ele>
        <time>2012-04-02T01:19:21Z</time>
      </trkpt>
      <trkpt lat="43.70478" lon="7.01115">
        <ele>281</ele>
        <time>2012-04-02T01:19:38Z</time>
      </trkpt>
      <trkpt lat="43.7046" lon="7.0118">
        <ele>282</ele>
        <time>2012-04-02T01:19:47Z</time>
      </trkpt>
      <trkpt lat="43.70439" lon="7.01235">
        <ele>283</ele>
        <time>2012-04-02T01:19:56Z</time>
      </trkpt>
      <trkpt lat="43.7043" lon="7.01251">
        <ele>282</ele>
        <time>2012-04-02T01:19:58Z</time>
      </trkpt>
      <trkpt lat="43.70392" lon="7.01294">
        <ele>280</ele>
        <time>2012-04-02T01:20:04Z</time>
      </trkpt>
      <trkpt lat="43.70379" lon="7.01324">
        <ele>279</ele>
        <time>2012-04-02T01:20:08Z</time>
      </trkpt>
      <trkpt lat="43.70377" lon="7.01345">
        <ele>279</ele>
        <time>2012-04-02T01:20:10Z</time>
      </trkpt>
      <trkpt lat="43.70385" lon="7.01418">
        <ele>282</ele>
        <time>2012-04-02T01:20:25Z</time>
      </trkpt>
      <trkpt lat="43.70379" lon="7.01472">
        <ele>285</ele>
        <time>2012-04-02T01:20:37Z</time>
      </trkpt>
      <trkpt lat="43.70324" lon="7.01666">
        <ele>279</ele>
        <time>2012-04-02T01:20:57Z</time>
      </trkpt>
      <trkpt lat="43.70319" lon="7.01714">
        <ele>280</ele>
        <time>2012-04-02T01:21:05Z</time>
      </trkpt>
      <trkpt lat="43.70339" lon="7.0188">
        <ele>286</ele>
        <time>2012-04-02T01:21:34Z</time>
      </trkpt>
      <trkpt lat="43.70352" lon="7.01927">
        <ele>287</ele>
        <time>2012-04-02T01:21:44Z</time>
      </trkpt>
      <trkpt lat="43.70365" lon="7.01953">
        <ele>288</ele>
        <time>2012-04-02T01:21:49Z</time>
      </trkpt>
      <trkpt lat="43.7041" lon="7.0201">
        <ele>292</ele>
        <time>2012-04-02T01:22:05Z</time>
      </trkpt>
      <trkpt lat="43.70438" lon="7.02033">
        <ele>296</ele>
        <time>2012-04-02T01:22:20Z</time>
      </trkpt>
      <trkpt lat="43.70508" lon="7.02077">
        <ele>307</ele>
        <time>2012-04-02T01:22:55Z</time>
      </trkpt>
      <trkpt lat="43.70525" lon="7.021">
        <ele>308</ele>
        <time>2012-04-02T01:23:01Z</time>
      </trkpt>
      <trkpt lat="43.70549" lon="7.02217">
        <ele>312</ele>
        <time>2012-04-02T01:23:22Z</time>
      </trkpt>
      <trkpt lat="43.70562" lon="7.02387">
        <ele>311</ele>
        <time>2012-04-02T01:23:39Z</time>
      </trkpt>
      <trkpt lat="43.70562" lon="7.02387">
        <ele>311</ele>
        <time>2012-04-02T01:23:40Z</time>
      </trkpt>
      <trkpt lat="43.70575" lon="7.02491">
        <ele>306</ele>
        <time>2012-04-02T01:23:50Z</time>
      </trkpt>
      <trkpt lat="43.7059" lon="7.02539">
        <ele>305</ele>
        <time>2012-04-02T01:23:55Z</time>
      </trkpt>
      <trkpt lat="43.70604" lon="7.0256">
        <ele>307</ele>
        <time>2012-04-02T01:24:03Z</time>
      </trkpt>
      <trkpt lat="43.70648" lon="7.02583">
        <ele>311</ele>
        <time>2012-04-02T01:24:20Z</time>
      </trkpt>
      <trkpt lat="43.70659" lon="7.02604">
        <ele>313</ele>
        <time>2012-04-02T01:24:27Z</time>
      </trkpt>
      <trkpt lat="43.70657" lon="7.02627">
        <ele>315</ele>
        <time>2012-04-02T01:24:33Z</time>
      </trkpt>
      <trkpt lat="43.70637" lon="7.02663">
        <ele>316</ele>
        <time>2012-04-02T01:24:41Z</time>
      </trkpt>
      <trkpt lat="43.70636" lon="7.027">
        <ele>317</ele>
        <time>2012-04-02T01:24:48Z</time>
      </trkpt>
      <trkpt lat="43.7068" lon="7.02958">
        <ele>327</ele>
        <time>2012-04-02T01:25:35Z</time>
      </trkpt>
      <trkpt lat="43.70684" lon="7.02999">
        <ele>325</ele>
        <time>2012-04-02T01:25:39Z</time>
      </trkpt>
      <trkpt lat="43.70679" lon="7.03022">
        <ele>324</ele>
        <time>2012-04-02T01:25:42Z</time>
      </trkpt>
      <trkpt lat="43.70643" lon="7.03105">
        <ele>322</ele>
        <time>2012-04-02T01:25:51Z</time>
      </trkpt>
      <trkpt lat="43.70616" lon="7.03161">
        <ele>317</ele>
        <time>2012-04-02T01:25:57Z</time>
      </trkpt>
      <trkpt lat="43.70593" lon="7.03198">
        <ele>313</ele>
        <time>2012-04-02T01:26:02Z</time>
      </trkpt>
      <trkpt lat="43.70541" lon="7.03269">
        <ele>306</ele>
        <time>2012-04-02T01:26:12Z</time>
      </trkpt>
      <trkpt lat="43.70493" lon="7.03308">
        <ele>297</ele>
        <time>2012-04-02T01:26:19Z</time>
      </trkpt>
      <trkpt lat="43.70467" lon="7.03338">
        <ele>292</ele>
        <time>2012-04-02T01:26:24Z</time>
      </trkpt>
      <trkpt lat="43.70458" lon="7.03368">
        <ele>289</ele>
        <time>2012-04-02T01:26:27Z</time>
      </trkpt>
      <trkpt lat="43.7045" lon="7.03432">
        <ele>298</ele>
        <time>2012-04-02T01:26:56Z</time>
      </trkpt>
      <trkpt lat="43.70462" lon="7.03491">
        <ele>307</ele>
        <time>2012-04-02T01:27:22Z</time>
      </trkpt>
      <trkpt lat="43.70463" lon="7.03526">
        <ele>312</ele>
        <time>2012-04-02T01:27:38Z</time>
      </trkpt>
      <trkpt lat="43.70438" lon="7.03585">
        <ele>308</ele>
        <time>2012-04-02T01:27:44Z</time>
      </trkpt>
      <trkpt lat="43.70429" lon="7.03659">
        <ele>304</ele>
        <time>2012-04-02T01:27:52Z</time>
      </trkpt>
      <trkpt lat="43.70415" lon="7.03708">
        <ele>304</ele>
        <time>2012-04-02T01:27:58Z</time>
      </trkpt>
      <trkpt lat="43.70412" lon="7.03744">
        <ele>304</ele>
        <time>2012-04-02T01:28:02Z</time>
      </trkpt>
      <trkpt lat="43.70414" lon="7.03762">
        <ele>305</ele>
        <time>2012-04-02T01:28:05Z</time>
      </trkpt>
      <trkpt lat="43.70422" lon="7.03781">
        <ele>305</ele>
        <time>2012-04-02T01:28:07Z</time>
      </trkpt>
      <trkpt lat="43.70453" lon="7.03819">
        <ele>306</ele>
        <time>2012-04-02T01:28:14Z</time>
      </trkpt>
      <trkpt lat="43.70467" lon="7.03845">
        <ele>307</ele>
        <time>2012-04-02T01:28:22Z</time>
      </trkpt>
      <trkpt lat="43.70484" lon="7.03942">
        <ele>313</ele>
        <time>2012-04-02T01:28:44Z</time>
      </trkpt>
      <trkpt lat="43.70509" lon="7.0403">
        <ele>333</ele>
        <time>2012-04-02T01:29:43Z</time>
      </trkpt>
      <trkpt lat="43.70528" lon="7.0407">
        <ele>344</ele>
        <time>2012-04-02T01:30:12Z</time>
      </trkpt>
      <trkpt lat="43.70556" lon="7.04098">
        <ele>346</ele>
        <time>2012-04-02T01:30:22Z</time>
      </trkpt>
      <trkpt lat="43.70586" lon="7.04111">
        <ele>347</ele>
        <time>2012-04-02T01:30:30Z</time>
      </trkpt>
      <trkpt lat="43.70727" lon="7.04114">
        <ele>356</ele>
        <time>2012-04-02T01:31:09Z</time>
      </trkpt>
      <trkpt lat="43.70742" lon="7.04131">
        <ele>355</ele>
        <time>2012-04-02T01:31:11Z</time>
      </trkpt>
      <trkpt lat="43.70745" lon="7.04144">
        <ele>354</ele>
        <time>2012-04-02T01:31:13Z</time>
      </trkpt>
      <trkpt lat="43.70744" lon="7.04158">
        <ele>354</ele>
        <time>2012-04-02T01:31:14Z</time>
      </trkpt>
      <trkpt lat="43.70735" lon="7.04176">
        <ele>353</ele>
        <time>2012-04-02T01:31:16Z</time>
      </trkpt>
      <trkpt lat="43.70621" lon="7.04256">
        <ele>347</ele>
        <time>2012-04-02T01:31:33Z</time>
      </trkpt>
      <trkpt lat="43.70602" lon="7.04277">
        <ele>346</ele>
        <time>2012-04-02T01:31:36Z</time>
      </trkpt>
      <trkpt lat="43.70586" lon="7.04303">
        <ele>346</ele>
        <time>2012-04-02T01:31:40Z</time>
      </trkpt>
      <trkpt lat="43.7057" lon="7.0435">
        <ele>346</ele>
        <time>2012-04-02T01:31:45Z</time>
      </trkpt>
      <trkpt lat="43.70568" lon="7.04377">
        <ele>346</ele>
        <time>2012-04-02T01:31:47Z</time>
      </trkpt>
      <trkpt lat="43.70572" lon="7.04427">
        <ele>350</ele>
        <time>2012-04-02T01:32:04Z</time>
      </trkpt>
      <trkpt lat="43.70581" lon="7.04457">
        <ele>353</ele>
        <time>2012-04-02T01:32:14Z</time>
      </trkpt>
      <trkpt lat="43.7059" lon="7.0448">
        <ele>356</ele>
        <time>2012-04-02T01:32:22Z</time>
      </trkpt>
      <trkpt lat="43.70615" lon="7.04516">
        <ele>361</ele>
        <time>2012-04-02T01:32:39Z</time>
      </trkpt>
      <trkpt lat="43.70718" lon="7.0457">
        <ele>373</ele>
        <time>2012-04-02T01:33:22Z</time>
      </trkpt>
      <trkpt lat="43.70738" lon="7.04587">
        <ele>372</ele>
        <time>2012-04-02T01:33:25Z</time>
      </trkpt>
      <trkpt lat="43.70752" lon="7.04608">
        <ele>371</ele>
        <time>2012-04-02T01:33:28Z</time>
      </trkpt>
      <trkpt lat="43.70769" lon="7.04655">
        <ele>371</ele>
        <time>2012-04-02T01:33:33Z</time>
      </trkpt>
      <trkpt lat="43.70791" lon="7.04774">
        <ele>369</ele>
        <time>2012-04-02T01:33:45Z</time>
      </trkpt>
      <trkpt lat="43.70803" lon="7.04812">
        <ele>371</ele>
        <time>2012-04-02T01:33:54Z</time>
      </trkpt>
      <trkpt lat="43.70824" lon="7.04849">
        <ele>373</ele>
        <time>2012-04-02T01:34:04Z</time>
      </trkpt>
      <trkpt lat="43.70924" lon="7.04978">
        <ele>383</ele>
        <time>2012-04-02T01:34:45Z</time>
      </trkpt>
      <trkpt lat="43.71053" lon="7.05285">
        <ele>385</ele>
        <time>2012-04-02T01:35:24Z</time>
      </trkpt>
      <trkpt lat="43.71073" lon="7.05314">
        <ele>388</ele>
        <time>2012-04-02T01:35:36Z</time>
      </trkpt>
      <trkpt lat="43.71098" lon="7.05334">
        <ele>391</ele>
        <time>2012-04-02T01:35:47Z</time>
      </trkpt>
      <trkpt lat="43.71127" lon="7.05344">
        <ele>394</ele>
        <time>2012-04-02T01:35:59Z</time>
      </trkpt>
      <trkpt lat="43.71185" lon="7.05351">
        <ele>401</ele>
        <time>2012-04-02T01:36:22Z</time>
      </trkpt>
      <trkpt lat="43.71198" lon="7.0536">
        <ele>400</ele>
        <time>2012-04-02T01:36:24Z</time>
      </trkpt>
      <trkpt lat="43.7121" lon="7.05383">
        <ele>399</ele>
        <time>2012-04-02T01:36:27Z</time>
      </trkpt>
      <trkpt lat="43.71234" lon="7.05473">
        <ele>396</ele>
        <time>2012-04-02T01:36:36Z</time>
      </trkpt>
      <trkpt lat="43.71258" lon="7.05509">
        <ele>397</ele>
        <time>2012-04-02T01:36:45Z</time>
      </trkpt>
      <trkpt lat="43.71284" lon="7.05536">
        <ele>398</ele>
        <time>2012-04-02T01:36:52Z</time>
      </trkpt>
      <trkpt lat="43.713" lon="7.05566">
        <ele>400</ele>
        <time>2012-04-02T01:36:59Z</time>
      </trkpt>
      <trkpt lat="43.7131" lon="7.05634">
        <ele>398</ele>
        <time>2012-04-02T01:37:05Z</time>
      </trkpt>
      <trkpt lat="43.71319" lon="7.05656">
        <ele>398</ele>
        <time>2012-04-02T01:37:08Z</time>
      </trkpt>
      <trkpt lat="43.71333" lon="7.05671">
        <ele>398</ele>
        <time>2012-04-02T01:37:10Z</time>
      </trkpt>
      <trkpt lat="43.71346" lon="7.05674">
        <ele>398</ele>
        <time>2012-04-02T01:37:12Z</time>
      </trkpt>
      <trkpt lat="43.71373" lon="7.05666">
        <ele>399</ele>
        <time>2012-04-02T01:37:19Z</time>
      </trkpt>
      <trkpt lat="43.71464" lon="7.0562">
        <ele>404</ele>
        <time>2012-04-02T01:37:43Z</time>
      </trkpt>
      <trkpt lat="43.71496" lon="7.05598">
        <ele>406</ele>
        <time>2012-04-02T01:37:53Z</time>
      </trkpt>
      <trkpt lat="43.71528" lon="7.0554">
        <ele>409</ele>
        <time>2012-04-02T01:38:07Z</time>
      </trkpt>
      <trkpt lat="43.71539" lon="7.05532">
        <ele>410</ele>
        <time>2012-04-02T01:38:11Z</time>
      </trkpt>
      <trkpt lat="43.71629" lon="7.05491">
        <ele>407</ele>
        <time>2012-04-02T01:38:23Z</time>
      </trkpt>
      <trkpt lat="43.71682" lon="7.05486">
        <ele>409</ele>
        <time>2012-04-02T01:38:36Z</time>
      </trkpt>
      <trkpt lat="43.71715" lon="7.05445">
        <ele>411</ele>
        <time>2012-04-02T01:38:46Z</time>
      </trkpt>
      <trkpt lat="43.71723" lon="7.05441">
        <ele>410</ele>
        <time>2012-04-02T01:38:47Z</time>
      </trkpt>
      <trkpt lat="43.71736" lon="7.05438">
        <ele>408</ele>
        <time>2012-04-02T01:38:49Z</time>
      </trkpt>
      <trkpt lat="43.71752" lon="7.05442">
        <ele>406</ele>
        <time>2012-04-02T01:38:51Z</time>
      </trkpt>
      <trkpt lat="43.71767" lon="7.05461">
        <ele>404</ele>
        <time>2012-04-02T01:38:54Z</time>
      </trkpt>
      <trkpt lat="43.7177" lon="7.0548">
        <ele>403</ele>
        <time>2012-04-02T01:38:56Z</time>
      </trkpt>
      <trkpt lat="43.71768" lon="7.05497">
        <ele>401</ele>
        <time>2012-04-02T01:38:57Z</time>
      </trkpt>
      <trkpt lat="43.71689" lon="7.05713">
        <ele>383</ele>
        <time>2012-04-02T01:39:21Z</time>
      </trkpt>
      <trkpt lat="43.71679" lon="7.05748">
        <ele>383</ele>
        <time>2012-04-02T01:39:24Z</time>
      </trkpt>
      <trkpt lat="43.71678" lon="7.05765">
        <ele>383</ele>
        <time>2012-04-02T01:39:26Z</time>
      </trkpt>
      <trkpt lat="43.71687" lon="7.05877">
        <ele>383</ele>
        <time>2012-04-02T01:39:37Z</time>
      </trkpt>
      <trkpt lat="43.7171" lon="7.05977">
        <ele>381</ele>
        <time>2012-04-02T01:39:47Z</time>
      </trkpt>
      <trkpt lat="43.71734" lon="7.06043">
        <ele>381</ele>
        <time>2012-04-02T01:39:54Z</time>
      </trkpt>
      <trkpt lat="43.71834" lon="7.06257">
        <ele>393</ele>
        <time>2012-04-02T01:40:48Z</time>
      </trkpt>
      <trkpt lat="43.7184" lon="7.06279">
        <ele>391</ele>
        <time>2012-04-02T01:40:50Z</time>
      </trkpt>
      <trkpt lat="43.71837" lon="7.06297">
        <ele>391</ele>
        <time>2012-04-02T01:40:52Z</time>
      </trkpt>
      <trkpt lat="43.71828" lon="7.06311">
        <ele>390</ele>
        <time>2012-04-02T01:40:53Z</time>
      </trkpt>
      <trkpt lat="43.71784" lon="7.0633">
        <ele>387</ele>
        <time>2012-04-02T01:41:00Z</time>
      </trkpt>
      <trkpt lat="43.71767" lon="7.06346">
        <ele>386</ele>
        <time>2012-04-02T01:41:02Z</time>
      </trkpt>
      <trkpt lat="43.71724" lon="7.06421">
        <ele>386</ele>
        <time>2012-04-02T01:41:12Z</time>
      </trkpt>
      <trkpt lat="43.71719" lon="7.06442">
        <ele>386</ele>
        <time>2012-04-02T01:41:14Z</time>
      </trkpt>
      <trkpt lat="43.71719" lon="7.06462">
        <ele>386</ele>
        <time>2012-04-02T01:41:16Z</time>
      </trkpt>
      <trkpt lat="43.71749" lon="7.06582">
        <ele>393</ele>
        <time>2012-04-02T01:41:45Z</time>
      </trkpt>
      <trkpt lat="43.71744" lon="7.06658">
        <ele>391</ele>
        <time>2012-04-02T01:41:52Z</time>
      </trkpt>
      <trkpt lat="43.7175" lon="7.06863">
        <ele>388</ele>
        <time>2012-04-02T01:42:12Z</time>
      </trkpt>
      <trkpt lat="43.71754" lon="7.06898">
        <ele>388</ele>
        <time>2012-04-02T01:42:16Z</time>
      </trkpt>
      <trkpt lat="43.71765" lon="7.06926">
        <ele>388</ele>
        <time>2012-04-02T01:42:20Z</time>
      </trkpt>
      <trkpt lat="43.71802" lon="7.06959">
        <ele>389</ele>
        <time>2012-04-02T01:42:28Z</time>
      </trkpt>
      <trkpt lat="43.71806" lon="7.0698">
        <ele>390</ele>
        <time>2012-04-02T01:42:31Z</time>
      </trkpt>
      <trkpt lat="43.71793" lon="7.07064">
        <ele>384</ele>
        <time>2012-04-02T01:42:39Z</time>
      </trkpt>
      <trkpt lat="43.71795" lon="7.07107">
        <ele>382</ele>
        <time>2012-04-02T01:42:44Z</time>
      </trkpt>
      <trkpt lat="43.71803" lon="7.07128">
        <ele>381</ele>
        <time>2012-04-02T01:42:46Z</time>
      </trkpt>
      <trkpt lat="43.71835" lon="7.07161">
        <ele>379</ele>
        <time>2012-04-02T01:42:51Z</time>
      </trkpt>
      <trkpt lat="43.71845" lon="7.07186">
        <ele>379</ele>
        <time>2012-04-02T01:42:54Z</time>
      </trkpt>
      <trkpt lat="43.71841" lon="7.07384">
        <ele>374</ele>
        <time>2012-04-02T01:43:13Z</time>
      </trkpt>
      <trkpt lat="43.71844" lon="7.07444">
        <ele>372</ele>
        <time>2012-04-02T01:43:19Z</time>
      </trkpt>
      <trkpt lat="43.71852" lon="7.0747">
        <ele>371</ele>
        <time>2012-04-02T01:43:22Z</time>
      </trkpt>
      <trkpt lat="43.71866" lon="7.07495">
        <ele>371</ele>
        <time>2012-04-02T01:43:25Z</time>
      </trkpt>
      <trkpt lat="43.71901" lon="7.07522">
        <ele>370</ele>
        <time>2012-04-02T01:43:30Z</time>
      </trkpt>
      <trkpt lat="43.7192" lon="7.07528">
        <ele>372</ele>
        <time>2012-04-02T01:43:38Z</time>
      </trkpt>
      <trkpt lat="43.71948" lon="7.0752">
        <ele>375</ele>
        <time>2012-04-02T01:43:51Z</time>
      </trkpt>
      <trkpt lat="43.71987" lon="7.07494">
        <ele>381</ele>
        <time>2012-04-02T01:44:10Z</time>
      </trkpt>
      <trkpt lat="43.72024" lon="7.07492">
        <ele>386</ele>
        <time>2012-04-02T01:44:26Z</time>
      </trkpt>
      <trkpt lat="43.72053" lon="7.07497">
        <ele>381</ele>
        <time>2012-04-02T01:44:29Z</time>
      </trkpt>
      <trkpt lat="43.7206" lon="7.07505">
        <ele>379</ele>
        <time>2012-04-02T01:44:31Z</time>
      </trkpt>
      <trkpt lat="43.72064" lon="7.07535">
        <ele>376</ele>
        <time>2012-04-02T01:44:34Z</time>
      </trkpt>
      <trkpt lat="43.72049" lon="7.07644">
        <ele>363</ele>
        <time>2012-04-02T01:44:44Z</time>
      </trkpt>
      <trkpt lat="43.7205" lon="7.0766">
        <ele>364</ele>
        <time>2012-04-02T01:44:49Z</time>
      </trkpt>
      <trkpt lat="43.72058" lon="7.07679">
        <ele>366</ele>
        <time>2012-04-02T01:44:56Z</time>
      </trkpt>
      <trkpt lat="43.72072" lon="7.07688">
        <ele>368</ele>
        <time>2012-04-02T01:45:03Z</time>
      </trkpt>
      <trkpt lat="43.72094" lon="7.07686">
        <ele>371</ele>
        <time>2012-04-02T01:45:13Z</time>
      </trkpt>
      <trkpt lat="43.72128" lon="7.07658">
        <ele>376</ele>
        <time>2012-04-02T01:45:30Z</time>
      </trkpt>
      <trkpt lat="43.72223" lon="7.0751">
        <ele>394</ele>
        <time>2012-04-02T01:46:32Z</time>
      </trkpt>
      <trkpt lat="43.72238" lon="7.07505">
        <ele>392</ele>
        <time>2012-04-02T01:46:34Z</time>
      </trkpt>
      <trkpt lat="43.72247" lon="7.07509">
        <ele>391</ele>
        <time>2012-04-02T01:46:35Z</time>
      </trkpt>
      <trkpt lat="43.72275" lon="7.07558">
        <ele>386</ele>
        <time>2012-04-02T01:46:41Z</time>
      </trkpt>
      <trkpt lat="43.72284" lon="7.07595">
        <ele>382</ele>
        <time>2012-04-02T01:46:45Z</time>
      </trkpt>
      <trkpt lat="43.723" lon="7.07636">
        <ele>379</ele>
        <time>2012-04-02T01:46:49Z</time>
      </trkpt>
      <trkpt lat="43.72288" lon="7.07721">
        <ele>362</ele>
        <time>2012-04-02T01:46:58Z</time>
      </trkpt>
      <trkpt lat="43.72286" lon="7.07768">
        <ele>354</ele>
        <time>2012-04-02T01:47:02Z</time>
      </trkpt>
      <trkpt lat="43.72293" lon="7.07797">
        <ele>351</ele>
        <time>2012-04-02T01:47:05Z</time>
      </trkpt>
      <trkpt lat="43.72297" lon="7.07832">
        <ele>347</ele>
        <time>2012-04-02T01:47:09Z</time>
      </trkpt>
      <trkpt lat="43.72296" lon="7.0787">
        <ele>344</ele>
        <time>2012-04-02T01:47:12Z</time>
      </trkpt>
      <trkpt lat="43.72301" lon="7.07893">
        <ele>342</ele>
        <time>2012-04-02T01:47:15Z</time>
      </trkpt>
      <trkpt lat="43.72315" lon="7.07907">
        <ele>342</ele>
        <time>2012-04-02T01:47:19Z</time>
      </trkpt>
      <trkpt lat="43.7236" lon="7.07917">
        <ele>345</ele>
        <time>2012-04-02T01:47:30Z</time>
      </trkpt>
      <trkpt lat="43.7237" lon="7.07935">
        <ele>345</ele>
        <time>2012-04-02T01:47:35Z</time>
      </trkpt>
      <trkpt lat="43.7237" lon="7.07961">
        <ele>346</ele>
        <time>2012-04-02T01:47:39Z</time>
      </trkpt>
      <trkpt lat="43.7235" lon="7.08018">
        <ele>349</ele>
        <time>2012-04-02T01:47:51Z</time>
      </trkpt>
      <trkpt lat="43.7235" lon="7.08018">
        <ele>349</ele>
        <time>2012-04-02T01:47:52Z</time>
      </trkpt>
      <trkpt lat="43.72307" lon="7.08142">
        <ele>352</ele>
        <time>2012-04-02T01:48:12Z</time>
      </trkpt>
      <trkpt lat="43.72293" lon="7.08244">
        <ele>349</ele>
        <time>2012-04-02T01:48:22Z</time>
      </trkpt>
      <trkpt lat="43.72286" lon="7.0826">
        <ele>349</ele>
        <time>2012-04-02T01:48:24Z</time>
      </trkpt>
      <trkpt lat="43.72293" lon="7.08277">
        <ele>349</ele>
        <time>2012-04-02T01:48:26Z</time>
      </trkpt>
      <trkpt lat="43.72302" lon="7.0828">
        <ele>348</ele>
        <time>2012-04-02T01:48:27Z</time>
      </trkpt>
      <trkpt lat="43.72316" lon="7.08272">
        <ele>348</ele>
        <time>2012-04-02T01:48:29Z</time>
      </trkpt>
      <trkpt lat="43.72326" lon="7.08276">
        <ele>348</ele>
        <time>2012-04-02T01:48:31Z</time>
      </trkpt>
      <trkpt lat="43.72332" lon="7.08322">
        <ele>348</ele>
        <time>2012-04-02T01:48:35Z</time>
      </trkpt>
      <trkpt lat="43.72345" lon="7.08347">
        <ele>348</ele>
        <time>2012-04-02T01:48:38Z</time>
      </trkpt>
      <trkpt lat="43.72355" lon="7.08356">
        <ele>348</ele>
        <time>2012-04-02T01:48:40Z</time>
      </trkpt>
      <trkpt lat="43.7238" lon="7.08363">
        <ele>348</ele>
        <time>2012-04-02T01:48:43Z</time>
      </trkpt>
      <trkpt lat="43.72434" lon="7.08336">
        <ele>349</ele>
        <time>2012-04-02T01:48:54Z</time>
      </trkpt>
      <trkpt lat="43.72449" lon="7.08334">
        <ele>349</ele>
        <time>2012-04-02T01:48:57Z</time>
      </trkpt>
      <trkpt lat="43.72464" lon="7.08346">
        <ele>350</ele>
        <time>2012-04-02T01:49:00Z</time>
      </trkpt>
      <trkpt lat="43.72469" lon="7.08358">
        <ele>350</ele>
        <time>2012-04-02T01:49:02Z</time>
      </trkpt>
      <trkpt lat="43.72469" lon="7.08393">
        <ele>351</ele>
        <time>2012-04-02T01:49:07Z</time>
      </trkpt>
      <trkpt lat="43.72432" lon="7.08582">
        <ele>344</ele>
        <time>2012-04-02T01:49:26Z</time>
      </trkpt>
      <trkpt lat="43.72434" lon="7.08623">
        <ele>344</ele>
        <time>2012-04-02T01:49:31Z</time>
      </trkpt>
      <trkpt lat="43.7244" lon="7.08644">
        <ele>344</ele>
        <time>2012-04-02T01:49:33Z</time>
      </trkpt>
      <trkpt lat="43.72451" lon="7.08667">
        <ele>344</ele>
        <time>2012-04-02T01:49:37Z</time>
      </trkpt>
      <trkpt lat="43.72462" lon="7.08679">
        <ele>344</ele>
        <time>2012-04-02T01:49:39Z</time>
      </trkpt>
      <trkpt lat="43.72476" lon="7.08689">
        <ele>345</ele>
        <time>2012-04-02T01:49:41Z</time>
      </trkpt>
      <trkpt lat="43.7262" lon="7.08725">
        <ele>347</ele>
        <time>2012-04-02T01:50:05Z</time>
      </trkpt>
      <trkpt lat="43.72637" lon="7.08724">
        <ele>347</ele>
        <time>2012-04-02T01:50:09Z</time>
      </trkpt>
      <trkpt lat="43.72684" lon="7.08702">
        <ele>348</ele>
        <time>2012-04-02T01:50:19Z</time>
      </trkpt>
      <trkpt lat="43.7275" lon="7.08683">
        <ele>351</ele>
        <time>2012-04-02T01:50:33Z</time>
      </trkpt>
      <trkpt lat="43.72764" lon="7.08685">
        <ele>349</ele>
        <time>2012-04-02T01:50:35Z</time>
      </trkpt>
      <trkpt lat="43.72779" lon="7.08704">
        <ele>348</ele>
        <time>2012-04-02T01:50:37Z</time>
      </trkpt>
      <trkpt lat="43.72783" lon="7.0872">
        <ele>347</ele>
        <time>2012-04-02T01:50:39Z</time>
      </trkpt>
      <trkpt lat="43.72782" lon="7.08753">
        <ele>345</ele>
        <time>2012-04-02T01:50:42Z</time>
      </trkpt>
      <trkpt lat="43.72763" lon="7.08822">
        <ele>341</ele>
        <time>2012-04-02T01:50:49Z</time>
      </trkpt>
      <trkpt lat="43.72692" lon="7.08902">
        <ele>336</ele>
        <time>2012-04-02T01:51:02Z</time>
      </trkpt>
      <trkpt lat="43.72677" lon="7.08927">
        <ele>335</ele>
        <time>2012-04-02T01:51:05Z</time>
      </trkpt>
      <trkpt lat="43.72673" lon="7.08955">
        <ele>334</ele>
        <time>2012-04-02T01:51:08Z</time>
      </trkpt>
      <trkpt lat="43.72677" lon="7.09022">
        <ele>333</ele>
        <time>2012-04-02T01:51:14Z</time>
      </trkpt>
      <trkpt lat="43.72668" lon="7.09039">
        <ele>333</ele>
        <time>2012-04-02T01:51:16Z</time>
      </trkpt>
      <trkpt lat="43.72598" lon="7.09114">
        <ele>328</ele>
        <time>2012-04-02T01:51:28Z</time>
      </trkpt>
      <trkpt lat="43.72568" lon="7.09158">
        <ele>326</ele>
        <time>2012-04-02T01:51:34Z</time>
      </trkpt>
      <trkpt lat="43.72546" lon="7.09214">
        <ele>326</ele>
        <time>2012-04-02T01:51:41Z</time>
      </trkpt>
      <trkpt lat="43.72542" lon="7.09257">
        <ele>326</ele>
        <time>2012-04-02T01:51:46Z</time>
      </trkpt>
      <trkpt lat="43.72544" lon="7.0929">
        <ele>327</ele>
        <time>2012-04-02T01:51:50Z</time>
      </trkpt>
      <trkpt lat="43.72554" lon="7.09341">
        <ele>328</ele>
        <time>2012-04-02T01:52:00Z</time>
      </trkpt>
      <trkpt lat="43.7256" lon="7.09361">
        <ele>329</ele>
        <time>2012-04-02T01:52:04Z</time>
      </trkpt>
      <trkpt lat="43.72571" lon="7.09379">
        <ele>330</ele>
        <time>2012-04-02T01:52:08Z</time>
      </trkpt>
      <trkpt lat="43.72592" lon="7.09398">
        <ele>332</ele>
        <time>2012-04-02T01:52:14Z</time>
      </trkpt>
      <trkpt lat="43.7268" lon="7.09448">
        <ele>344</ele>
        <time>2012-04-02T01:52:56Z</time>
      </trkpt>
      <trkpt lat="43.72689" lon="7.09459">
        <ele>343</ele>
        <time>2012-04-02T01:52:58Z</time>
      </trkpt>
      <trkpt lat="43.72694" lon="7.09473">
        <ele>343</ele>
        <time>2012-04-02T01:52:59Z</time>
      </trkpt>
      <trkpt lat="43.72694" lon="7.0949">
        <ele>343</ele>
        <time>2012-04-02T01:53:01Z</time>
      </trkpt>
      <trkpt lat="43.7268" lon="7.09538">
        <ele>342</ele>
        <time>2012-04-02T01:53:06Z</time>
      </trkpt>
      <trkpt lat="43.7268" lon="7.09538">
        <ele>342</ele>
        <time>2012-04-02T01:53:07Z</time>
      </trkpt>
      <trkpt lat="43.72669" lon="7.09615">
        <ele>340</ele>
        <time>2012-04-02T01:53:14Z</time>
      </trkpt>
      <trkpt lat="43.72661" lon="7.09644">
        <ele>340</ele>
        <time>2012-04-02T01:53:17Z</time>
      </trkpt>
      <trkpt lat="43.72653" lon="7.09655">
        <ele>339</ele>
        <time>2012-04-02T01:53:19Z</time>
      </trkpt>
      <trkpt lat="43.72613" lon="7.09676">
        <ele>339</ele>
        <time>2012-04-02T01:53:25Z</time>
      </trkpt>
      <trkpt lat="43.72596" lon="7.09697">
        <ele>338</ele>
        <time>2012-04-02T01:53:28Z</time>
      </trkpt>
      <trkpt lat="43.7259" lon="7.0972">
        <ele>338</ele>
        <time>2012-04-02T01:53:30Z</time>
      </trkpt>
      <trkpt lat="43.72594" lon="7.09788">
        <ele>338</ele>
        <time>2012-04-02T01:53:37Z</time>
      </trkpt>
      <trkpt lat="43.72585" lon="7.09824">
        <ele>338</ele>
        <time>2012-04-02T01:53:40Z</time>
      </trkpt>
      <trkpt lat="43.72509" lon="7.09948">
        <ele>326</ele>
        <time>2012-04-02T01:53:56Z</time>
      </trkpt>
      <trkpt lat="43.72498" lon="7.09979">
        <ele>327</ele>
        <time>2012-04-02T01:54:03Z</time>
      </trkpt>
      <trkpt lat="43.72498" lon="7.10014">
        <ele>329</ele>
        <time>2012-04-02T01:54:11Z</time>
      </trkpt>
      <trkpt lat="43.72516" lon="7.10087">
        <ele>333</ele>
        <time>2012-04-02T01:54:27Z</time>
      </trkpt>
      <trkpt lat="43.72507" lon="7.1017">
        <ele>333</ele>
        <time>2012-04-02T01:54:35Z</time>
      </trkpt>
      <trkpt lat="43.72508" lon="7.10193">
        <ele>333</ele>
        <time>2012-04-02T01:54:37Z</time>
      </trkpt>
      <trkpt lat="43.72519" lon="7.10218">
        <ele>333</ele>
        <time>2012-04-02T01:54:40Z</time>
      </trkpt>
      <trkpt lat="43.72544" lon="7.1025">
        <ele>331</ele>
        <time>2012-04-02T01:54:45Z</time>
      </trkpt>
      <trkpt lat="43.72549" lon="7.10266">
        <ele>330</ele>
        <time>2012-04-02T01:54:46Z</time>
      </trkpt>
      <trkpt lat="43.72549" lon="7.10284">
        <ele>329</ele>
        <time>2012-04-02T01:54:48Z</time>
      </trkpt>
      <trkpt lat="43.72538" lon="7.10312">
        <ele>328</ele>
        <time>2012-04-02T01:54:51Z</time>
      </trkpt>
      <trkpt lat="43.7253" lon="7.10321">
        <ele>328</ele>
        <time>2012-04-02T01:54:52Z</time>
      </trkpt>
      <trkpt lat="43.72476" lon="7.10354">
        <ele>325</ele>
        <time>2012-04-02T01:55:00Z</time>
      </trkpt>
      <trkpt lat="43.72446" lon="7.104">
        <ele>324</ele>
        <time>2012-04-02T01:55:06Z</time>
      </trkpt>
      <trkpt lat="43.72437" lon="7.10426">
        <ele>324</ele>
        <time>2012-04-02T01:55:09Z</time>
      </trkpt>
      <trkpt lat="43.72436" lon="7.10452">
        <ele>324</ele>
        <time>2012-04-02T01:55:12Z</time>
      </trkpt>
      <trkpt lat="43.72472" lon="7.10532">
        <ele>324</ele>
        <time>2012-04-02T01:55:21Z</time>
      </trkpt>
      <trkpt lat="43.72509" lon="7.10579">
        <ele>325</ele>
        <time>2012-04-02T01:55:30Z</time>
      </trkpt>
      <trkpt lat="43.72535" lon="7.10528">
        <ele>325</ele>
        <time>2012-04-02T01:55:38Z</time>
      </trkpt>
      <trkpt lat="43.72556" lon="7.10497">
        <ele>326</ele>
        <time>2012-04-02T01:55:44Z</time>
      </trkpt>
      <trkpt lat="43.72613" lon="7.10437">
        <ele>328</ele>
        <time>2012-04-02T01:55:57Z</time>
      </trkpt>
      <trkpt lat="43.72651" lon="7.10416">
        <ele>330</ele>
        <time>2012-04-02T01:56:07Z</time>
      </trkpt>
      <trkpt lat="43.72697" lon="7.10382">
        <ele>333</ele>
        <time>2012-04-02T01:56:21Z</time>
      </trkpt>
      <trkpt lat="43.72755" lon="7.1036">
        <ele>338</ele>
        <time>2012-04-02T01:56:42Z</time>
      </trkpt>
      <trkpt lat="43.7283" lon="7.10317">
        <ele>346</ele>
        <time>2012-04-02T01:57:11Z</time>
      </trkpt>
      <trkpt lat="43.72856" lon="7.10311">
        <ele>349</ele>
        <time>2012-04-02T01:57:23Z</time>
      </trkpt>
      <trkpt lat="43.72974" lon="7.10312">
        <ele>364</ele>
        <time>2012-04-02T01:58:14Z</time>
      </trkpt>
      <trkpt lat="43.73054" lon="7.1027">
        <ele>380</ele>
        <time>2012-04-02T01:59:04Z</time>
      </trkpt>
      <trkpt lat="43.7316" lon="7.10263">
        <ele>400</ele>
        <time>2012-04-02T02:00:06Z</time>
      </trkpt>
      <trkpt lat="43.73173" lon="7.10267">
        <ele>400</ele>
        <time>2012-04-02T02:00:09Z</time>
      </trkpt>
      <trkpt lat="43.73193" lon="7.10285">
        <ele>402</ele>
        <time>2012-04-02T02:00:16Z</time>
      </trkpt>
      <trkpt lat="43.73245" lon="7.10345">
        <ele>406</ele>
        <time>2012-04-02T02:00:34Z</time>
      </trkpt>
      <trkpt lat="43.73251" lon="7.10357">
        <ele>404</ele>
        <time>2012-04-02T02:00:36Z</time>
      </trkpt>
      <trkpt lat="43.7325" lon="7.10379">
        <ele>401</ele>
        <time>2012-04-02T02:00:38Z</time>
      </trkpt>
      <trkpt lat="43.73234" lon="7.10393">
        <ele>398</ele>
        <time>2012-04-02T02:00:40Z</time>
      </trkpt>
      <trkpt lat="43.73162" lon="7.10425">
        <ele>387</ele>
        <time>2012-04-02T02:00:50Z</time>
      </trkpt>
      <trkpt lat="43.73122" lon="7.10458">
        <ele>386</ele>
        <time>2012-04-02T02:00:57Z</time>
      </trkpt>
      <trkpt lat="43.73091" lon="7.10499">
        <ele>385</ele>
        <time>2012-04-02T02:01:02Z</time>
      </trkpt>
      <trkpt lat="43.7304" lon="7.10582">
        <ele>385</ele>
        <time>2012-04-02T02:01:13Z</time>
      </trkpt>
      <trkpt lat="43.73018" lon="7.10623">
        <ele>386</ele>
        <time>2012-04-02T02:01:22Z</time>
      </trkpt>
      <trkpt lat="43.73009" lon="7.1065">
        <ele>387</ele>
        <time>2012-04-02T02:01:27Z</time>
      </trkpt>
      <trkpt lat="43.7298" lon="7.10846">
        <ele>395</ele>
        <time>2012-04-02T02:02:04Z</time>
      </trkpt>
      <trkpt lat="43.72978" lon="7.10911">
        <ele>395</ele>
        <time>2012-04-02T02:02:11Z</time>
      </trkpt>
      <trkpt lat="43.72999" lon="7.11074">
        <ele>396</ele>
        <time>2012-04-02T02:02:29Z</time>
      </trkpt>
      <trkpt lat="43.7301" lon="7.11101">
        <ele>397</ele>
        <time>2012-04-02T02:02:36Z</time>
      </trkpt>
      <trkpt lat="43.73014" lon="7.11105">
        <ele>398</ele>
        <time>2012-04-02T02:02:38Z</time>
      </trkpt>
      <trkpt lat="43.73024" lon="7.11103">
        <ele>399</ele>
        <time>2012-04-02T02:02:41Z</time>
      </trkpt>
      <trkpt lat="43.73027" lon="7.11084">
        <ele>400</ele>
        <time>2012-04-02T02:02:46Z</time>
      </trkpt>
      <trkpt lat="43.73018" lon="7.11016">
        <ele>404</ele>
        <time>2012-04-02T02:03:03Z</time>
      </trkpt>
      <trkpt lat="43.73023" lon="7.10943">
        <ele>409</ele>
        <time>2012-04-02T02:03:20Z</time>
      </trkpt>
      <trkpt lat="43.73009" lon="7.10856">
        <ele>414</ele>
        <time>2012-04-02T02:03:42Z</time>
      </trkpt>
      <trkpt lat="43.73015" lon="7.1083">
        <ele>416</ele>
        <time>2012-04-02T02:03:49Z</time>
      </trkpt>
      <trkpt lat="43.73181" lon="7.10658">
        <ele>434</ele>
        <time>2012-04-02T02:04:59Z</time>
      </trkpt>
      <trkpt lat="43.73246" lon="7.10604">
        <ele>440</ele>
        <time>2012-04-02T02:05:24Z</time>
      </trkpt>
      <trkpt lat="43.7328" lon="7.10587">
        <ele>443</ele>
        <time>2012-04-02T02:05:36Z</time>
      </trkpt>
      <trkpt lat="43.7341" lon="7.10543">
        <ele>466</ele>
        <time>2012-04-02T02:06:49Z</time>
      </trkpt>
      <trkpt lat="43.73491" lon="7.10495">
        <ele>467</ele>
        <time>2012-04-02T02:07:05Z</time>
      </trkpt>
      <trkpt lat="43.73509" lon="7.10494">
        <ele>468</ele>
        <time>2012-04-02T02:07:08Z</time>
      </trkpt>
      <trkpt lat="43.73559" lon="7.10508">
        <ele>475</ele>
        <time>2012-04-02T02:07:33Z</time>
      </trkpt>
      <trkpt lat="43.73611" lon="7.10513">
        <ele>483</ele>
        <time>2012-04-02T02:07:58Z</time>
      </trkpt>
      <trkpt lat="43.73678" lon="7.10537">
        <ele>488</ele>
        <time>2012-04-02T02:08:21Z</time>
      </trkpt>
      <trkpt lat="43.73692" lon="7.10538">
        <ele>490</ele>
        <time>2012-04-02T02:08:26Z</time>
      </trkpt>
      <trkpt lat="43.73725" lon="7.10526">
        <ele>493</ele>
        <time>2012-04-02T02:08:37Z</time>
      </trkpt>
      <trkpt lat="43.73758" lon="7.10525">
        <ele>496</ele>
        <time>2012-04-02T02:08:50Z</time>
      </trkpt>
      <trkpt lat="43.738" lon="7.10537">
        <ele>501</ele>
        <time>2012-04-02T02:09:07Z</time>
      </trkpt>
      <trkpt lat="43.73842" lon="7.10557">
        <ele>506</ele>
        <time>2012-04-02T02:09:25Z</time>
      </trkpt>
      <trkpt lat="43.73895" lon="7.10551">
        <ele>508</ele>
        <time>2012-04-02T02:09:38Z</time>
      </trkpt>
      <trkpt lat="43.73945" lon="7.10556">
        <ele>511</ele>
        <time>2012-04-02T02:09:50Z</time>
      </trkpt>
      <trkpt lat="43.74027" lon="7.10542">
        <ele>521</ele>
        <time>2012-04-02T02:10:26Z</time>
      </trkpt>
      <trkpt lat="43.74096" lon="7.10542">
        <ele>530</ele>
        <time>2012-04-02T02:10:56Z</time>
      </trkpt>
      <trkpt lat="43.74139" lon="7.10527">
        <ele>538</ele>
        <time>2012-04-02T02:11:22Z</time>
      </trkpt>
      <trkpt lat="43.74186" lon="7.10488">
        <ele>548</ele>
        <time>2012-04-02T02:11:53Z</time>
      </trkpt>
      <trkpt lat="43.74256" lon="7.10455">
        <ele>558</ele>
        <time>2012-04-02T02:12:27Z</time>
      </trkpt>
      <trkpt lat="43.74328" lon="7.10394">
        <ele>570</ele>
        <time>2012-04-02T02:13:07Z</time>
      </trkpt>
      <trkpt lat="43.74328" lon="7.10394">
        <ele>570</ele>
        <time>2012-04-02T02:13:08Z</time>
      </trkpt>
      <trkpt lat="43.74377" lon="7.10372">
        <ele>575</ele>
        <time>2012-04-02T02:13:27Z</time>
      </trkpt>
      <trkpt lat="43.74399" lon="7.10347">
        <ele>578</ele>
        <time>2012-04-02T02:13:38Z</time>
      </trkpt>
      <trkpt lat="43.74428" lon="7.10296">
        <ele>583</ele>
        <time>2012-04-02T02:13:56Z</time>
      </trkpt>
      <trkpt lat="43.74633" lon="7.10105">
        <ele>585</ele>
        <time>2012-04-02T02:14:34Z</time>
      </trkpt>
      <trkpt lat="43.74643" lon="7.10082">
        <ele>586</ele>
        <time>2012-04-02T02:14:41Z</time>
      </trkpt>
      <trkpt lat="43.74682" lon="7.0994">
        <ele>597</ele>
        <time>2012-04-02T02:15:20Z</time>
      </trkpt>
      <trkpt lat="43.74706" lon="7.09874">
        <ele>601</ele>
        <time>2012-04-02T02:15:37Z</time>
      </trkpt>
      <trkpt lat="43.74762" lon="7.09793">
        <ele>608</ele>
        <time>2012-04-02T02:16:04Z</time>
      </trkpt>
      <trkpt lat="43.74794" lon="7.09736">
        <ele>614</ele>
        <time>2012-04-02T02:16:28Z</time>
      </trkpt>
      <trkpt lat="43.74871" lon="7.09636">
        <ele>629</ele>
        <time>2012-04-02T02:17:16Z</time>
      </trkpt>
      <trkpt lat="43.75011" lon="7.09555">
        <ele>644</ele>
        <time>2012-04-02T02:18:12Z</time>
      </trkpt>
      <trkpt lat="43.75022" lon="7.0956">
        <ele>642</ele>
        <time>2012-04-02T02:18:13Z</time>
      </trkpt>
      <trkpt lat="43.75023" lon="7.09579">
        <ele>641</ele>
        <time>2012-04-02T02:18:15Z</time>
      </trkpt>
      <trkpt lat="43.75014" lon="7.09585">
        <ele>640</ele>
        <time>2012-04-02T02:18:17Z</time>
      </trkpt>
      <trkpt lat="43.74987" lon="7.09589">
        <ele>637</ele>
        <time>2012-04-02T02:18:20Z</time>
      </trkpt>
      <trkpt lat="43.74924" lon="7.0964">
        <ele>630</ele>
        <time>2012-04-02T02:18:30Z</time>
      </trkpt>
      <trkpt lat="43.74921" lon="7.09649">
        <ele>630</ele>
        <time>2012-04-02T02:18:32Z</time>
      </trkpt>
      <trkpt lat="43.74923" lon="7.09657">
        <ele>631</ele>
        <time>2012-04-02T02:18:35Z</time>
      </trkpt>
      <trkpt lat="43.74933" lon="7.09658">
        <ele>632</ele>
        <time>2012-04-02T02:18:38Z</time>
      </trkpt>
      <trkpt lat="43.74963" lon="7.09629">
        <ele>635</ele>
        <time>2012-04-02T02:18:51Z</time>
      </trkpt>
      <trkpt lat="43.74988" lon="7.09617">
        <ele>637</ele>
        <time>2012-04-02T02:19:00Z</time>
      </trkpt>
      <trkpt lat="43.7506" lon="7.09606">
        <ele>644</ele>
        <time>2012-04-02T02:19:25Z</time>
      </trkpt>
      <trkpt lat="43.75113" lon="7.09585">
        <ele>648</ele>
        <time>2012-04-02T02:19:44Z</time>
      </trkpt>
      <trkpt lat="43.7516" lon="7.09584">
        <ele>653</ele>
        <time>2012-04-02T02:20:00Z</time>
      </trkpt>
      <trkpt lat="43.75167" lon="7.09572">
        <ele>653</ele>
        <time>2012-04-02T02:20:03Z</time>
      </trkpt>
      <trkpt lat="43.75172" lon="7.09543">
        <ele>655</ele>
        <time>2012-04-02T02:20:10Z</time>
      </trkpt>
      <trkpt lat="43.75179" lon="7.09529">
        <ele>656</ele>
        <time>2012-04-02T02:20:14Z</time>
      </trkpt>
      <trkpt lat="43.7522" lon="7.09484">
        <ele>660</ele>
        <time>2012-04-02T02:20:30Z</time>
      </trkpt>
      <trkpt lat="43.75312" lon="7.09461">
        <ele>674</ele>
        <time>2012-04-02T02:21:16Z</time>
      </trkpt>
      <trkpt lat="43.75392" lon="7.09415">
        <ele>689</ele>
        <time>2012-04-02T02:22:06Z</time>
      </trkpt>
      <trkpt lat="43.75429" lon="7.09369">
        <ele>699</ele>
        <time>2012-04-02T02:22:34Z</time>
      </trkpt>
      <trkpt lat="43.75451" lon="7.09315">
        <ele>698</ele>
        <time>2012-04-02T02:22:40Z</time>
      </trkpt>
      <trkpt lat="43.75449" lon="7.093">
        <ele>697</ele>
        <time>2012-04-02T02:22:42Z</time>
      </trkpt>
      <trkpt lat="43.75436" lon="7.09298">
        <ele>697</ele>
        <time>2012-04-02T02:22:43Z</time>
      </trkpt>
      <trkpt lat="43.75419" lon="7.09321">
        <ele>697</ele>
        <time>2012-04-02T02:22:46Z</time>
      </trkpt>
      <trkpt lat="43.75399" lon="7.09337">
        <ele>696</ele>
        <time>2012-04-02T02:22:50Z</time>
      </trkpt>
      <trkpt lat="43.75368" lon="7.0934">
        <ele>696</ele>
        <time>2012-04-02T02:22:54Z</time>
      </trkpt>
      <trkpt lat="43.75321" lon="7.09318">
        <ele>695</ele>
        <time>2012-04-02T02:23:00Z</time>
      </trkpt>
      <trkpt lat="43.75276" lon="7.09278">
        <ele>702</ele>
        <time>2012-04-02T02:23:26Z</time>
      </trkpt>
      <trkpt lat="43.75264" lon="7.09247">
        <ele>706</ele>
        <time>2012-04-02T02:23:39Z</time>
      </trkpt>
      <trkpt lat="43.75262" lon="7.09229">
        <ele>708</ele>
        <time>2012-04-02T02:23:45Z</time>
      </trkpt>
      <trkpt lat="43.75258" lon="7.09038">
        <ele>729</ele>
        <time>2012-04-02T02:24:53Z</time>
      </trkpt>
      <trkpt lat="43.75243" lon="7.08988">
        <ele>729</ele>
        <time>2012-04-02T02:25:00Z</time>
      </trkpt>
      <trkpt lat="43.75243" lon="7.08972">
        <ele>730</ele>
        <time>2012-04-02T02:25:02Z</time>
      </trkpt>
      <trkpt lat="43.75253" lon="7.08963">
        <ele>730</ele>
        <time>2012-04-02T02:25:05Z</time>
      </trkpt>
      <trkpt lat="43.75264" lon="7.08967">
        <ele>730</ele>
        <time>2012-04-02T02:25:07Z</time>
      </trkpt>
      <trkpt lat="43.75287" lon="7.0905">
        <ele>732</ele>
        <time>2012-04-02T02:25:19Z</time>
      </trkpt>
      <trkpt lat="43.75305" lon="7.09084">
        <ele>732</ele>
        <time>2012-04-02T02:25:25Z</time>
      </trkpt>
      <trkpt lat="43.75346" lon="7.09111">
        <ele>734</ele>
        <time>2012-04-02T02:25:33Z</time>
      </trkpt>
      <trkpt lat="43.7536" lon="7.09111">
        <ele>735</ele>
        <time>2012-04-02T02:25:38Z</time>
      </trkpt>
      <trkpt lat="43.75373" lon="7.09104">
        <ele>736</ele>
        <time>2012-04-02T02:25:42Z</time>
      </trkpt>
      <trkpt lat="43.754" lon="7.09066">
        <ele>739</ele>
        <time>2012-04-02T02:25:55Z</time>
      </trkpt>
      <trkpt lat="43.75444" lon="7.08971">
        <ele>746</ele>
        <time>2012-04-02T02:26:22Z</time>
      </trkpt>
      <trkpt lat="43.75456" lon="7.08931">
        <ele>749</ele>
        <time>2012-04-02T02:26:36Z</time>
      </trkpt>
      <trkpt lat="43.75477" lon="7.08825">
        <ele>760</ele>
        <time>2012-04-02T02:27:10Z</time>
      </trkpt>
      <trkpt lat="43.75487" lon="7.08799">
        <ele>760</ele>
        <time>2012-04-02T02:27:14Z</time>
      </trkpt>
      <trkpt lat="43.75501" lon="7.0879">
        <ele>760</ele>
        <time>2012-04-02T02:27:17Z</time>
      </trkpt>
      <trkpt lat="43.75534" lon="7.08798">
        <ele>761</ele>
        <time>2012-04-02T02:27:23Z</time>
      </trkpt>
      <trkpt lat="43.75554" lon="7.08791">
        <ele>762</ele>
        <time>2012-04-02T02:27:27Z</time>
      </trkpt>
      <trkpt lat="43.75591" lon="7.08757">
        <ele>763</ele>
        <time>2012-04-02T02:27:35Z</time>
      </trkpt>
      <trkpt lat="43.75607" lon="7.08736">
        <ele>766</ele>
        <time>2012-04-02T02:27:48Z</time>
      </trkpt>
      <trkpt lat="43.75625" lon="7.08694">
        <ele>772</ele>
        <time>2012-04-02T02:28:07Z</time>
      </trkpt>
      <trkpt lat="43.7563" lon="7.08661">
        <ele>777</ele>
        <time>2012-04-02T02:28:21Z</time>
      </trkpt>
      <trkpt lat="43.7563" lon="7.08615">
        <ele>783</ele>
        <time>2012-04-02T02:28:39Z</time>
      </trkpt>
      <trkpt lat="43.75638" lon="7.086">
        <ele>784</ele>
        <time>2012-04-02T02:28:45Z</time>
      </trkpt>
      <trkpt lat="43.75683" lon="7.0859">
        <ele>790</ele>
        <time>2012-04-02T02:29:04Z</time>
      </trkpt>
      <trkpt lat="43.75717" lon="7.08562">
        <ele>795</ele>
        <time>2012-04-02T02:29:21Z</time>
      </trkpt>
      <trkpt lat="43.75735" lon="7.08558">
        <ele>795</ele>
        <time>2012-04-02T02:29:24Z</time>
      </trkpt>
      <trkpt lat="43.75742" lon="7.08562">
        <ele>795</ele>
        <time>2012-04-02T02:29:25Z</time>
      </trkpt>
      <trkpt lat="43.75749" lon="7.08575">
        <ele>795</ele>
        <time>2012-04-02T02:29:26Z</time>
      </trkpt>
      <trkpt lat="43.75758" lon="7.0862">
        <ele>795</ele>
        <time>2012-04-02T02:29:31Z</time>
      </trkpt>
      <trkpt lat="43.75778" lon="7.08639">
        <ele>795</ele>
        <time>2012-04-02T02:29:35Z</time>
      </trkpt>
      <trkpt lat="43.75835" lon="7.08663">
        <ele>796</ele>
        <time>2012-04-02T02:29:44Z</time>
      </trkpt>
      <trkpt lat="43.75865" lon="7.08658">
        <ele>797</ele>
        <time>2012-04-02T02:29:53Z</time>
      </trkpt>
      <trkpt lat="43.75892" lon="7.08669">
        <ele>799</ele>
        <time>2012-04-02T02:30:01Z</time>
      </trkpt>
      <trkpt lat="43.75907" lon="7.08669">
        <ele>800</ele>
        <time>2012-04-02T02:30:05Z</time>
      </trkpt>
      <trkpt lat="43.75968" lon="7.08602">
        <ele>806</ele>
        <time>2012-04-02T02:30:28Z</time>
      </trkpt>
      <trkpt lat="43.75998" lon="7.08534">
        <ele>814</ele>
        <time>2012-04-02T02:30:57Z</time>
      </trkpt>
      <trkpt lat="43.76043" lon="7.08465">
        <ele>825</ele>
        <time>2012-04-02T02:31:30Z</time>
      </trkpt>
      <trkpt lat="43.76057" lon="7.08404">
        <ele>825</ele>
        <time>2012-04-02T02:31:38Z</time>
      </trkpt>
      <trkpt lat="43.76066" lon="7.08393">
        <ele>825</ele>
        <time>2012-04-02T02:31:40Z</time>
      </trkpt>
      <trkpt lat="43.76076" lon="7.08389">
        <ele>825</ele>
        <time>2012-04-02T02:31:42Z</time>
      </trkpt>
      <trkpt lat="43.7609" lon="7.08395">
        <ele>825</ele>
        <time>2012-04-02T02:31:44Z</time>
      </trkpt>
      <trkpt lat="43.76149" lon="7.08481">
        <ele>827</ele>
        <time>2012-04-02T02:31:58Z</time>
      </trkpt>
      <trkpt lat="43.76172" lon="7.08499">
        <ele>828</ele>
        <time>2012-04-02T02:32:04Z</time>
      </trkpt>
      <trkpt lat="43.76245" lon="7.08537">
        <ele>832</ele>
        <time>2012-04-02T02:32:24Z</time>
      </trkpt>
      <trkpt lat="43.76262" lon="7.08542">
        <ele>833</ele>
        <time>2012-04-02T02:32:29Z</time>
      </trkpt>
      <trkpt lat="43.76273" lon="7.08539">
        <ele>833</ele>
        <time>2012-04-02T02:32:32Z</time>
      </trkpt>
      <trkpt lat="43.76323" lon="7.0852">
        <ele>837</ele>
        <time>2012-04-02T02:32:47Z</time>
      </trkpt>
      <trkpt lat="43.76332" lon="7.08507">
        <ele>838</ele>
        <time>2012-04-02T02:32:51Z</time>
      </trkpt>
      <trkpt lat="43.76325" lon="7.08491">
        <ele>838</ele>
        <time>2012-04-02T02:32:55Z</time>
      </trkpt>
      <trkpt lat="43.76204" lon="7.08388">
        <ele>848</ele>
        <time>2012-04-02T02:33:35Z</time>
      </trkpt>
      <trkpt lat="43.76179" lon="7.08332">
        <ele>856</ele>
        <time>2012-04-02T02:34:03Z</time>
      </trkpt>
      <trkpt lat="43.7615" lon="7.08251">
        <ele>869</ele>
        <time>2012-04-02T02:34:41Z</time>
      </trkpt>
      <trkpt lat="43.76112" lon="7.08192">
        <ele>877</ele>
        <time>2012-04-02T02:35:08Z</time>
      </trkpt>
      <trkpt lat="43.76069" lon="7.08143">
        <ele>885</ele>
        <time>2012-04-02T02:35:34Z</time>
      </trkpt>
      <trkpt lat="43.76048" lon="7.08141">
        <ele>883</ele>
        <time>2012-04-02T02:35:37Z</time>
      </trkpt>
      <trkpt lat="43.76026" lon="7.08163">
        <ele>881</ele>
        <time>2012-04-02T02:35:41Z</time>
      </trkpt>
      <trkpt lat="43.75967" lon="7.08196">
        <ele>877</ele>
        <time>2012-04-02T02:35:49Z</time>
      </trkpt>
      <trkpt lat="43.75935" lon="7.08199">
        <ele>878</ele>
        <time>2012-04-02T02:35:57Z</time>
      </trkpt>
      <trkpt lat="43.75909" lon="7.08194">
        <ele>879</ele>
        <time>2012-04-02T02:36:04Z</time>
      </trkpt>
      <trkpt lat="43.75884" lon="7.08183">
        <ele>881</ele>
        <time>2012-04-02T02:36:10Z</time>
      </trkpt>
      <trkpt lat="43.7583" lon="7.08145">
        <ele>884</ele>
        <time>2012-04-02T02:36:25Z</time>
      </trkpt>
      <trkpt lat="43.75711" lon="7.08044">
        <ele>886</ele>
        <time>2012-04-02T02:36:49Z</time>
      </trkpt>
      <trkpt lat="43.75688" lon="7.08019">
        <ele>887</ele>
        <time>2012-04-02T02:36:55Z</time>
      </trkpt>
      <trkpt lat="43.75681" lon="7.08001">
        <ele>887</ele>
        <time>2012-04-02T02:36:59Z</time>
      </trkpt>
      <trkpt lat="43.75678" lon="7.07979">
        <ele>888</ele>
        <time>2012-04-02T02:37:02Z</time>
      </trkpt>
      <trkpt lat="43.75666" lon="7.07788">
        <ele>893</ele>
        <time>2012-04-02T02:37:32Z</time>
      </trkpt>
      <trkpt lat="43.75674" lon="7.07727">
        <ele>901</ele>
        <time>2012-04-02T02:37:59Z</time>
      </trkpt>
      <trkpt lat="43.75711" lon="7.07618">
        <ele>918</ele>
        <time>2012-04-02T02:38:50Z</time>
      </trkpt>
      <trkpt lat="43.75715" lon="7.07595">
        <ele>919</ele>
        <time>2012-04-02T02:38:56Z</time>
      </trkpt>
      <trkpt lat="43.7572" lon="7.07533">
        <ele>923</ele>
        <time>2012-04-02T02:39:12Z</time>
      </trkpt>
      <trkpt lat="43.7571" lon="7.0747">
        <ele>928</ele>
        <time>2012-04-02T02:39:28Z</time>
      </trkpt>
      <trkpt lat="43.75714" lon="7.07451">
        <ele>928</ele>
        <time>2012-04-02T02:39:31Z</time>
      </trkpt>
      <trkpt lat="43.7572" lon="7.07447">
        <ele>928</ele>
        <time>2012-04-02T02:39:33Z</time>
      </trkpt>
      <trkpt lat="43.75732" lon="7.07451">
        <ele>928</ele>
        <time>2012-04-02T02:39:35Z</time>
      </trkpt>
      <trkpt lat="43.7575" lon="7.07484">
        <ele>929</ele>
        <time>2012-04-02T02:39:41Z</time>
      </trkpt>
      <trkpt lat="43.75763" lon="7.07526">
        <ele>930</ele>
        <time>2012-04-02T02:39:48Z</time>
      </trkpt>
      <trkpt lat="43.75786" lon="7.0764">
        <ele>933</ele>
        <time>2012-04-02T02:40:05Z</time>
      </trkpt>
      <trkpt lat="43.75796" lon="7.07665">
        <ele>934</ele>
        <time>2012-04-02T02:40:12Z</time>
      </trkpt>
      <trkpt lat="43.75824" lon="7.0769">
        <ele>937</ele>
        <time>2012-04-02T02:40:23Z</time>
      </trkpt>
      <trkpt lat="43.75853" lon="7.07697">
        <ele>940</ele>
        <time>2012-04-02T02:40:34Z</time>
      </trkpt>
      <trkpt lat="43.75871" lon="7.07694">
        <ele>942</ele>
        <time>2012-04-02T02:40:40Z</time>
      </trkpt>
      <trkpt lat="43.75896" lon="7.07671">
        <ele>945</ele>
        <time>2012-04-02T02:40:53Z</time>
      </trkpt>
      <trkpt lat="43.75945" lon="7.07595">
        <ele>955</ele>
        <time>2012-04-02T02:41:25Z</time>
      </trkpt>
      <trkpt lat="43.75975" lon="7.07559">
        <ele>956</ele>
        <time>2012-04-02T02:41:34Z</time>
      </trkpt>
      <trkpt lat="43.76042" lon="7.07524">
        <ele>959</ele>
        <time>2012-04-02T02:41:49Z</time>
      </trkpt>
      <trkpt lat="43.76111" lon="7.07474">
        <ele>959</ele>
        <time>2012-04-02T02:42:02Z</time>
      </trkpt>
      <trkpt lat="43.76127" lon="7.07454">
        <ele>960</ele>
        <time>2012-04-02T02:42:05Z</time>
      </trkpt>
      <trkpt lat="43.7616" lon="7.07396">
        <ele>958</ele>
        <time>2012-04-02T02:42:12Z</time>
      </trkpt>
      <trkpt lat="43.76192" lon="7.07315">
        <ele>957</ele>
        <time>2012-04-02T02:42:21Z</time>
      </trkpt>
      <trkpt lat="43.76208" lon="7.07284">
        <ele>955</ele>
        <time>2012-04-02T02:42:25Z</time>
      </trkpt>
      <trkpt lat="43.76225" lon="7.07263">
        <ele>953</ele>
        <time>2012-04-02T02:42:28Z</time>
      </trkpt>
      <trkpt lat="43.76274" lon="7.07221">
        <ele>950</ele>
        <time>2012-04-02T02:42:35Z</time>
      </trkpt>
      <trkpt lat="43.7631" lon="7.07173">
        <ele>947</ele>
        <time>2012-04-02T02:42:42Z</time>
      </trkpt>
      <trkpt lat="43.7645" lon="7.07106">
        <ele>939</ele>
        <time>2012-04-02T02:43:02Z</time>
      </trkpt>
      <trkpt lat="43.76524" lon="7.0706">
        <ele>936</ele>
        <time>2012-04-02T02:43:13Z</time>
      </trkpt>
      <trkpt lat="43.76799" lon="7.06979">
        <ele>930</ele>
        <time>2012-04-02T02:43:50Z</time>
      </trkpt>
      <trkpt lat="43.76822" lon="7.06964">
        <ele>929</ele>
        <time>2012-04-02T02:43:54Z</time>
      </trkpt>
      <trkpt lat="43.76929" lon="7.06825">
        <ele>929</ele>
        <time>2012-04-02T02:44:13Z</time>
      </trkpt>
      <trkpt lat="43.76954" lon="7.06811">
        <ele>928</ele>
        <time>2012-04-02T02:44:17Z</time>
      </trkpt>
      <trkpt lat="43.76983" lon="7.06818">
        <ele>927</ele>
        <time>2012-04-02T02:44:21Z</time>
      </trkpt>
      <trkpt lat="43.76993" lon="7.06826">
        <ele>926</ele>
        <time>2012-04-02T02:44:22Z</time>
      </trkpt>
      <trkpt lat="43.77006" lon="7.06847">
        <ele>926</ele>
        <time>2012-04-02T02:44:25Z</time>
      </trkpt>
      <trkpt lat="43.77011" lon="7.06865">
        <ele>925</ele>
        <time>2012-04-02T02:44:27Z</time>
      </trkpt>
      <trkpt lat="43.7703" lon="7.07041">
        <ele>922</ele>
        <time>2012-04-02T02:44:44Z</time>
      </trkpt>
      <trkpt lat="43.77043" lon="7.07073">
        <ele>922</ele>
        <time>2012-04-02T02:44:49Z</time>
      </trkpt>
      <trkpt lat="43.77072" lon="7.07103">
        <ele>923</ele>
        <time>2012-04-02T02:44:57Z</time>
      </trkpt>
      <trkpt lat="43.7715" lon="7.07131">
        <ele>926</ele>
        <time>2012-04-02T02:45:13Z</time>
      </trkpt>
      <trkpt lat="43.77237" lon="7.07193">
        <ele>913</ele>
        <time>2012-04-02T02:45:26Z</time>
      </trkpt>
      <trkpt lat="43.77268" lon="7.0721">
        <ele>908</ele>
        <time>2012-04-02T02:45:30Z</time>
      </trkpt>
      <trkpt lat="43.77433" lon="7.07267">
        <ele>887</ele>
        <time>2012-04-02T02:45:53Z</time>
      </trkpt>
      <trkpt lat="43.77465" lon="7.07257">
        <ele>899</ele>
        <time>2012-04-02T02:46:27Z</time>
      </trkpt>
      <trkpt lat="43.77514" lon="7.07215">
        <ele>920</ele>
        <time>2012-04-02T02:47:26Z</time>
      </trkpt>
      <trkpt lat="43.77541" lon="7.07206">
        <ele>931</ele>
        <time>2012-04-02T02:47:54Z</time>
      </trkpt>
      <trkpt lat="43.77588" lon="7.07201">
        <ele>913</ele>
        <time>2012-04-02T02:48:01Z</time>
      </trkpt>
      <trkpt lat="43.77641" lon="7.07221">
        <ele>894</ele>
        <time>2012-04-02T02:48:08Z</time>
      </trkpt>
      <trkpt lat="43.77654" lon="7.0722">
        <ele>895</ele>
        <time>2012-04-02T02:48:13Z</time>
      </trkpt>
      <trkpt lat="43.77669" lon="7.07211">
        <ele>897</ele>
        <time>2012-04-02T02:48:20Z</time>
      </trkpt>
      <trkpt lat="43.77682" lon="7.07188">
        <ele>899</ele>
        <time>2012-04-02T02:48:28Z</time>
      </trkpt>
      <trkpt lat="43.77692" lon="7.07146">
        <ele>903</ele>
        <time>2012-04-02T02:48:41Z</time>
      </trkpt>
      <trkpt lat="43.77708" lon="7.07106">
        <ele>907</ele>
        <time>2012-04-02T02:48:55Z</time>
      </trkpt>
      <trkpt lat="43.77712" lon="7.07055">
        <ele>916</ele>
        <time>2012-04-02T02:49:23Z</time>
      </trkpt>
      <trkpt lat="43.77723" lon="7.07022">
        <ele>923</ele>
        <time>2012-04-02T02:49:43Z</time>
      </trkpt>
      <trkpt lat="43.7776" lon="7.06947">
        <ele>941</ele>
        <time>2012-04-02T02:50:34Z</time>
      </trkpt>
      <trkpt lat="43.77795" lon="7.06893">
        <ele>940</ele>
        <time>2012-04-02T02:50:41Z</time>
      </trkpt>
      <trkpt lat="43.77845" lon="7.06784">
        <ele>939</ele>
        <time>2012-04-02T02:50:53Z</time>
      </trkpt>
      <trkpt lat="43.77882" lon="7.06742">
        <ele>932</ele>
        <time>2012-04-02T02:50:59Z</time>
      </trkpt>
      <trkpt lat="43.77916" lon="7.06649">
        <ele>922</ele>
        <time>2012-04-02T02:51:09Z</time>
      </trkpt>
      <trkpt lat="43.77932" lon="7.06619">
        <ele>923</ele>
        <time>2012-04-02T02:51:15Z</time>
      </trkpt>
      <trkpt lat="43.77932" lon="7.06619">
        <ele>923</ele>
        <time>2012-04-02T02:51:16Z</time>
      </trkpt>
      <trkpt lat="43.77945" lon="7.06603">
        <ele>924</ele>
        <time>2012-04-02T02:51:21Z</time>
      </trkpt>
      <trkpt lat="43.7799" lon="7.06585">
        <ele>926</ele>
        <time>2012-04-02T02:51:34Z</time>
      </trkpt>
      <trkpt lat="43.78048" lon="7.065">
        <ele>932</ele>
        <time>2012-04-02T02:51:58Z</time>
      </trkpt>
      <trkpt lat="43.78074" lon="7.06473">
        <ele>935</ele>
        <time>2012-04-02T02:52:11Z</time>
      </trkpt>
      <trkpt lat="43.78093" lon="7.06461">
        <ele>937</ele>
        <time>2012-04-02T02:52:19Z</time>
      </trkpt>
      <trkpt lat="43.78145" lon="7.06439">
        <ele>944</ele>
        <time>2012-04-02T02:52:41Z</time>
      </trkpt>
      <trkpt lat="43.78199" lon="7.06454">
        <ele>923</ele>
        <time>2012-04-02T02:52:48Z</time>
      </trkpt>
      <trkpt lat="43.78253" lon="7.06436">
        <ele>903</ele>
        <time>2012-04-02T02:52:56Z</time>
      </trkpt>
      <trkpt lat="43.78332" lon="7.06418">
        <ele>880</ele>
        <time>2012-04-02T02:53:07Z</time>
      </trkpt>
      <trkpt lat="43.78342" lon="7.06412">
        <ele>878</ele>
        <time>2012-04-02T02:53:08Z</time>
      </trkpt>
      <trkpt lat="43.78351" lon="7.06398">
        <ele>881</ele>
        <time>2012-04-02T02:53:18Z</time>
      </trkpt>
      <trkpt lat="43.78358" lon="7.06362">
        <ele>888</ele>
        <time>2012-04-02T02:53:39Z</time>
      </trkpt>
      <trkpt lat="43.78357" lon="7.06243">
        <ele>911</ele>
        <time>2012-04-02T02:54:44Z</time>
      </trkpt>
      <trkpt lat="43.78335" lon="7.06141">
        <ele>927</ele>
        <time>2012-04-02T02:55:34Z</time>
      </trkpt>
      <trkpt lat="43.78336" lon="7.06113">
        <ele>932</ele>
        <time>2012-04-02T02:55:47Z</time>
      </trkpt>
      <trkpt lat="43.78354" lon="7.06084">
        <ele>927</ele>
        <time>2012-04-02T02:55:51Z</time>
      </trkpt>
      <trkpt lat="43.78443" lon="7.05993">
        <ele>910</ele>
        <time>2012-04-02T02:56:06Z</time>
      </trkpt>
      <trkpt lat="43.78461" lon="7.05962">
        <ele>909</ele>
        <time>2012-04-02T02:56:10Z</time>
      </trkpt>
      <trkpt lat="43.78472" lon="7.05921">
        <ele>908</ele>
        <time>2012-04-02T02:56:14Z</time>
      </trkpt>
      <trkpt lat="43.78473" lon="7.05875">
        <ele>908</ele>
        <time>2012-04-02T02:56:18Z</time>
      </trkpt>
      <trkpt lat="43.78451" lon="7.0543">
        <ele>925</ele>
        <time>2012-04-02T02:57:42Z</time>
      </trkpt>
      <trkpt lat="43.7847" lon="7.05301">
        <ele>925</ele>
        <time>2012-04-02T02:57:55Z</time>
      </trkpt>
      <trkpt lat="43.78478" lon="7.0514">
        <ele>933</ele>
        <time>2012-04-02T02:58:30Z</time>
      </trkpt>
      <trkpt lat="43.78494" lon="7.05108">
        <ele>931</ele>
        <time>2012-04-02T02:58:33Z</time>
      </trkpt>
      <trkpt lat="43.78594" lon="7.05038">
        <ele>928</ele>
        <time>2012-04-02T02:58:48Z</time>
      </trkpt>
      <trkpt lat="43.78623" lon="7.04964">
        <ele>926</ele>
        <time>2012-04-02T02:58:57Z</time>
      </trkpt>
      <trkpt lat="43.78667" lon="7.04887">
        <ele>925</ele>
        <time>2012-04-02T02:59:06Z</time>
      </trkpt>
      <trkpt lat="43.78675" lon="7.04855">
        <ele>925</ele>
        <time>2012-04-02T02:59:11Z</time>
      </trkpt>
      <trkpt lat="43.78715" lon="7.04546">
        <ele>931</ele>
        <time>2012-04-02T02:59:54Z</time>
      </trkpt>
      <trkpt lat="43.78751" lon="7.04397">
        <ele>938</ele>
        <time>2012-04-02T03:00:26Z</time>
      </trkpt>
      <trkpt lat="43.78764" lon="7.04306">
        <ele>939</ele>
        <time>2012-04-02T03:00:38Z</time>
      </trkpt>
      <trkpt lat="43.78812" lon="7.04167">
        <ele>941</ele>
        <time>2012-04-02T03:00:57Z</time>
      </trkpt>
      <trkpt lat="43.78826" lon="7.04062">
        <ele>943</ele>
        <time>2012-04-02T03:01:14Z</time>
      </trkpt>
      <trkpt lat="43.78825" lon="7.03983">
        <ele>946</ele>
        <time>2012-04-02T03:01:27Z</time>
      </trkpt>
      <trkpt lat="43.78828" lon="7.03963">
        <ele>945</ele>
        <time>2012-04-02T03:01:29Z</time>
      </trkpt>
      <trkpt lat="43.78862" lon="7.03881">
        <ele>944</ele>
        <time>2012-04-02T03:01:38Z</time>
      </trkpt>
      <trkpt lat="43.7888" lon="7.03851">
        <ele>944</ele>
        <time>2012-04-02T03:01:42Z</time>
      </trkpt>
      <trkpt lat="43.78907" lon="7.03822">
        <ele>942</ele>
        <time>2012-04-02T03:01:46Z</time>
      </trkpt>
      <trkpt lat="43.78939" lon="7.03748">
        <ele>941</ele>
        <time>2012-04-02T03:01:55Z</time>
      </trkpt>
      <trkpt lat="43.7897" lon="7.03645">
        <ele>942</ele>
        <time>2012-04-02T03:02:10Z</time>
      </trkpt>
      <trkpt lat="43.78973" lon="7.03575">
        <ele>944</ele>
        <time>2012-04-02T03:02:19Z</time>
      </trkpt>
      <trkpt lat="43.78991" lon="7.03528">
        <ele>946</ele>
        <time>2012-04-02T03:02:30Z</time>
      </trkpt>
      <trkpt lat="43.78992" lon="7.03513">
        <ele>947</ele>
        <time>2012-04-02T03:02:33Z</time>
      </trkpt>
      <trkpt lat="43.78987" lon="7.03484">
        <ele>948</ele>
        <time>2012-04-02T03:02:40Z</time>
      </trkpt>
      <trkpt lat="43.7899" lon="7.03452">
        <ele>950</ele>
        <time>2012-04-02T03:02:46Z</time>
      </trkpt>
      <trkpt lat="43.79043" lon="7.03325">
        <ele>956</ele>
        <time>2012-04-02T03:03:15Z</time>
      </trkpt>
      <trkpt lat="43.79038" lon="7.03317">
        <ele>956</ele>
        <time>2012-04-02T03:03:17Z</time>
      </trkpt>
      <trkpt lat="43.78998" lon="7.0336">
        <ele>959</ele>
        <time>2012-04-02T03:03:31Z</time>
      </trkpt>
      <trkpt lat="43.78976" lon="7.03369">
        <ele>960</ele>
        <time>2012-04-02T03:03:37Z</time>
      </trkpt>
      <trkpt lat="43.78875" lon="7.03312">
        <ele>967</ele>
        <time>2012-04-02T03:04:07Z</time>
      </trkpt>
      <trkpt lat="43.7886" lon="7.03299">
        <ele>967</ele>
        <time>2012-04-02T03:04:11Z</time>
      </trkpt>
      <trkpt lat="43.78841" lon="7.0327">
        <ele>969</ele>
        <time>2012-04-02T03:04:18Z</time>
      </trkpt>
      <trkpt lat="43.78817" lon="7.03149">
        <ele>973</ele>
        <time>2012-04-02T03:04:39Z</time>
      </trkpt>
      <trkpt lat="43.78738" lon="7.02931">
        <ele>979</ele>
        <time>2012-04-02T03:05:17Z</time>
      </trkpt>
      <trkpt lat="43.78721" lon="7.0283">
        <ele>979</ele>
        <time>2012-04-02T03:05:29Z</time>
      </trkpt>
      <trkpt lat="43.78612" lon="7.02385">
        <ele>983</ele>
        <time>2012-04-02T03:06:22Z</time>
      </trkpt>
      <trkpt lat="43.78581" lon="7.02147">
        <ele>981</ele>
        <time>2012-04-02T03:06:45Z</time>
      </trkpt>
      <trkpt lat="43.78582" lon="7.02097">
        <ele>976</ele>
        <time>2012-04-02T03:06:50Z</time>
      </trkpt>
      <trkpt lat="43.78594" lon="7.01974">
        <ele>967</ele>
        <time>2012-04-02T03:07:02Z</time>
      </trkpt>
      <trkpt lat="43.78594" lon="7.01974">
        <ele>967</ele>
        <time>2012-04-02T03:07:03Z</time>
      </trkpt>
      <trkpt lat="43.78617" lon="7.01812">
        <ele>963</ele>
        <time>2012-04-02T03:07:19Z</time>
      </trkpt>
      <trkpt lat="43.78616" lon="7.01712">
        <ele>959</ele>
        <time>2012-04-02T03:07:29Z</time>
      </trkpt>
      <trkpt lat="43.78624" lon="7.0163">
        <ele>957</ele>
        <time>2012-04-02T03:07:37Z</time>
      </trkpt>
      <trkpt lat="43.7862" lon="7.01561">
        <ele>956</ele>
        <time>2012-04-02T03:07:43Z</time>
      </trkpt>
      <trkpt lat="43.78634" lon="7.01492">
        <ele>956</ele>
        <time>2012-04-02T03:07:50Z</time>
      </trkpt>
      <trkpt lat="43.78636" lon="7.0146">
        <ele>954</ele>
        <time>2012-04-02T03:07:53Z</time>
      </trkpt>
      <trkpt lat="43.78626" lon="7.01346">
        <ele>950</ele>
        <time>2012-04-02T03:08:05Z</time>
      </trkpt>
      <trkpt lat="43.78633" lon="7.01269">
        <ele>949</ele>
        <time>2012-04-02T03:08:12Z</time>
      </trkpt>
      <trkpt lat="43.78632" lon="7.01188">
        <ele>949</ele>
        <time>2012-04-02T03:08:20Z</time>
      </trkpt>
      <trkpt lat="43.78606" lon="7.00942">
        <ele>935</ele>
        <time>2012-04-02T03:08:44Z</time>
      </trkpt>
      <trkpt lat="43.78608" lon="7.00915">
        <ele>934</ele>
        <time>2012-04-02T03:08:46Z</time>
      </trkpt>
      <trkpt lat="43.78622" lon="7.00849">
        <ele>933</ele>
        <time>2012-04-02T03:08:53Z</time>
      </trkpt>
      <trkpt lat="43.78617" lon="7.00667">
        <ele>930</ele>
        <time>2012-04-02T03:09:11Z</time>
      </trkpt>
      <trkpt lat="43.78624" lon="7.00584">
        <ele>927</ele>
        <time>2012-04-02T03:09:19Z</time>
      </trkpt>
      <trkpt lat="43.78626" lon="7.00355">
        <ele>921</ele>
        <time>2012-04-02T03:09:41Z</time>
      </trkpt>
      <trkpt lat="43.78629" lon="7.00307">
        <ele>919</ele>
        <time>2012-04-02T03:09:45Z</time>
      </trkpt>
      <trkpt lat="43.7865" lon="7.00222">
        <ele>918</ele>
        <time>2012-04-02T03:09:54Z</time>
      </trkpt>
      <trkpt lat="43.78674" lon="7.00081">
        <ele>910</ele>
        <time>2012-04-02T03:10:08Z</time>
      </trkpt>
      <trkpt lat="43.78704" lon="6.99976">
        <ele>904</ele>
        <time>2012-04-02T03:10:19Z</time>
      </trkpt>
      <trkpt lat="43.78737" lon="6.99895">
        <ele>900</ele>
        <time>2012-04-02T03:10:28Z</time>
      </trkpt>
      <trkpt lat="43.78827" lon="6.99709">
        <ele>884</ele>
        <time>2012-04-02T03:10:49Z</time>
      </trkpt>
      <trkpt lat="43.78936" lon="6.99498">
        <ele>868</ele>
        <time>2012-04-02T03:11:15Z</time>
      </trkpt>
      <trkpt lat="43.78972" lon="6.99418">
        <ele>863</ele>
        <time>2012-04-02T03:11:24Z</time>
      </trkpt>
      <trkpt lat="43.79055" lon="6.99288">
        <ele>856</ele>
        <time>2012-04-02T03:11:40Z</time>
      </trkpt>
      <trkpt lat="43.79126" lon="6.99207">
        <ele>863</ele>
        <time>2012-04-02T03:12:09Z</time>
      </trkpt>
      <trkpt lat="43.79161" lon="6.99156">
        <ele>862</ele>
        <time>2012-04-02T03:12:16Z</time>
      </trkpt>
      <trkpt lat="43.79214" lon="6.98986">
        <ele>860</ele>
        <time>2012-04-02T03:12:34Z</time>
      </trkpt>
      <trkpt lat="43.79213" lon="6.98978">
        <ele>859</ele>
        <time>2012-04-02T03:12:35Z</time>
      </trkpt>
      <trkpt lat="43.79206" lon="6.98973">
        <ele>858</ele>
        <time>2012-04-02T03:12:36Z</time>
      </trkpt>
      <trkpt lat="43.792" lon="6.98977">
        <ele>857</ele>
        <time>2012-04-02T03:12:37Z</time>
      </trkpt>
      <trkpt lat="43.79185" lon="6.99034">
        <ele>853</ele>
        <time>2012-04-02T03:12:43Z</time>
      </trkpt>
      <trkpt lat="43.7916" lon="6.99082">
        <ele>849</ele>
        <time>2012-04-02T03:12:48Z</time>
      </trkpt>
      <trkpt lat="43.79151" lon="6.99092">
        <ele>848</ele>
        <time>2012-04-02T03:12:50Z</time>
      </trkpt>
      <trkpt lat="43.79134" lon="6.99105">
        <ele>845</ele>
        <time>2012-04-02T03:12:52Z</time>
      </trkpt>
      <trkpt lat="43.79082" lon="6.99124">
        <ele>840</ele>
        <time>2012-04-02T03:13:00Z</time>
      </trkpt>
      <trkpt lat="43.79055" lon="6.99168">
        <ele>836</ele>
        <time>2012-04-02T03:13:05Z</time>
      </trkpt>
      <trkpt lat="43.78988" lon="6.99228">
        <ele>842</ele>
        <time>2012-04-02T03:13:32Z</time>
      </trkpt>
      <trkpt lat="43.78952" lon="6.99274">
        <ele>847</ele>
        <time>2012-04-02T03:13:49Z</time>
      </trkpt>
      <trkpt lat="43.78941" lon="6.99279">
        <ele>845</ele>
        <time>2012-04-02T03:13:50Z</time>
      </trkpt>
      <trkpt lat="43.78936" lon="6.99272">
        <ele>844</ele>
        <time>2012-04-02T03:13:51Z</time>
      </trkpt>
      <trkpt lat="43.78937" lon="6.99261">
        <ele>843</ele>
        <time>2012-04-02T03:13:52Z</time>
      </trkpt>
      <trkpt lat="43.78962" lon="6.99233">
        <ele>839</ele>
        <time>2012-04-02T03:13:57Z</time>
      </trkpt>
      <trkpt lat="43.79014" lon="6.99118">
        <ele>827</ele>
        <time>2012-04-02T03:14:10Z</time>
      </trkpt>
      <trkpt lat="43.79023" lon="6.99094">
        <ele>823</ele>
        <time>2012-04-02T03:14:12Z</time>
      </trkpt>
      <trkpt lat="43.79031" lon="6.99044">
        <ele>815</ele>
        <time>2012-04-02T03:14:17Z</time>
      </trkpt>
      <trkpt lat="43.79039" lon="6.99021">
        <ele>812</ele>
        <time>2012-04-02T03:14:20Z</time>
      </trkpt>
      <trkpt lat="43.79064" lon="6.98956">
        <ele>802</ele>
        <time>2012-04-02T03:14:27Z</time>
      </trkpt>
      <trkpt lat="43.79098" lon="6.98901">
        <ele>798</ele>
        <time>2012-04-02T03:14:34Z</time>
      </trkpt>
      <trkpt lat="43.79105" lon="6.98877">
        <ele>797</ele>
        <time>2012-04-02T03:14:36Z</time>
      </trkpt>
      <trkpt lat="43.79133" lon="6.98698">
        <ele>789</ele>
        <time>2012-04-02T03:14:54Z</time>
      </trkpt>
      <trkpt lat="43.79133" lon="6.98667">
        <ele>786</ele>
        <time>2012-04-02T03:14:57Z</time>
      </trkpt>
      <trkpt lat="43.79103" lon="6.98506">
        <ele>770</ele>
        <time>2012-04-02T03:15:13Z</time>
      </trkpt>
      <trkpt lat="43.79127" lon="6.9839">
        <ele>757</ele>
        <time>2012-04-02T03:15:25Z</time>
      </trkpt>
      <trkpt lat="43.79139" lon="6.98354">
        <ele>754</ele>
        <time>2012-04-02T03:15:29Z</time>
      </trkpt>
      <trkpt lat="43.79151" lon="6.98334">
        <ele>751</ele>
        <time>2012-04-02T03:15:31Z</time>
      </trkpt>
      <trkpt lat="43.79182" lon="6.98315">
        <ele>747</ele>
        <time>2012-04-02T03:15:36Z</time>
      </trkpt>
      <trkpt lat="43.79212" lon="6.98272">
        <ele>743</ele>
        <time>2012-04-02T03:15:41Z</time>
      </trkpt>
      <trkpt lat="43.79248" lon="6.98261">
        <ele>735</ele>
        <time>2012-04-02T03:15:46Z</time>
      </trkpt>
      <trkpt lat="43.79301" lon="6.98199">
        <ele>720</ele>
        <time>2012-04-02T03:15:56Z</time>
      </trkpt>
      <trkpt lat="43.79317" lon="6.98194">
        <ele>723</ele>
        <time>2012-04-02T03:16:06Z</time>
      </trkpt>
      <trkpt lat="43.79327" lon="6.98198">
        <ele>725</ele>
        <time>2012-04-02T03:16:13Z</time>
      </trkpt>
      <trkpt lat="43.79366" lon="6.98271">
        <ele>739</ele>
        <time>2012-04-02T03:16:54Z</time>
      </trkpt>
      <trkpt lat="43.79397" lon="6.98297">
        <ele>747</ele>
        <time>2012-04-02T03:17:17Z</time>
      </trkpt>
      <trkpt lat="43.79406" lon="6.98311">
        <ele>750</ele>
        <time>2012-04-02T03:17:27Z</time>
      </trkpt>
      <trkpt lat="43.7941" lon="6.98324">
        <ele>752</ele>
        <time>2012-04-02T03:17:34Z</time>
      </trkpt>
      <trkpt lat="43.79414" lon="6.9838">
        <ele>761</ele>
        <time>2012-04-02T03:18:01Z</time>
      </trkpt>
      <trkpt lat="43.79425" lon="6.98404">
        <ele>766</ele>
        <time>2012-04-02T03:18:15Z</time>
      </trkpt>
      <trkpt lat="43.79474" lon="6.98461">
        <ele>781</ele>
        <time>2012-04-02T03:18:59Z</time>
      </trkpt>
      <trkpt lat="43.79518" lon="6.98535">
        <ele>775</ele>
        <time>2012-04-02T03:19:08Z</time>
      </trkpt>
      <trkpt lat="43.79532" lon="6.98547">
        <ele>773</ele>
        <time>2012-04-02T03:19:10Z</time>
      </trkpt>
      <trkpt lat="43.79551" lon="6.98541">
        <ele>772</ele>
        <time>2012-04-02T03:19:13Z</time>
      </trkpt>
      <trkpt lat="43.79562" lon="6.98524">
        <ele>768</ele>
        <time>2012-04-02T03:19:15Z</time>
      </trkpt>
      <trkpt lat="43.7956" lon="6.98495">
        <ele>763</ele>
        <time>2012-04-02T03:19:18Z</time>
      </trkpt>
      <trkpt lat="43.79542" lon="6.98471">
        <ele>757</ele>
        <time>2012-04-02T03:19:21Z</time>
      </trkpt>
      <trkpt lat="43.7953" lon="6.98444">
        <ele>752</ele>
        <time>2012-04-02T03:19:24Z</time>
      </trkpt>
      <trkpt lat="43.79514" lon="6.98353">
        <ele>737</ele>
        <time>2012-04-02T03:19:33Z</time>
      </trkpt>
      <trkpt lat="43.79518" lon="6.98254">
        <ele>717</ele>
        <time>2012-04-02T03:19:43Z</time>
      </trkpt>
      <trkpt lat="43.79516" lon="6.98223">
        <ele>711</ele>
        <time>2012-04-02T03:19:46Z</time>
      </trkpt>
      <trkpt lat="43.79506" lon="6.98192">
        <ele>705</ele>
        <time>2012-04-02T03:19:49Z</time>
      </trkpt>
      <trkpt lat="43.79473" lon="6.98136">
        <ele>693</ele>
        <time>2012-04-02T03:19:56Z</time>
      </trkpt>
      <trkpt lat="43.79465" lon="6.98108">
        <ele>689</ele>
        <time>2012-04-02T03:19:59Z</time>
      </trkpt>
      <trkpt lat="43.79464" lon="6.98083">
        <ele>687</ele>
        <time>2012-04-02T03:20:02Z</time>
      </trkpt>
      <trkpt lat="43.79471" lon="6.98017">
        <ele>684</ele>
        <time>2012-04-02T03:20:08Z</time>
      </trkpt>
      <trkpt lat="43.795" lon="6.97962">
        <ele>682</ele>
        <time>2012-04-02T03:20:15Z</time>
      </trkpt>
      <trkpt lat="43.7956" lon="6.97937">
        <ele>695</ele>
        <time>2012-04-02T03:20:55Z</time>
      </trkpt>
      <trkpt lat="43.79575" lon="6.97927">
        <ele>699</ele>
        <time>2012-04-02T03:21:06Z</time>
      </trkpt>
      <trkpt lat="43.79596" lon="6.97902">
        <ele>705</ele>
        <time>2012-04-02T03:21:24Z</time>
      </trkpt>
      <trkpt lat="43.79609" lon="6.97895">
        <ele>703</ele>
        <time>2012-04-02T03:21:26Z</time>
      </trkpt>
      <trkpt lat="43.79631" lon="6.97894">
        <ele>701</ele>
        <time>2012-04-02T03:21:29Z</time>
      </trkpt>
      <trkpt lat="43.79641" lon="6.9788">
        <ele>700</ele>
        <time>2012-04-02T03:21:31Z</time>
      </trkpt>
      <trkpt lat="43.79641" lon="6.9787">
        <ele>699</ele>
        <time>2012-04-02T03:21:32Z</time>
      </trkpt>
      <trkpt lat="43.79629" lon="6.97832">
        <ele>696</ele>
        <time>2012-04-02T03:21:36Z</time>
      </trkpt>
      <trkpt lat="43.79624" lon="6.97793">
        <ele>693</ele>
        <time>2012-04-02T03:21:40Z</time>
      </trkpt>
      <trkpt lat="43.79585" lon="6.97756">
        <ele>689</ele>
        <time>2012-04-02T03:21:46Z</time>
      </trkpt>
      <trkpt lat="43.79576" lon="6.97734">
        <ele>687</ele>
        <time>2012-04-02T03:21:48Z</time>
      </trkpt>
      <trkpt lat="43.79551" lon="6.97583">
        <ele>681</ele>
        <time>2012-04-02T03:22:03Z</time>
      </trkpt>
      <trkpt lat="43.79552" lon="6.97491">
        <ele>685</ele>
        <time>2012-04-02T03:22:23Z</time>
      </trkpt>
      <trkpt lat="43.7957" lon="6.97406">
        <ele>690</ele>
        <time>2012-04-02T03:22:42Z</time>
      </trkpt>
      <trkpt lat="43.79575" lon="6.97331">
        <ele>687</ele>
        <time>2012-04-02T03:22:50Z</time>
      </trkpt>
      <trkpt lat="43.79574" lon="6.97314">
        <ele>686</ele>
        <time>2012-04-02T03:22:51Z</time>
      </trkpt>
      <trkpt lat="43.7956" lon="6.97263">
        <ele>685</ele>
        <time>2012-04-02T03:22:56Z</time>
      </trkpt>
      <trkpt lat="43.79558" lon="6.97228">
        <ele>686</ele>
        <time>2012-04-02T03:23:02Z</time>
      </trkpt>
      <trkpt lat="43.79581" lon="6.97096">
        <ele>690</ele>
        <time>2012-04-02T03:23:25Z</time>
      </trkpt>
      <trkpt lat="43.79574" lon="6.97075">
        <ele>690</ele>
        <time>2012-04-02T03:23:27Z</time>
      </trkpt>
      <trkpt lat="43.7955" lon="6.9706">
        <ele>690</ele>
        <time>2012-04-02T03:23:32Z</time>
      </trkpt>
      <trkpt lat="43.79535" lon="6.9703">
        <ele>690</ele>
        <time>2012-04-02T03:23:36Z</time>
      </trkpt>
      <trkpt lat="43.79536" lon="6.96997">
        <ele>690</ele>
        <time>2012-04-02T03:23:39Z</time>
      </trkpt>
      <trkpt lat="43.79544" lon="6.96971">
        <ele>691</ele>
        <time>2012-04-02T03:23:42Z</time>
      </trkpt>
      <trkpt lat="43.79538" lon="6.96947">
        <ele>685</ele>
        <time>2012-04-02T03:23:45Z</time>
      </trkpt>
      <trkpt lat="43.79503" lon="6.96934">
        <ele>673</ele>
        <time>2012-04-02T03:23:50Z</time>
      </trkpt>
      <trkpt lat="43.79449" lon="6.96926">
        <ele>657</ele>
        <time>2012-04-02T03:23:57Z</time>
      </trkpt>
      <trkpt lat="43.79433" lon="6.96917">
        <ele>657</ele>
        <time>2012-04-02T03:24:00Z</time>
      </trkpt>
      <trkpt lat="43.79421" lon="6.96903">
        <ele>657</ele>
        <time>2012-04-02T03:24:02Z</time>
      </trkpt>
      <trkpt lat="43.7942" lon="6.9689">
        <ele>657</ele>
        <time>2012-04-02T03:24:04Z</time>
      </trkpt>
      <trkpt lat="43.79425" lon="6.96865">
        <ele>657</ele>
        <time>2012-04-02T03:24:07Z</time>
      </trkpt>
      <trkpt lat="43.79421" lon="6.96842">
        <ele>657</ele>
        <time>2012-04-02T03:24:09Z</time>
      </trkpt>
      <trkpt lat="43.79411" lon="6.96667">
        <ele>659</ele>
        <time>2012-04-02T03:24:29Z</time>
      </trkpt>
      <trkpt lat="43.79419" lon="6.96594">
        <ele>669</ele>
        <time>2012-04-02T03:25:01Z</time>
      </trkpt>
      <trkpt lat="43.7945" lon="6.96483">
        <ele>686</ele>
        <time>2012-04-02T03:25:53Z</time>
      </trkpt>
      <trkpt lat="43.79449" lon="6.96467">
        <ele>686</ele>
        <time>2012-04-02T03:25:56Z</time>
      </trkpt>
      <trkpt lat="43.79429" lon="6.96416">
        <ele>688</ele>
        <time>2012-04-02T03:26:06Z</time>
      </trkpt>
      <trkpt lat="43.79428" lon="6.96393">
        <ele>689</ele>
        <time>2012-04-02T03:26:11Z</time>
      </trkpt>
      <trkpt lat="43.7943" lon="6.96374">
        <ele>690</ele>
        <time>2012-04-02T03:26:14Z</time>
      </trkpt>
      <trkpt lat="43.79464" lon="6.9629">
        <ele>694</ele>
        <time>2012-04-02T03:26:32Z</time>
      </trkpt>
      <trkpt lat="43.79471" lon="6.9626">
        <ele>694</ele>
        <time>2012-04-02T03:26:36Z</time>
      </trkpt>
      <trkpt lat="43.79481" lon="6.96162">
        <ele>696</ele>
        <time>2012-04-02T03:26:50Z</time>
      </trkpt>
      <trkpt lat="43.79471" lon="6.96105">
        <ele>700</ele>
        <time>2012-04-02T03:27:07Z</time>
      </trkpt>
      <trkpt lat="43.79471" lon="6.96083">
        <ele>702</ele>
        <time>2012-04-02T03:27:13Z</time>
      </trkpt>
      <trkpt lat="43.79477" lon="6.96069">
        <ele>703</ele>
        <time>2012-04-02T03:27:18Z</time>
      </trkpt>
      <trkpt lat="43.79523" lon="6.96007">
        <ele>711</ele>
        <time>2012-04-02T03:27:44Z</time>
      </trkpt>
      <trkpt lat="43.79537" lon="6.95942">
        <ele>723</ele>
        <time>2012-04-02T03:28:21Z</time>
      </trkpt>
      <trkpt lat="43.7955" lon="6.95913">
        <ele>730</ele>
        <time>2012-04-02T03:28:40Z</time>
      </trkpt>
      <trkpt lat="43.79602" lon="6.95853">
        <ele>748</ele>
        <time>2012-04-02T03:29:31Z</time>
      </trkpt>
      <trkpt lat="43.79617" lon="6.95827">
        <ele>752</ele>
        <time>2012-04-02T03:29:45Z</time>
      </trkpt>
      <trkpt lat="43.79633" lon="6.9574">
        <ele>764</ele>
        <time>2012-04-02T03:30:23Z</time>
      </trkpt>
      <trkpt lat="43.79657" lon="6.95655">
        <ele>777</ele>
        <time>2012-04-02T03:31:02Z</time>
      </trkpt>
      <trkpt lat="43.79664" lon="6.95615">
        <ele>777</ele>
        <time>2012-04-02T03:31:07Z</time>
      </trkpt>
      <trkpt lat="43.79664" lon="6.95543">
        <ele>778</ele>
        <time>2012-04-02T03:31:17Z</time>
      </trkpt>
      <trkpt lat="43.79652" lon="6.95484">
        <ele>780</ele>
        <time>2012-04-02T03:31:26Z</time>
      </trkpt>
      <trkpt lat="43.79644" lon="6.95455">
        <ele>777</ele>
        <time>2012-04-02T03:31:29Z</time>
      </trkpt>
      <trkpt lat="43.79614" lon="6.9539">
        <ele>772</ele>
        <time>2012-04-02T03:31:36Z</time>
      </trkpt>
      <trkpt lat="43.79593" lon="6.95303">
        <ele>766</ele>
        <time>2012-04-02T03:31:45Z</time>
      </trkpt>
      <trkpt lat="43.79568" lon="6.95244">
        <ele>771</ele>
        <time>2012-04-02T03:32:04Z</time>
      </trkpt>
      <trkpt lat="43.79569" lon="6.95231">
        <ele>772</ele>
        <time>2012-04-02T03:32:07Z</time>
      </trkpt>
      <trkpt lat="43.79575" lon="6.95229">
        <ele>772</ele>
        <time>2012-04-02T03:32:10Z</time>
      </trkpt>
      <trkpt lat="43.79581" lon="6.95237">
        <ele>773</ele>
        <time>2012-04-02T03:32:13Z</time>
      </trkpt>
      <trkpt lat="43.79647" lon="6.95383">
        <ele>786</ele>
        <time>2012-04-02T03:33:00Z</time>
      </trkpt>
      <trkpt lat="43.79683" lon="6.9544">
        <ele>792</ele>
        <time>2012-04-02T03:33:21Z</time>
      </trkpt>
      <trkpt lat="43.79699" lon="6.95477">
        <ele>791</ele>
        <time>2012-04-02T03:33:25Z</time>
      </trkpt>
      <trkpt lat="43.79704" lon="6.95484">
        <ele>790</ele>
        <time>2012-04-02T03:33:26Z</time>
      </trkpt>
      <trkpt lat="43.79712" lon="6.95478">
        <ele>790</ele>
        <time>2012-04-02T03:33:27Z</time>
      </trkpt>
      <trkpt lat="43.79708" lon="6.95462">
        <ele>790</ele>
        <time>2012-04-02T03:33:29Z</time>
      </trkpt>
      <trkpt lat="43.79667" lon="6.95385">
        <ele>787</ele>
        <time>2012-04-02T03:33:38Z</time>
      </trkpt>
      <trkpt lat="43.79642" lon="6.95266">
        <ele>785</ele>
        <time>2012-04-02T03:33:50Z</time>
      </trkpt>
      <trkpt lat="43.79643" lon="6.95245">
        <ele>786</ele>
        <time>2012-04-02T03:33:55Z</time>
      </trkpt>
      <trkpt lat="43.79663" lon="6.95168">
        <ele>791</ele>
        <time>2012-04-02T03:34:16Z</time>
      </trkpt>
      <trkpt lat="43.79664" lon="6.95035">
        <ele>800</ele>
        <time>2012-04-02T03:34:49Z</time>
      </trkpt>
      <trkpt lat="43.79685" lon="6.94945">
        <ele>809</ele>
        <time>2012-04-02T03:35:21Z</time>
      </trkpt>
      <trkpt lat="43.79687" lon="6.94875">
        <ele>817</ele>
        <time>2012-04-02T03:35:45Z</time>
      </trkpt>
      <trkpt lat="43.79664" lon="6.94707">
        <ele>822</ele>
        <time>2012-04-02T03:36:14Z</time>
      </trkpt>
      <trkpt lat="43.79652" lon="6.94665">
        <ele>820</ele>
        <time>2012-04-02T03:36:18Z</time>
      </trkpt>
      <trkpt lat="43.79611" lon="6.94563">
        <ele>816</ele>
        <time>2012-04-02T03:36:30Z</time>
      </trkpt>
      <trkpt lat="43.79604" lon="6.94538">
        <ele>817</ele>
        <time>2012-04-02T03:36:35Z</time>
      </trkpt>
      <trkpt lat="43.796" lon="6.94496">
        <ele>819</ele>
        <time>2012-04-02T03:36:45Z</time>
      </trkpt>
      <trkpt lat="43.79604" lon="6.94447">
        <ele>822</ele>
        <time>2012-04-02T03:36:56Z</time>
      </trkpt>
      <trkpt lat="43.79619" lon="6.94352">
        <ele>827</ele>
        <time>2012-04-02T03:37:17Z</time>
      </trkpt>
      <trkpt lat="43.79645" lon="6.94279">
        <ele>831</ele>
        <time>2012-04-02T03:37:36Z</time>
      </trkpt>
      <trkpt lat="43.79662" lon="6.94196">
        <ele>837</ele>
        <time>2012-04-02T03:37:57Z</time>
      </trkpt>
      <trkpt lat="43.79689" lon="6.94141">
        <ele>840</ele>
        <time>2012-04-02T03:38:13Z</time>
      </trkpt>
      <trkpt lat="43.79707" lon="6.94073">
        <ele>845</ele>
        <time>2012-04-02T03:38:30Z</time>
      </trkpt>
      <trkpt lat="43.79713" lon="6.94026">
        <ele>844</ele>
        <time>2012-04-02T03:38:34Z</time>
      </trkpt>
      <trkpt lat="43.79704" lon="6.93923">
        <ele>843</ele>
        <time>2012-04-02T03:38:44Z</time>
      </trkpt>
      <trkpt lat="43.79708" lon="6.93881">
        <ele>844</ele>
        <time>2012-04-02T03:38:53Z</time>
      </trkpt>
      <trkpt lat="43.7973" lon="6.93853">
        <ele>846</ele>
        <time>2012-04-02T03:39:01Z</time>
      </trkpt>
      <trkpt lat="43.79742" lon="6.93849">
        <ele>847</ele>
        <time>2012-04-02T03:39:04Z</time>
      </trkpt>
      <trkpt lat="43.7976" lon="6.93852">
        <ele>848</ele>
        <time>2012-04-02T03:39:09Z</time>
      </trkpt>
      <trkpt lat="43.79774" lon="6.93868">
        <ele>849</ele>
        <time>2012-04-02T03:39:14Z</time>
      </trkpt>
      <trkpt lat="43.79782" lon="6.93943">
        <ele>852</ele>
        <time>2012-04-02T03:39:29Z</time>
      </trkpt>
      <trkpt lat="43.79776" lon="6.93984">
        <ele>854</ele>
        <time>2012-04-02T03:39:37Z</time>
      </trkpt>
      <trkpt lat="43.79757" lon="6.94043">
        <ele>857</ele>
        <time>2012-04-02T03:39:50Z</time>
      </trkpt>
      <trkpt lat="43.79755" lon="6.94106">
        <ele>857</ele>
        <time>2012-04-02T03:39:56Z</time>
      </trkpt>
      <trkpt lat="43.79742" lon="6.94172">
        <ele>857</ele>
        <time>2012-04-02T03:40:03Z</time>
      </trkpt>
      <trkpt lat="43.79736" lon="6.94238">
        <ele>859</ele>
        <time>2012-04-02T03:40:14Z</time>
      </trkpt>
      <trkpt lat="43.79736" lon="6.94263">
        <ele>860</ele>
        <time>2012-04-02T03:40:19Z</time>
      </trkpt>
      <trkpt lat="43.79748" lon="6.94351">
        <ele>863</ele>
        <time>2012-04-02T03:40:34Z</time>
      </trkpt>
      <trkpt lat="43.79744" lon="6.94392">
        <ele>863</ele>
        <time>2012-04-02T03:40:40Z</time>
      </trkpt>
      <trkpt lat="43.79752" lon="6.94404">
        <ele>863</ele>
        <time>2012-04-02T03:40:42Z</time>
      </trkpt>
      <trkpt lat="43.79759" lon="6.944">
        <ele>864</ele>
        <time>2012-04-02T03:40:44Z</time>
      </trkpt>
      <trkpt lat="43.79762" lon="6.94391">
        <ele>864</ele>
        <time>2012-04-02T03:40:45Z</time>
      </trkpt>
      <trkpt lat="43.79759" lon="6.94353">
        <ele>864</ele>
        <time>2012-04-02T03:40:50Z</time>
      </trkpt>
      <trkpt lat="43.79765" lon="6.94234">
        <ele>866</ele>
        <time>2012-04-02T03:41:06Z</time>
      </trkpt>
      <trkpt lat="43.79775" lon="6.94216">
        <ele>867</ele>
        <time>2012-04-02T03:41:09Z</time>
      </trkpt>
      <trkpt lat="43.79802" lon="6.94193">
        <ele>871</ele>
        <time>2012-04-02T03:41:23Z</time>
      </trkpt>
      <trkpt lat="43.79814" lon="6.9417">
        <ele>873</ele>
        <time>2012-04-02T03:41:33Z</time>
      </trkpt>
      <trkpt lat="43.79832" lon="6.94112">
        <ele>880</ele>
        <time>2012-04-02T03:41:53Z</time>
      </trkpt>
      <trkpt lat="43.79859" lon="6.94061">
        <ele>885</ele>
        <time>2012-04-02T03:42:13Z</time>
      </trkpt>
      <trkpt lat="43.79897" lon="6.9396">
        <ele>896</ele>
        <time>2012-04-02T03:42:49Z</time>
      </trkpt>
      <trkpt lat="43.79903" lon="6.93923">
        <ele>896</ele>
        <time>2012-04-02T03:42:52Z</time>
      </trkpt>
      <trkpt lat="43.7985" lon="6.93746">
        <ele>896</ele>
        <time>2012-04-02T03:43:11Z</time>
      </trkpt>
      <trkpt lat="43.79843" lon="6.93668">
        <ele>904</ele>
        <time>2012-04-02T03:43:40Z</time>
      </trkpt>
      <trkpt lat="43.79828" lon="6.93573">
        <ele>916</ele>
        <time>2012-04-02T03:44:16Z</time>
      </trkpt>
      <trkpt lat="43.79837" lon="6.93483">
        <ele>933</ele>
        <time>2012-04-02T03:45:06Z</time>
      </trkpt>
      <trkpt lat="43.79832" lon="6.93447">
        <ele>940</ele>
        <time>2012-04-02T03:45:26Z</time>
      </trkpt>
      <trkpt lat="43.79816" lon="6.93396">
        <ele>942</ele>
        <time>2012-04-02T03:45:37Z</time>
      </trkpt>
      <trkpt lat="43.79791" lon="6.93286">
        <ele>948</ele>
        <time>2012-04-02T03:46:01Z</time>
      </trkpt>
      <trkpt lat="43.79756" lon="6.93216">
        <ele>949</ele>
        <time>2012-04-02T03:46:14Z</time>
      </trkpt>
      <trkpt lat="43.79748" lon="6.93188">
        <ele>950</ele>
        <time>2012-04-02T03:46:18Z</time>
      </trkpt>
      <trkpt lat="43.79747" lon="6.93103">
        <ele>952</ele>
        <time>2012-04-02T03:46:30Z</time>
      </trkpt>
      <trkpt lat="43.79741" lon="6.93059">
        <ele>948</ele>
        <time>2012-04-02T03:46:35Z</time>
      </trkpt>
      <trkpt lat="43.79717" lon="6.93">
        <ele>942</ele>
        <time>2012-04-02T03:46:41Z</time>
      </trkpt>
      <trkpt lat="43.79701" lon="6.92948">
        <ele>938</ele>
        <time>2012-04-02T03:46:47Z</time>
      </trkpt>
      <trkpt lat="43.79664" lon="6.92873">
        <ele>930</ele>
        <time>2012-04-02T03:46:55Z</time>
      </trkpt>
      <trkpt lat="43.79661" lon="6.92857">
        <ele>929</ele>
        <time>2012-04-02T03:46:57Z</time>
      </trkpt>
      <trkpt lat="43.79662" lon="6.92808">
        <ele>925</ele>
        <time>2012-04-02T03:47:02Z</time>
      </trkpt>
      <trkpt lat="43.7967" lon="6.9276">
        <ele>937</ele>
        <time>2012-04-02T03:47:37Z</time>
      </trkpt>
      <trkpt lat="43.79681" lon="6.92729">
        <ele>946</ele>
        <time>2012-04-02T03:48:01Z</time>
      </trkpt>
      <trkpt lat="43.79716" lon="6.92676">
        <ele>965</ele>
        <time>2012-04-02T03:48:53Z</time>
      </trkpt>
      <trkpt lat="43.79723" lon="6.92635">
        <ele>963</ele>
        <time>2012-04-02T03:48:57Z</time>
      </trkpt>
      <trkpt lat="43.79684" lon="6.92401">
        <ele>958</ele>
        <time>2012-04-02T03:49:20Z</time>
      </trkpt>
      <trkpt lat="43.7967" lon="6.92251">
        <ele>954</ele>
        <time>2012-04-02T03:49:34Z</time>
      </trkpt>
      <trkpt lat="43.79669" lon="6.92187">
        <ele>955</ele>
        <time>2012-04-02T03:49:43Z</time>
      </trkpt>
      <trkpt lat="43.79669" lon="6.92187">
        <ele>955</ele>
        <time>2012-04-02T03:49:44Z</time>
      </trkpt>
      <trkpt lat="43.7967" lon="6.92182">
        <ele>953</ele>
        <time>2012-04-02T03:49:45Z</time>
      </trkpt>
      <trkpt lat="43.7968" lon="6.92143">
        <ele>944</ele>
        <time>2012-04-02T03:49:48Z</time>
      </trkpt>
      <trkpt lat="43.79678" lon="6.92118">
        <ele>939</ele>
        <time>2012-04-02T03:49:51Z</time>
      </trkpt>
      <trkpt lat="43.79673" lon="6.92105">
        <ele>936</ele>
        <time>2012-04-02T03:49:52Z</time>
      </trkpt>
      <trkpt lat="43.79662" lon="6.92096">
        <ele>932</ele>
        <time>2012-04-02T03:49:54Z</time>
      </trkpt>
      <trkpt lat="43.79642" lon="6.92096">
        <ele>926</ele>
        <time>2012-04-02T03:49:57Z</time>
      </trkpt>
      <trkpt lat="43.79628" lon="6.92087">
        <ele>921</ele>
        <time>2012-04-02T03:49:59Z</time>
      </trkpt>
      <trkpt lat="43.7961" lon="6.92051">
        <ele>912</ele>
        <time>2012-04-02T03:50:03Z</time>
      </trkpt>
      <trkpt lat="43.79612" lon="6.92023">
        <ele>914</ele>
        <time>2012-04-02T03:50:11Z</time>
      </trkpt>
      <trkpt lat="43.79623" lon="6.91995">
        <ele>916</ele>
        <time>2012-04-02T03:50:20Z</time>
      </trkpt>
      <trkpt lat="43.79626" lon="6.91971">
        <ele>918</ele>
        <time>2012-04-02T03:50:27Z</time>
      </trkpt>
      <trkpt lat="43.79617" lon="6.91888">
        <ele>925</ele>
        <time>2012-04-02T03:50:50Z</time>
      </trkpt>
      <trkpt lat="43.79621" lon="6.91873">
        <ele>930</ele>
        <time>2012-04-02T03:51:06Z</time>
      </trkpt>
      <trkpt lat="43.79641" lon="6.91835">
        <ele>948</ele>
        <time>2012-04-02T03:51:53Z</time>
      </trkpt>
      <trkpt lat="43.79656" lon="6.91751">
        <ele>981</ele>
        <time>2012-04-02T03:53:19Z</time>
      </trkpt>
      <trkpt lat="43.79652" lon="6.91733">
        <ele>981</ele>
        <time>2012-04-02T03:53:22Z</time>
      </trkpt>
      <trkpt lat="43.79635" lon="6.91707">
        <ele>982</ele>
        <time>2012-04-02T03:53:27Z</time>
      </trkpt>
      <trkpt lat="43.79633" lon="6.91686">
        <ele>982</ele>
        <time>2012-04-02T03:53:30Z</time>
      </trkpt>
      <trkpt lat="43.79638" lon="6.91658">
        <ele>983</ele>
        <time>2012-04-02T03:53:35Z</time>
      </trkpt>
      <trkpt lat="43.79635" lon="6.91627">
        <ele>984</ele>
        <time>2012-04-02T03:53:39Z</time>
      </trkpt>
      <trkpt lat="43.79607" lon="6.91579">
        <ele>984</ele>
        <time>2012-04-02T03:53:45Z</time>
      </trkpt>
      <trkpt lat="43.79601" lon="6.91544">
        <ele>984</ele>
        <time>2012-04-02T03:53:49Z</time>
      </trkpt>
      <trkpt lat="43.79608" lon="6.91444">
        <ele>984</ele>
        <time>2012-04-02T03:53:59Z</time>
      </trkpt>
      <trkpt lat="43.79613" lon="6.9143">
        <ele>990</ele>
        <time>2012-04-02T03:54:16Z</time>
      </trkpt>
      <trkpt lat="43.7962" lon="6.9142">
        <ele>996</ele>
        <time>2012-04-02T03:54:31Z</time>
      </trkpt>
      <trkpt lat="43.79648" lon="6.91401">
        <ele>1014</ele>
        <time>2012-04-02T03:55:18Z</time>
      </trkpt>
      <trkpt lat="43.79663" lon="6.91382">
        <ele>1025</ele>
        <time>2012-04-02T03:55:49Z</time>
      </trkpt>
      <trkpt lat="43.79676" lon="6.9135">
        <ele>1041</ele>
        <time>2012-04-02T03:56:29Z</time>
      </trkpt>
      <trkpt lat="43.79679" lon="6.91331">
        <ele>1041</ele>
        <time>2012-04-02T03:56:32Z</time>
      </trkpt>
      <trkpt lat="43.79671" lon="6.91197">
        <ele>1047</ele>
        <time>2012-04-02T03:56:58Z</time>
      </trkpt>
      <trkpt lat="43.79656" lon="6.91117">
        <ele>1041</ele>
        <time>2012-04-02T03:57:06Z</time>
      </trkpt>
      <trkpt lat="43.79658" lon="6.91072">
        <ele>1039</ele>
        <time>2012-04-02T03:57:10Z</time>
      </trkpt>
      <trkpt lat="43.79673" lon="6.90998">
        <ele>1037</ele>
        <time>2012-04-02T03:57:18Z</time>
      </trkpt>
      <trkpt lat="43.79672" lon="6.90871">
        <ele>1034</ele>
        <time>2012-04-02T03:57:30Z</time>
      </trkpt>
      <trkpt lat="43.79685" lon="6.90857">
        <ele>1037</ele>
        <time>2012-04-02T03:57:42Z</time>
      </trkpt>
      <trkpt lat="43.79696" lon="6.9086">
        <ele>1040</ele>
        <time>2012-04-02T03:57:49Z</time>
      </trkpt>
      <trkpt lat="43.79719" lon="6.90891">
        <ele>1048</ele>
        <time>2012-04-02T03:58:12Z</time>
      </trkpt>
      <trkpt lat="43.79747" lon="6.90947">
        <ele>1060</ele>
        <time>2012-04-02T03:58:47Z</time>
      </trkpt>
      <trkpt lat="43.7977" lon="6.90967">
        <ele>1066</ele>
        <time>2012-04-02T03:59:06Z</time>
      </trkpt>
      <trkpt lat="43.798" lon="6.90975">
        <ele>1074</ele>
        <time>2012-04-02T03:59:29Z</time>
      </trkpt>
      <trkpt lat="43.79848" lon="6.9097">
        <ele>1086</ele>
        <time>2012-04-02T04:00:03Z</time>
      </trkpt>
      <trkpt lat="43.79935" lon="6.90946">
        <ele>1097</ele>
        <time>2012-04-02T04:00:42Z</time>
      </trkpt>
      <trkpt lat="43.79995" lon="6.90938">
        <ele>1105</ele>
        <time>2012-04-02T04:01:09Z</time>
      </trkpt>
      <trkpt lat="43.80016" lon="6.90928">
        <ele>1105</ele>
        <time>2012-04-02T04:01:14Z</time>
      </trkpt>
      <trkpt lat="43.80078" lon="6.90859">
        <ele>1109</ele>
        <time>2012-04-02T04:01:32Z</time>
      </trkpt>
      <trkpt lat="43.8013" lon="6.90776">
        <ele>1114</ele>
        <time>2012-04-02T04:01:56Z</time>
      </trkpt>
      <trkpt lat="43.80144" lon="6.90733">
        <ele>1117</ele>
        <time>2012-04-02T04:02:06Z</time>
      </trkpt>
      <trkpt lat="43.80154" lon="6.90672">
        <ele>1117</ele>
        <time>2012-04-02T04:02:14Z</time>
      </trkpt>
      <trkpt lat="43.80145" lon="6.90631">
        <ele>1118</ele>
        <time>2012-04-02T04:02:20Z</time>
      </trkpt>
      <trkpt lat="43.80123" lon="6.90589">
        <ele>1119</ele>
        <time>2012-04-02T04:02:26Z</time>
      </trkpt>
      <trkpt lat="43.80098" lon="6.90505">
        <ele>1126</ele>
        <time>2012-04-02T04:02:53Z</time>
      </trkpt>
      <trkpt lat="43.80092" lon="6.90392">
        <ele>1136</ele>
        <time>2012-04-02T04:03:27Z</time>
      </trkpt>
      <trkpt lat="43.80097" lon="6.90362">
        <ele>1132</ele>
        <time>2012-04-02T04:03:30Z</time>
      </trkpt>
      <trkpt lat="43.80113" lon="6.90344">
        <ele>1129</ele>
        <time>2012-04-02T04:03:33Z</time>
      </trkpt>
      <trkpt lat="43.80158" lon="6.90335">
        <ele>1123</ele>
        <time>2012-04-02T04:03:39Z</time>
      </trkpt>
      <trkpt lat="43.80179" lon="6.90318">
        <ele>1120</ele>
        <time>2012-04-02T04:03:42Z</time>
      </trkpt>
      <trkpt lat="43.80191" lon="6.90282">
        <ele>1120</ele>
        <time>2012-04-02T04:03:46Z</time>
      </trkpt>
      <trkpt lat="43.80199" lon="6.9022">
        <ele>1120</ele>
        <time>2012-04-02T04:03:52Z</time>
      </trkpt>
      <trkpt lat="43.80266" lon="6.9012">
        <ele>1120</ele>
        <time>2012-04-02T04:04:05Z</time>
      </trkpt>
      <trkpt lat="43.80277" lon="6.90089">
        <ele>1122</ele>
        <time>2012-04-02T04:04:14Z</time>
      </trkpt>
      <trkpt lat="43.80283" lon="6.90057">
        <ele>1124</ele>
        <time>2012-04-02T04:04:22Z</time>
      </trkpt>
      <trkpt lat="43.80295" lon="6.89881">
        <ele>1136</ele>
        <time>2012-04-02T04:05:07Z</time>
      </trkpt>
      <trkpt lat="43.80302" lon="6.89832">
        <ele>1138</ele>
        <time>2012-04-02T04:05:17Z</time>
      </trkpt>
      <trkpt lat="43.80315" lon="6.89774">
        <ele>1141</ele>
        <time>2012-04-02T04:05:30Z</time>
      </trkpt>
      <trkpt lat="43.80337" lon="6.89721">
        <ele>1144</ele>
        <time>2012-04-02T04:05:43Z</time>
      </trkpt>
      <trkpt lat="43.80377" lon="6.8966">
        <ele>1143</ele>
        <time>2012-04-02T04:05:51Z</time>
      </trkpt>
      <trkpt lat="43.80687" lon="6.89257">
        <ele>1140</ele>
        <time>2012-04-02T04:06:47Z</time>
      </trkpt>
      <trkpt lat="43.80709" lon="6.89225">
        <ele>1140</ele>
        <time>2012-04-02T04:06:52Z</time>
      </trkpt>
      <trkpt lat="43.80724" lon="6.8919">
        <ele>1140</ele>
        <time>2012-04-02T04:06:56Z</time>
      </trkpt>
      <trkpt lat="43.8078" lon="6.88823">
        <ele>1141</ele>
        <time>2012-04-02T04:07:34Z</time>
      </trkpt>
      <trkpt lat="43.80804" lon="6.88692">
        <ele>1148</ele>
        <time>2012-04-02T04:08:04Z</time>
      </trkpt>
      <trkpt lat="43.80821" lon="6.88615">
        <ele>1150</ele>
        <time>2012-04-02T04:08:18Z</time>
      </trkpt>
      <trkpt lat="43.80855" lon="6.88506">
        <ele>1154</ele>
        <time>2012-04-02T04:08:38Z</time>
      </trkpt>
      <trkpt lat="43.80887" lon="6.88311">
        <ele>1152</ele>
        <time>2012-04-02T04:08:57Z</time>
      </trkpt>
      <trkpt lat="43.80896" lon="6.88302">
        <ele>1151</ele>
        <time>2012-04-02T04:08:58Z</time>
      </trkpt>
      <trkpt lat="43.80889" lon="6.88291">
        <ele>1151</ele>
        <time>2012-04-02T04:09:00Z</time>
      </trkpt>
      <trkpt lat="43.80907" lon="6.8813">
        <ele>1146</ele>
        <time>2012-04-02T04:09:15Z</time>
      </trkpt>
      <trkpt lat="43.80892" lon="6.8771">
        <ele>1144</ele>
        <time>2012-04-02T04:09:56Z</time>
      </trkpt>
      <trkpt lat="43.80883" lon="6.87647">
        <ele>1146</ele>
        <time>2012-04-02T04:10:08Z</time>
      </trkpt>
      <trkpt lat="43.8085" lon="6.87553">
        <ele>1150</ele>
        <time>2012-04-02T04:10:27Z</time>
      </trkpt>
      <trkpt lat="43.80826" lon="6.87439">
        <ele>1153</ele>
        <time>2012-04-02T04:10:46Z</time>
      </trkpt>
      <trkpt lat="43.80816" lon="6.87265">
        <ele>1158</ele>
        <time>2012-04-02T04:11:14Z</time>
      </trkpt>
      <trkpt lat="43.80802" lon="6.87182">
        <ele>1158</ele>
        <time>2012-04-02T04:11:22Z</time>
      </trkpt>
      <trkpt lat="43.80801" lon="6.87153">
        <ele>1158</ele>
        <time>2012-04-02T04:11:25Z</time>
      </trkpt>
      <trkpt lat="43.80813" lon="6.87044">
        <ele>1158</ele>
        <time>2012-04-02T04:11:36Z</time>
      </trkpt>
      <trkpt lat="43.80834" lon="6.86939">
        <ele>1157</ele>
        <time>2012-04-02T04:11:46Z</time>
      </trkpt>
      <trkpt lat="43.8084" lon="6.86886">
        <ele>1157</ele>
        <time>2012-04-02T04:11:51Z</time>
      </trkpt>
      <trkpt lat="43.80842" lon="6.86847">
        <ele>1157</ele>
        <time>2012-04-02T04:11:57Z</time>
      </trkpt>
      <trkpt lat="43.80832" lon="6.86741">
        <ele>1159</ele>
        <time>2012-04-02T04:12:10Z</time>
      </trkpt>
      <trkpt lat="43.80837" lon="6.86707">
        <ele>1159</ele>
        <time>2012-04-02T04:12:15Z</time>
      </trkpt>
      <trkpt lat="43.80848" lon="6.86672">
        <ele>1160</ele>
        <time>2012-04-02T04:12:20Z</time>
      </trkpt>
      <trkpt lat="43.80902" lon="6.86561">
        <ele>1162</ele>
        <time>2012-04-02T04:12:37Z</time>
      </trkpt>
      <trkpt lat="43.80909" lon="6.86529">
        <ele>1162</ele>
        <time>2012-04-02T04:12:43Z</time>
      </trkpt>
      <trkpt lat="43.80906" lon="6.86445">
        <ele>1165</ele>
        <time>2012-04-02T04:12:56Z</time>
      </trkpt>
      <trkpt lat="43.8091" lon="6.86368">
        <ele>1167</ele>
        <time>2012-04-02T04:13:08Z</time>
      </trkpt>
      <trkpt lat="43.80905" lon="6.8632">
        <ele>1168</ele>
        <time>2012-04-02T04:13:16Z</time>
      </trkpt>
      <trkpt lat="43.80868" lon="6.86152">
        <ele>1173</ele>
        <time>2012-04-02T04:13:44Z</time>
      </trkpt>
      <trkpt lat="43.80833" lon="6.86055">
        <ele>1174</ele>
        <time>2012-04-02T04:13:58Z</time>
      </trkpt>
      <trkpt lat="43.80808" lon="6.85959">
        <ele>1176</ele>
        <time>2012-04-02T04:14:12Z</time>
      </trkpt>
      <trkpt lat="43.80647" lon="6.85663">
        <ele>1181</ele>
        <time>2012-04-02T04:14:59Z</time>
      </trkpt>
      <trkpt lat="43.805" lon="6.85338">
        <ele>1181</ele>
        <time>2012-04-02T04:15:36Z</time>
      </trkpt>
      <trkpt lat="43.80475" lon="6.85274">
        <ele>1180</ele>
        <time>2012-04-02T04:15:43Z</time>
      </trkpt>
      <trkpt lat="43.80397" lon="6.85039">
        <ele>1179</ele>
        <time>2012-04-02T04:16:08Z</time>
      </trkpt>
      <trkpt lat="43.80397" lon="6.85039">
        <ele>1179</ele>
        <time>2012-04-02T04:16:09Z</time>
      </trkpt>
      <trkpt lat="43.80271" lon="6.84664">
        <ele>1176</ele>
        <time>2012-04-02T04:16:49Z</time>
      </trkpt>
      <trkpt lat="43.80246" lon="6.84574">
        <ele>1175</ele>
        <time>2012-04-02T04:16:59Z</time>
      </trkpt>
      <trkpt lat="43.80211" lon="6.84197">
        <ele>1173</ele>
        <time>2012-04-02T04:17:35Z</time>
      </trkpt>
      <trkpt lat="43.80201" lon="6.84139">
        <ele>1172</ele>
        <time>2012-04-02T04:17:41Z</time>
      </trkpt>
      <trkpt lat="43.80176" lon="6.84036">
        <ele>1172</ele>
        <time>2012-04-02T04:17:51Z</time>
      </trkpt>
      <trkpt lat="43.80145" lon="6.83946">
        <ele>1167</ele>
        <time>2012-04-02T04:18:01Z</time>
      </trkpt>
      <trkpt lat="43.80097" lon="6.83845">
        <ele>1163</ele>
        <time>2012-04-02T04:18:13Z</time>
      </trkpt>
      <trkpt lat="43.80081" lon="6.83797">
        <ele>1165</ele>
        <time>2012-04-02T04:18:24Z</time>
      </trkpt>
      <trkpt lat="43.79969" lon="6.83905">
        <ele>1174</ele>
        <time>2012-04-02T04:19:02Z</time>
      </trkpt>
      <trkpt lat="43.79946" lon="6.83918">
        <ele>1174</ele>
        <time>2012-04-02T04:19:06Z</time>
      </trkpt>
      <trkpt lat="43.79896" lon="6.83923">
        <ele>1174</ele>
        <time>2012-04-02T04:19:14Z</time>
      </trkpt>
      <trkpt lat="43.79811" lon="6.83915">
        <ele>1175</ele>
        <time>2012-04-02T04:19:26Z</time>
      </trkpt>
      <trkpt lat="43.79754" lon="6.83919">
        <ele>1175</ele>
        <time>2012-04-02T04:19:36Z</time>
      </trkpt>
      <trkpt lat="43.79634" lon="6.83956">
        <ele>1178</ele>
        <time>2012-04-02T04:19:58Z</time>
      </trkpt>
      <trkpt lat="43.79603" lon="6.83972">
        <ele>1180</ele>
        <time>2012-04-02T04:20:09Z</time>
      </trkpt>
      <trkpt lat="43.7954" lon="6.84034">
        <ele>1188</ele>
        <time>2012-04-02T04:20:36Z</time>
      </trkpt>
      <trkpt lat="43.79512" lon="6.84075">
        <ele>1191</ele>
        <time>2012-04-02T04:20:51Z</time>
      </trkpt>
      <trkpt lat="43.79475" lon="6.84151">
        <ele>1198</ele>
        <time>2012-04-02T04:21:15Z</time>
      </trkpt>
      <trkpt lat="43.79423" lon="6.84212">
        <ele>1205</ele>
        <time>2012-04-02T04:21:41Z</time>
      </trkpt>
      <trkpt lat="43.79324" lon="6.84359">
        <ele>1220</ele>
        <time>2012-04-02T04:22:36Z</time>
      </trkpt>
      <trkpt lat="43.79267" lon="6.84398">
        <ele>1231</ele>
        <time>2012-04-02T04:23:11Z</time>
      </trkpt>
      <trkpt lat="43.79191" lon="6.84468">
        <ele>1247</ele>
        <time>2012-04-02T04:24:01Z</time>
      </trkpt>
      <trkpt lat="43.7913" lon="6.84541">
        <ele>1242</ele>
        <time>2012-04-02T04:24:12Z</time>
      </trkpt>
      <trkpt lat="43.79106" lon="6.84579">
        <ele>1241</ele>
        <time>2012-04-02T04:24:17Z</time>
      </trkpt>
      <trkpt lat="43.79088" lon="6.84622">
        <ele>1235</ele>
        <time>2012-04-02T04:24:22Z</time>
      </trkpt>
      <trkpt lat="43.79075" lon="6.84642">
        <ele>1232</ele>
        <time>2012-04-02T04:24:24Z</time>
      </trkpt>
      <trkpt lat="43.78958" lon="6.84729">
        <ele>1211</ele>
        <time>2012-04-02T04:24:42Z</time>
      </trkpt>
      <trkpt lat="43.78927" lon="6.84746">
        <ele>1207</ele>
        <time>2012-04-02T04:24:47Z</time>
      </trkpt>
      <trkpt lat="43.78885" lon="6.84752">
        <ele>1203</ele>
        <time>2012-04-02T04:24:52Z</time>
      </trkpt>
      <trkpt lat="43.78846" lon="6.84742">
        <ele>1199</ele>
        <time>2012-04-02T04:24:57Z</time>
      </trkpt>
      <trkpt lat="43.78775" lon="6.84688">
        <ele>1187</ele>
        <time>2012-04-02T04:25:08Z</time>
      </trkpt>
      <trkpt lat="43.78769" lon="6.8468">
        <ele>1186</ele>
        <time>2012-04-02T04:25:09Z</time>
      </trkpt>
      <trkpt lat="43.78763" lon="6.84655">
        <ele>1184</ele>
        <time>2012-04-02T04:25:12Z</time>
      </trkpt>
      <trkpt lat="43.78766" lon="6.84627">
        <ele>1189</ele>
        <time>2012-04-02T04:25:27Z</time>
      </trkpt>
      <trkpt lat="43.78796" lon="6.84551">
        <ele>1204</ele>
        <time>2012-04-02T04:26:12Z</time>
      </trkpt>
      <trkpt lat="43.78801" lon="6.84527">
        <ele>1209</ele>
        <time>2012-04-02T04:26:25Z</time>
      </trkpt>
      <trkpt lat="43.78805" lon="6.84486">
        <ele>1211</ele>
        <time>2012-04-02T04:26:35Z</time>
      </trkpt>
      <trkpt lat="43.78808" lon="6.84266">
        <ele>1224</ele>
        <time>2012-04-02T04:27:27Z</time>
      </trkpt>
      <trkpt lat="43.78801" lon="6.84226">
        <ele>1221</ele>
        <time>2012-04-02T04:27:31Z</time>
      </trkpt>
      <trkpt lat="43.78779" lon="6.84168">
        <ele>1218</ele>
        <time>2012-04-02T04:27:37Z</time>
      </trkpt>
      <trkpt lat="43.78766" lon="6.84041">
        <ele>1211</ele>
        <time>2012-04-02T04:27:49Z</time>
      </trkpt>
      <trkpt lat="43.7878" lon="6.8396">
        <ele>1215</ele>
        <time>2012-04-02T04:28:08Z</time>
      </trkpt>
      <trkpt lat="43.78773" lon="6.83805">
        <ele>1224</ele>
        <time>2012-04-02T04:28:44Z</time>
      </trkpt>
      <trkpt lat="43.78743" lon="6.8372">
        <ele>1232</ele>
        <time>2012-04-02T04:29:13Z</time>
      </trkpt>
      <trkpt lat="43.78715" lon="6.8356">
        <ele>1247</ele>
        <time>2012-04-02T04:30:04Z</time>
      </trkpt>
      <trkpt lat="43.78692" lon="6.83489">
        <ele>1237</ele>
        <time>2012-04-02T04:30:11Z</time>
      </trkpt>
      <trkpt lat="43.78671" lon="6.83463">
        <ele>1232</ele>
        <time>2012-04-02T04:30:15Z</time>
      </trkpt>
      <trkpt lat="43.78535" lon="6.83406">
        <ele>1207</ele>
        <time>2012-04-02T04:30:34Z</time>
      </trkpt>
      <trkpt lat="43.78512" lon="6.8339">
        <ele>1203</ele>
        <time>2012-04-02T04:30:37Z</time>
      </trkpt>
      <trkpt lat="43.7829" lon="6.83107">
        <ele>1164</ele>
        <time>2012-04-02T04:31:18Z</time>
      </trkpt>
      <trkpt lat="43.78254" lon="6.83038">
        <ele>1158</ele>
        <time>2012-04-02T04:31:26Z</time>
      </trkpt>
      <trkpt lat="43.78238" lon="6.83028">
        <ele>1157</ele>
        <time>2012-04-02T04:31:28Z</time>
      </trkpt>
      <trkpt lat="43.78213" lon="6.83021">
        <ele>1155</ele>
        <time>2012-04-02T04:31:32Z</time>
      </trkpt>
      <trkpt lat="43.78213" lon="6.83021">
        <ele>1155</ele>
        <time>2012-04-02T04:31:33Z</time>
      </trkpt>
      <trkpt lat="43.78187" lon="6.83001">
        <ele>1155</ele>
        <time>2012-04-02T04:31:37Z</time>
      </trkpt>
      <trkpt lat="43.78167" lon="6.82959">
        <ele>1155</ele>
        <time>2012-04-02T04:31:43Z</time>
      </trkpt>
      <trkpt lat="43.78144" lon="6.82791">
        <ele>1157</ele>
        <time>2012-04-02T04:32:03Z</time>
      </trkpt>
      <trkpt lat="43.78133" lon="6.82772">
        <ele>1156</ele>
        <time>2012-04-02T04:32:05Z</time>
      </trkpt>
      <trkpt lat="43.781" lon="6.8274">
        <ele>1155</ele>
        <time>2012-04-02T04:32:11Z</time>
      </trkpt>
      <trkpt lat="43.78084" lon="6.82718">
        <ele>1155</ele>
        <time>2012-04-02T04:32:14Z</time>
      </trkpt>
      <trkpt lat="43.78057" lon="6.82628">
        <ele>1154</ele>
        <time>2012-04-02T04:32:23Z</time>
      </trkpt>
      <trkpt lat="43.78011" lon="6.82548">
        <ele>1154</ele>
        <time>2012-04-02T04:32:33Z</time>
      </trkpt>
      <trkpt lat="43.77998" lon="6.82507">
        <ele>1154</ele>
        <time>2012-04-02T04:32:37Z</time>
      </trkpt>
      <trkpt lat="43.77987" lon="6.82438">
        <ele>1154</ele>
        <time>2012-04-02T04:32:46Z</time>
      </trkpt>
      <trkpt lat="43.77951" lon="6.82323">
        <ele>1156</ele>
        <time>2012-04-02T04:33:01Z</time>
      </trkpt>
      <trkpt lat="43.77945" lon="6.82313">
        <ele>1153</ele>
        <time>2012-04-02T04:33:02Z</time>
      </trkpt>
      <trkpt lat="43.77925" lon="6.82301">
        <ele>1149</ele>
        <time>2012-04-02T04:33:05Z</time>
      </trkpt>
      <trkpt lat="43.77906" lon="6.82302">
        <ele>1145</ele>
        <time>2012-04-02T04:33:08Z</time>
      </trkpt>
      <trkpt lat="43.77801" lon="6.82351">
        <ele>1121</ele>
        <time>2012-04-02T04:33:22Z</time>
      </trkpt>
      <trkpt lat="43.77785" lon="6.8235">
        <ele>1120</ele>
        <time>2012-04-02T04:33:24Z</time>
      </trkpt>
      <trkpt lat="43.77771" lon="6.82341">
        <ele>1119</ele>
        <time>2012-04-02T04:33:27Z</time>
      </trkpt>
      <trkpt lat="43.77762" lon="6.82323">
        <ele>1118</ele>
        <time>2012-04-02T04:33:29Z</time>
      </trkpt>
      <trkpt lat="43.77756" lon="6.82284">
        <ele>1116</ele>
        <time>2012-04-02T04:33:32Z</time>
      </trkpt>
      <trkpt lat="43.77751" lon="6.82196">
        <ele>1113</ele>
        <time>2012-04-02T04:33:41Z</time>
      </trkpt>
      <trkpt lat="43.77751" lon="6.82118">
        <ele>1118</ele>
        <time>2012-04-02T04:34:03Z</time>
      </trkpt>
      <trkpt lat="43.7776" lon="6.82066">
        <ele>1123</ele>
        <time>2012-04-02T04:34:18Z</time>
      </trkpt>
      <trkpt lat="43.77756" lon="6.82035">
        <ele>1121</ele>
        <time>2012-04-02T04:34:21Z</time>
      </trkpt>
      <trkpt lat="43.77705" lon="6.81968">
        <ele>1116</ele>
        <time>2012-04-02T04:34:30Z</time>
      </trkpt>
      <trkpt lat="43.77658" lon="6.81922">
        <ele>1112</ele>
        <time>2012-04-02T04:34:38Z</time>
      </trkpt>
      <trkpt lat="43.77635" lon="6.81883">
        <ele>1112</ele>
        <time>2012-04-02T04:34:43Z</time>
      </trkpt>
      <trkpt lat="43.77602" lon="6.81866">
        <ele>1112</ele>
        <time>2012-04-02T04:34:47Z</time>
      </trkpt>
      <trkpt lat="43.77602" lon="6.81866">
        <ele>1112</ele>
        <time>2012-04-02T04:34:48Z</time>
      </trkpt>
      <trkpt lat="43.77573" lon="6.81867">
        <ele>1108</ele>
        <time>2012-04-02T04:34:52Z</time>
      </trkpt>
      <trkpt lat="43.77549" lon="6.81883">
        <ele>1104</ele>
        <time>2012-04-02T04:34:56Z</time>
      </trkpt>
      <trkpt lat="43.77527" lon="6.81887">
        <ele>1102</ele>
        <time>2012-04-02T04:34:59Z</time>
      </trkpt>
      <trkpt lat="43.77442" lon="6.81804">
        <ele>1089</ele>
        <time>2012-04-02T04:35:13Z</time>
      </trkpt>
      <trkpt lat="43.77373" lon="6.81757">
        <ele>1081</ele>
        <time>2012-04-02T04:35:23Z</time>
      </trkpt>
      <trkpt lat="43.77365" lon="6.81756">
        <ele>1080</ele>
        <time>2012-04-02T04:35:24Z</time>
      </trkpt>
      <trkpt lat="43.77348" lon="6.81766">
        <ele>1079</ele>
        <time>2012-04-02T04:35:26Z</time>
      </trkpt>
      <trkpt lat="43.77318" lon="6.81764">
        <ele>1076</ele>
        <time>2012-04-02T04:35:30Z</time>
      </trkpt>
      <trkpt lat="43.77276" lon="6.81749">
        <ele>1073</ele>
        <time>2012-04-02T04:35:36Z</time>
      </trkpt>
      <trkpt lat="43.77255" lon="6.81727">
        <ele>1072</ele>
        <time>2012-04-02T04:35:40Z</time>
      </trkpt>
      <trkpt lat="43.77237" lon="6.81719">
        <ele>1070</ele>
        <time>2012-04-02T04:35:42Z</time>
      </trkpt>
      <trkpt lat="43.77162" lon="6.81728">
        <ele>1066</ele>
        <time>2012-04-02T04:35:52Z</time>
      </trkpt>
      <trkpt lat="43.77149" lon="6.81719">
        <ele>1066</ele>
        <time>2012-04-02T04:35:54Z</time>
      </trkpt>
      <trkpt lat="43.77107" lon="6.81663">
        <ele>1066</ele>
        <time>2012-04-02T04:36:02Z</time>
      </trkpt>
      <trkpt lat="43.77085" lon="6.81647">
        <ele>1066</ele>
        <time>2012-04-02T04:36:05Z</time>
      </trkpt>
      <trkpt lat="43.77069" lon="6.81648">
        <ele>1066</ele>
        <time>2012-04-02T04:36:09Z</time>
      </trkpt>
      <trkpt lat="43.77058" lon="6.81659">
        <ele>1067</ele>
        <time>2012-04-02T04:36:12Z</time>
      </trkpt>
      <trkpt lat="43.77052" lon="6.81674">
        <ele>1067</ele>
        <time>2012-04-02T04:36:15Z</time>
      </trkpt>
      <trkpt lat="43.77052" lon="6.81691">
        <ele>1068</ele>
        <time>2012-04-02T04:36:18Z</time>
      </trkpt>
      <trkpt lat="43.77071" lon="6.81724">
        <ele>1069</ele>
        <time>2012-04-02T04:36:26Z</time>
      </trkpt>
      <trkpt lat="43.77159" lon="6.81838">
        <ele>1075</ele>
        <time>2012-04-02T04:36:54Z</time>
      </trkpt>
      <trkpt lat="43.77204" lon="6.81859">
        <ele>1076</ele>
        <time>2012-04-02T04:37:04Z</time>
      </trkpt>
      <trkpt lat="43.77224" lon="6.81875">
        <ele>1076</ele>
        <time>2012-04-02T04:37:08Z</time>
      </trkpt>
      <trkpt lat="43.77291" lon="6.81949">
        <ele>1079</ele>
        <time>2012-04-02T04:37:25Z</time>
      </trkpt>
      <trkpt lat="43.77332" lon="6.82014">
        <ele>1080</ele>
        <time>2012-04-02T04:37:37Z</time>
      </trkpt>
      <trkpt lat="43.77341" lon="6.82042">
        <ele>1081</ele>
        <time>2012-04-02T04:37:42Z</time>
      </trkpt>
      <trkpt lat="43.77345" lon="6.82075">
        <ele>1082</ele>
        <time>2012-04-02T04:37:47Z</time>
      </trkpt>
      <trkpt lat="43.77354" lon="6.82452">
        <ele>1095</ele>
        <time>2012-04-02T04:38:54Z</time>
      </trkpt>
      <trkpt lat="43.77338" lon="6.82537">
        <ele>1094</ele>
        <time>2012-04-02T04:39:03Z</time>
      </trkpt>
      <trkpt lat="43.77363" lon="6.8262">
        <ele>1094</ele>
        <time>2012-04-02T04:39:11Z</time>
      </trkpt>
      <trkpt lat="43.7739" lon="6.82857">
        <ele>1101</ele>
        <time>2012-04-02T04:39:51Z</time>
      </trkpt>
      <trkpt lat="43.77398" lon="6.83032">
        <ele>1110</ele>
        <time>2012-04-02T04:40:30Z</time>
      </trkpt>
      <trkpt lat="43.77422" lon="6.83202">
        <ele>1113</ele>
        <time>2012-04-02T04:40:54Z</time>
      </trkpt>
      <trkpt lat="43.77433" lon="6.83308">
        <ele>1114</ele>
        <time>2012-04-02T04:41:07Z</time>
      </trkpt>
      <trkpt lat="43.77447" lon="6.83505">
        <ele>1116</ele>
        <time>2012-04-02T04:41:30Z</time>
      </trkpt>
      <trkpt lat="43.77445" lon="6.83567">
        <ele>1116</ele>
        <time>2012-04-02T04:41:36Z</time>
      </trkpt>
      <trkpt lat="43.7745" lon="6.83673">
        <ele>1116</ele>
        <time>2012-04-02T04:41:47Z</time>
      </trkpt>
      <trkpt lat="43.77444" lon="6.83701">
        <ele>1118</ele>
        <time>2012-04-02T04:41:56Z</time>
      </trkpt>
      <trkpt lat="43.77436" lon="6.8371">
        <ele>1120</ele>
        <time>2012-04-02T04:42:01Z</time>
      </trkpt>
      <trkpt lat="43.77425" lon="6.83717">
        <ele>1121</ele>
        <time>2012-04-02T04:42:06Z</time>
      </trkpt>
      <trkpt lat="43.77364" lon="6.8373">
        <ele>1130</ele>
        <time>2012-04-02T04:42:34Z</time>
      </trkpt>
      <trkpt lat="43.77352" lon="6.8374">
        <ele>1129</ele>
        <time>2012-04-02T04:42:36Z</time>
      </trkpt>
      <trkpt lat="43.77346" lon="6.83758">
        <ele>1129</ele>
        <time>2012-04-02T04:42:38Z</time>
      </trkpt>
      <trkpt lat="43.77347" lon="6.83778">
        <ele>1129</ele>
        <time>2012-04-02T04:42:40Z</time>
      </trkpt>
      <trkpt lat="43.7736" lon="6.83809">
        <ele>1128</ele>
        <time>2012-04-02T04:42:43Z</time>
      </trkpt>
      <trkpt lat="43.77379" lon="6.83839">
        <ele>1127</ele>
        <time>2012-04-02T04:42:47Z</time>
      </trkpt>
      <trkpt lat="43.77447" lon="6.83904">
        <ele>1126</ele>
        <time>2012-04-02T04:42:58Z</time>
      </trkpt>
      <trkpt lat="43.77486" lon="6.8398">
        <ele>1124</ele>
        <time>2012-04-02T04:43:07Z</time>
      </trkpt>
      <trkpt lat="43.77502" lon="6.84023">
        <ele>1124</ele>
        <time>2012-04-02T04:43:12Z</time>
      </trkpt>
      <trkpt lat="43.77508" lon="6.84072">
        <ele>1126</ele>
        <time>2012-04-02T04:43:23Z</time>
      </trkpt>
      <trkpt lat="43.7749" lon="6.84183">
        <ele>1132</ele>
        <time>2012-04-02T04:43:47Z</time>
      </trkpt>
      <trkpt lat="43.77489" lon="6.8421">
        <ele>1130</ele>
        <time>2012-04-02T04:43:50Z</time>
      </trkpt>
      <trkpt lat="43.77494" lon="6.84229">
        <ele>1129</ele>
        <time>2012-04-02T04:43:51Z</time>
      </trkpt>
      <trkpt lat="43.77518" lon="6.84248">
        <ele>1127</ele>
        <time>2012-04-02T04:43:55Z</time>
      </trkpt>
      <trkpt lat="43.77583" lon="6.8425">
        <ele>1123</ele>
        <time>2012-04-02T04:44:04Z</time>
      </trkpt>
      <trkpt lat="43.77594" lon="6.84256">
        <ele>1122</ele>
        <time>2012-04-02T04:44:05Z</time>
      </trkpt>
      <trkpt lat="43.77604" lon="6.84269">
        <ele>1122</ele>
        <time>2012-04-02T04:44:07Z</time>
      </trkpt>
      <trkpt lat="43.7762" lon="6.84305">
        <ele>1121</ele>
        <time>2012-04-02T04:44:11Z</time>
      </trkpt>
      <trkpt lat="43.77645" lon="6.84407">
        <ele>1120</ele>
        <time>2012-04-02T04:44:22Z</time>
      </trkpt>
      <trkpt lat="43.77658" lon="6.84446">
        <ele>1118</ele>
        <time>2012-04-02T04:44:26Z</time>
      </trkpt>
      <trkpt lat="43.77696" lon="6.84523">
        <ele>1114</ele>
        <time>2012-04-02T04:44:35Z</time>
      </trkpt>
      <trkpt lat="43.77738" lon="6.8483">
        <ele>1115</ele>
        <time>2012-04-02T04:45:07Z</time>
      </trkpt>
      <trkpt lat="43.77733" lon="6.84874">
        <ele>1117</ele>
        <time>2012-04-02T04:45:18Z</time>
      </trkpt>
      <trkpt lat="43.77708" lon="6.84978">
        <ele>1124</ele>
        <time>2012-04-02T04:45:44Z</time>
      </trkpt>
      <trkpt lat="43.7767" lon="6.85036">
        <ele>1126</ele>
        <time>2012-04-02T04:45:58Z</time>
      </trkpt>
      <trkpt lat="43.77647" lon="6.85105">
        <ele>1129</ele>
        <time>2012-04-02T04:46:11Z</time>
      </trkpt>
      <trkpt lat="43.77621" lon="6.8516">
        <ele>1125</ele>
        <time>2012-04-02T04:46:17Z</time>
      </trkpt>
      <trkpt lat="43.77607" lon="6.8525">
        <ele>1121</ele>
        <time>2012-04-02T04:46:26Z</time>
      </trkpt>
      <trkpt lat="43.77596" lon="6.85276">
        <ele>1121</ele>
        <time>2012-04-02T04:46:30Z</time>
      </trkpt>
      <trkpt lat="43.77572" lon="6.85305">
        <ele>1122</ele>
        <time>2012-04-02T04:46:36Z</time>
      </trkpt>
      <trkpt lat="43.77541" lon="6.85326">
        <ele>1122</ele>
        <time>2012-04-02T04:46:42Z</time>
      </trkpt>
      <trkpt lat="43.77498" lon="6.85379">
        <ele>1124</ele>
        <time>2012-04-02T04:46:53Z</time>
      </trkpt>
      <trkpt lat="43.7747" lon="6.85422">
        <ele>1118</ele>
        <time>2012-04-02T04:46:58Z</time>
      </trkpt>
      <trkpt lat="43.77446" lon="6.85478">
        <ele>1113</ele>
        <time>2012-04-02T04:47:04Z</time>
      </trkpt>
      <trkpt lat="43.77397" lon="6.85545">
        <ele>1105</ele>
        <time>2012-04-02T04:47:14Z</time>
      </trkpt>
      <trkpt lat="43.77384" lon="6.8555">
        <ele>1106</ele>
        <time>2012-04-02T04:47:20Z</time>
      </trkpt>
      <trkpt lat="43.77344" lon="6.85547">
        <ele>1112</ele>
        <time>2012-04-02T04:47:39Z</time>
      </trkpt>
      <trkpt lat="43.77272" lon="6.85523">
        <ele>1123</ele>
        <time>2012-04-02T04:48:14Z</time>
      </trkpt>
      <trkpt lat="43.77225" lon="6.85523">
        <ele>1123</ele>
        <time>2012-04-02T04:48:22Z</time>
      </trkpt>
      <trkpt lat="43.77041" lon="6.85574">
        <ele>1126</ele>
        <time>2012-04-02T04:48:52Z</time>
      </trkpt>
      <trkpt lat="43.76877" lon="6.8564">
        <ele>1110</ele>
        <time>2012-04-02T04:49:15Z</time>
      </trkpt>
      <trkpt lat="43.76758" lon="6.85674">
        <ele>1102</ele>
        <time>2012-04-02T04:49:32Z</time>
      </trkpt>
      <trkpt lat="43.76721" lon="6.85669">
        <ele>1105</ele>
        <time>2012-04-02T04:49:46Z</time>
      </trkpt>
      <trkpt lat="43.76569" lon="6.8559">
        <ele>1123</ele>
        <time>2012-04-02T04:50:49Z</time>
      </trkpt>
      <trkpt lat="43.76505" lon="6.85574">
        <ele>1134</ele>
        <time>2012-04-02T04:51:24Z</time>
      </trkpt>
      <trkpt lat="43.76466" lon="6.85578">
        <ele>1141</ele>
        <time>2012-04-02T04:51:46Z</time>
      </trkpt>
      <trkpt lat="43.76407" lon="6.85607">
        <ele>1143</ele>
        <time>2012-04-02T04:52:00Z</time>
      </trkpt>
      <trkpt lat="43.76373" lon="6.85632">
        <ele>1145</ele>
        <time>2012-04-02T04:52:09Z</time>
      </trkpt>
      <trkpt lat="43.76319" lon="6.85716">
        <ele>1132</ele>
        <time>2012-04-02T04:52:20Z</time>
      </trkpt>
      <trkpt lat="43.76276" lon="6.85798">
        <ele>1122</ele>
        <time>2012-04-02T04:52:29Z</time>
      </trkpt>
      <trkpt lat="43.76254" lon="6.85816">
        <ele>1125</ele>
        <time>2012-04-02T04:52:42Z</time>
      </trkpt>
      <trkpt lat="43.7618" lon="6.85836">
        <ele>1137</ele>
        <time>2012-04-02T04:53:19Z</time>
      </trkpt>
      <trkpt lat="43.76162" lon="6.85859">
        <ele>1136</ele>
        <time>2012-04-02T04:53:22Z</time>
      </trkpt>
      <trkpt lat="43.76148" lon="6.85895">
        <ele>1136</ele>
        <time>2012-04-02T04:53:26Z</time>
      </trkpt>
      <trkpt lat="43.76139" lon="6.85892">
        <ele>1136</ele>
        <time>2012-04-02T04:53:27Z</time>
      </trkpt>
      <trkpt lat="43.76121" lon="6.85917">
        <ele>1136</ele>
        <time>2012-04-02T04:53:31Z</time>
      </trkpt>
      <trkpt lat="43.76105" lon="6.85915">
        <ele>1136</ele>
        <time>2012-04-02T04:53:33Z</time>
      </trkpt>
      <trkpt lat="43.76105" lon="6.85915">
        <ele>1136</ele>
        <time>2012-04-02T04:53:34Z</time>
      </trkpt>
      <trkpt lat="43.76121" lon="6.85917">
        <ele>1136</ele>
        <time>2012-04-02T04:53:38Z</time>
      </trkpt>
      <trkpt lat="43.76139" lon="6.85892">
        <ele>1138</ele>
        <time>2012-04-02T04:53:45Z</time>
      </trkpt>
      <trkpt lat="43.76148" lon="6.85895">
        <ele>1138</ele>
        <time>2012-04-02T04:53:47Z</time>
      </trkpt>
      <trkpt lat="43.76121" lon="6.85967">
        <ele>1141</ele>
        <time>2012-04-02T04:54:02Z</time>
      </trkpt>
      <trkpt lat="43.76105" lon="6.85991">
        <ele>1143</ele>
        <time>2012-04-02T04:54:09Z</time>
      </trkpt>
      <trkpt lat="43.76081" lon="6.85991">
        <ele>1144</ele>
        <time>2012-04-02T04:54:15Z</time>
      </trkpt>
      <trkpt lat="43.76029" lon="6.85953">
        <ele>1147</ele>
        <time>2012-04-02T04:54:30Z</time>
      </trkpt>
      <trkpt lat="43.75999" lon="6.85955">
        <ele>1149</ele>
        <time>2012-04-02T04:54:38Z</time>
      </trkpt>
      <trkpt lat="43.75978" lon="6.85972">
        <ele>1143</ele>
        <time>2012-04-02T04:54:41Z</time>
      </trkpt>
      <trkpt lat="43.75967" lon="6.85991">
        <ele>1140</ele>
        <time>2012-04-02T04:54:44Z</time>
      </trkpt>
      <trkpt lat="43.75959" lon="6.8602">
        <ele>1135</ele>
        <time>2012-04-02T04:54:47Z</time>
      </trkpt>
      <trkpt lat="43.75955" lon="6.86092">
        <ele>1125</ele>
        <time>2012-04-02T04:54:54Z</time>
      </trkpt>
      <trkpt lat="43.75944" lon="6.86136">
        <ele>1122</ele>
        <time>2012-04-02T04:54:58Z</time>
      </trkpt>
      <trkpt lat="43.75919" lon="6.86201">
        <ele>1117</ele>
        <time>2012-04-02T04:55:05Z</time>
      </trkpt>
      <trkpt lat="43.75894" lon="6.86306">
        <ele>1111</ele>
        <time>2012-04-02T04:55:16Z</time>
      </trkpt>
      <trkpt lat="43.75886" lon="6.86323">
        <ele>1110</ele>
        <time>2012-04-02T04:55:18Z</time>
      </trkpt>
      <trkpt lat="43.75818" lon="6.86412">
        <ele>1106</ele>
        <time>2012-04-02T04:55:30Z</time>
      </trkpt>
      <trkpt lat="43.7576" lon="6.86463">
        <ele>1099</ele>
        <time>2012-04-02T04:55:39Z</time>
      </trkpt>
      <trkpt lat="43.75745" lon="6.86483">
        <ele>1097</ele>
        <time>2012-04-02T04:55:42Z</time>
      </trkpt>
      <trkpt lat="43.75732" lon="6.86506">
        <ele>1095</ele>
        <time>2012-04-02T04:55:45Z</time>
      </trkpt>
      <trkpt lat="43.75708" lon="6.86567">
        <ele>1098</ele>
        <time>2012-04-02T04:55:59Z</time>
      </trkpt>
      <trkpt lat="43.75631" lon="6.86685">
        <ele>1105</ele>
        <time>2012-04-02T04:56:31Z</time>
      </trkpt>
      <trkpt lat="43.75555" lon="6.86744">
        <ele>1091</ele>
        <time>2012-04-02T04:56:43Z</time>
      </trkpt>
      <trkpt lat="43.75543" lon="6.86759">
        <ele>1089</ele>
        <time>2012-04-02T04:56:45Z</time>
      </trkpt>
      <trkpt lat="43.755" lon="6.86868">
        <ele>1095</ele>
        <time>2012-04-02T04:57:13Z</time>
      </trkpt>
      <trkpt lat="43.75467" lon="6.86916">
        <ele>1099</ele>
        <time>2012-04-02T04:57:27Z</time>
      </trkpt>
      <trkpt lat="43.75411" lon="6.86979">
        <ele>1091</ele>
        <time>2012-04-02T04:57:37Z</time>
      </trkpt>
      <trkpt lat="43.75384" lon="6.86997">
        <ele>1088</ele>
        <time>2012-04-02T04:57:41Z</time>
      </trkpt>
      <trkpt lat="43.75365" lon="6.87003">
        <ele>1085</ele>
        <time>2012-04-02T04:57:43Z</time>
      </trkpt>
      <trkpt lat="43.75312" lon="6.87001">
        <ele>1080</ele>
        <time>2012-04-02T04:57:51Z</time>
      </trkpt>
      <trkpt lat="43.75203" lon="6.87038">
        <ele>1068</ele>
        <time>2012-04-02T04:58:06Z</time>
      </trkpt>
      <trkpt lat="43.75193" lon="6.87051">
        <ele>1068</ele>
        <time>2012-04-02T04:58:10Z</time>
      </trkpt>
      <trkpt lat="43.75154" lon="6.87135">
        <ele>1074</ele>
        <time>2012-04-02T04:58:31Z</time>
      </trkpt>
      <trkpt lat="43.75108" lon="6.8721">
        <ele>1079</ele>
        <time>2012-04-02T04:58:53Z</time>
      </trkpt>
      <trkpt lat="43.75086" lon="6.87255">
        <ele>1077</ele>
        <time>2012-04-02T04:58:58Z</time>
      </trkpt>
      <trkpt lat="43.75076" lon="6.8726">
        <ele>1077</ele>
        <time>2012-04-02T04:59:00Z</time>
      </trkpt>
      <trkpt lat="43.75065" lon="6.87254">
        <ele>1076</ele>
        <time>2012-04-02T04:59:01Z</time>
      </trkpt>
      <trkpt lat="43.75058" lon="6.87242">
        <ele>1076</ele>
        <time>2012-04-02T04:59:03Z</time>
      </trkpt>
      <trkpt lat="43.75058" lon="6.87221">
        <ele>1075</ele>
        <time>2012-04-02T04:59:05Z</time>
      </trkpt>
      <trkpt lat="43.75091" lon="6.87103">
        <ele>1072</ele>
        <time>2012-04-02T04:59:17Z</time>
      </trkpt>
      <trkpt lat="43.75116" lon="6.87">
        <ele>1070</ele>
        <time>2012-04-02T04:59:27Z</time>
      </trkpt>
      <trkpt lat="43.75117" lon="6.86984">
        <ele>1068</ele>
        <time>2012-04-02T04:59:29Z</time>
      </trkpt>
      <trkpt lat="43.75117" lon="6.86965">
        <ele>1066</ele>
        <time>2012-04-02T04:59:31Z</time>
      </trkpt>
      <trkpt lat="43.75112" lon="6.86945">
        <ele>1065</ele>
        <time>2012-04-02T04:59:33Z</time>
      </trkpt>
      <trkpt lat="43.75102" lon="6.8693">
        <ele>1063</ele>
        <time>2012-04-02T04:59:35Z</time>
      </trkpt>
      <trkpt lat="43.75087" lon="6.8692">
        <ele>1061</ele>
        <time>2012-04-02T04:59:37Z</time>
      </trkpt>
      <trkpt lat="43.75061" lon="6.86922">
        <ele>1058</ele>
        <time>2012-04-02T04:59:40Z</time>
      </trkpt>
      <trkpt lat="43.75027" lon="6.86942">
        <ele>1054</ele>
        <time>2012-04-02T04:59:45Z</time>
      </trkpt>
      <trkpt lat="43.7499" lon="6.86979">
        <ele>1056</ele>
        <time>2012-04-02T04:59:58Z</time>
      </trkpt>
      <trkpt lat="43.74938" lon="6.87041">
        <ele>1061</ele>
        <time>2012-04-02T05:00:17Z</time>
      </trkpt>
      <trkpt lat="43.74913" lon="6.87058">
        <ele>1058</ele>
        <time>2012-04-02T05:00:21Z</time>
      </trkpt>
      <trkpt lat="43.74822" lon="6.87054">
        <ele>1052</ele>
        <time>2012-04-02T05:00:33Z</time>
      </trkpt>
      <trkpt lat="43.74751" lon="6.87074">
        <ele>1053</ele>
        <time>2012-04-02T05:00:46Z</time>
      </trkpt>
      <trkpt lat="43.74706" lon="6.87065">
        <ele>1054</ele>
        <time>2012-04-02T05:00:54Z</time>
      </trkpt>
      <trkpt lat="43.74648" lon="6.87074">
        <ele>1043</ele>
        <time>2012-04-02T05:01:02Z</time>
      </trkpt>
      <trkpt lat="43.74628" lon="6.87068">
        <ele>1039</ele>
        <time>2012-04-02T05:01:04Z</time>
      </trkpt>
      <trkpt lat="43.74569" lon="6.87022">
        <ele>1027</ele>
        <time>2012-04-02T05:01:13Z</time>
      </trkpt>
      <trkpt lat="43.74553" lon="6.87017">
        <ele>1025</ele>
        <time>2012-04-02T05:01:16Z</time>
      </trkpt>
      <trkpt lat="43.74532" lon="6.87019">
        <ele>1022</ele>
        <time>2012-04-02T05:01:18Z</time>
      </trkpt>
      <trkpt lat="43.7447" lon="6.87046">
        <ele>1015</ele>
        <time>2012-04-02T05:01:27Z</time>
      </trkpt>
      <trkpt lat="43.74457" lon="6.87058">
        <ele>1015</ele>
        <time>2012-04-02T05:01:30Z</time>
      </trkpt>
      <trkpt lat="43.74431" lon="6.87096">
        <ele>1016</ele>
        <time>2012-04-02T05:01:37Z</time>
      </trkpt>
      <trkpt lat="43.74322" lon="6.87157">
        <ele>1019</ele>
        <time>2012-04-02T05:02:00Z</time>
      </trkpt>
      <trkpt lat="43.74252" lon="6.87166">
        <ele>1005</ele>
        <time>2012-04-02T05:02:09Z</time>
      </trkpt>
      <trkpt lat="43.7423" lon="6.87174">
        <ele>1001</ele>
        <time>2012-04-02T05:02:12Z</time>
      </trkpt>
      <trkpt lat="43.74211" lon="6.87201">
        <ele>1002</ele>
        <time>2012-04-02T05:02:19Z</time>
      </trkpt>
      <trkpt lat="43.74157" lon="6.87305">
        <ele>1008</ele>
        <time>2012-04-02T05:02:45Z</time>
      </trkpt>
      <trkpt lat="43.74098" lon="6.8739">
        <ele>1017</ele>
        <time>2012-04-02T05:03:19Z</time>
      </trkpt>
      <trkpt lat="43.74078" lon="6.87439">
        <ele>1022</ele>
        <time>2012-04-02T05:03:35Z</time>
      </trkpt>
      <trkpt lat="43.74067" lon="6.87453">
        <ele>1019</ele>
        <time>2012-04-02T05:03:37Z</time>
      </trkpt>
      <trkpt lat="43.74049" lon="6.87458">
        <ele>1016</ele>
        <time>2012-04-02T05:03:40Z</time>
      </trkpt>
      <trkpt lat="43.74001" lon="6.87456">
        <ele>1009</ele>
        <time>2012-04-02T05:03:46Z</time>
      </trkpt>
      <trkpt lat="43.73972" lon="6.8746">
        <ele>1005</ele>
        <time>2012-04-02T05:03:50Z</time>
      </trkpt>
      <trkpt lat="43.73937" lon="6.87479">
        <ele>1011</ele>
        <time>2012-04-02T05:04:11Z</time>
      </trkpt>
      <trkpt lat="43.7391" lon="6.87501">
        <ele>1017</ele>
        <time>2012-04-02T05:04:29Z</time>
      </trkpt>
      <trkpt lat="43.7388" lon="6.87542">
        <ele>1025</ele>
        <time>2012-04-02T05:04:53Z</time>
      </trkpt>
      <trkpt lat="43.73833" lon="6.87592">
        <ele>1033</ele>
        <time>2012-04-02T05:05:21Z</time>
      </trkpt>
      <trkpt lat="43.73807" lon="6.87609">
        <ele>1037</ele>
        <time>2012-04-02T05:05:34Z</time>
      </trkpt>
      <trkpt lat="43.73774" lon="6.87616">
        <ele>1042</ele>
        <time>2012-04-02T05:05:50Z</time>
      </trkpt>
      <trkpt lat="43.73583" lon="6.87579">
        <ele>1023</ele>
        <time>2012-04-02T05:06:16Z</time>
      </trkpt>
      <trkpt lat="43.73528" lon="6.87578">
        <ele>1030</ele>
        <time>2012-04-02T05:06:41Z</time>
      </trkpt>
      <trkpt lat="43.73464" lon="6.87592">
        <ele>1039</ele>
        <time>2012-04-02T05:07:10Z</time>
      </trkpt>
      <trkpt lat="43.73427" lon="6.87593">
        <ele>1040</ele>
        <time>2012-04-02T05:07:20Z</time>
      </trkpt>
      <trkpt lat="43.73335" lon="6.87572">
        <ele>1046</ele>
        <time>2012-04-02T05:07:44Z</time>
      </trkpt>
      <trkpt lat="43.73264" lon="6.87546">
        <ele>1048</ele>
        <time>2012-04-02T05:08:01Z</time>
      </trkpt>
      <trkpt lat="43.73196" lon="6.87501">
        <ele>1052</ele>
        <time>2012-04-02T05:08:18Z</time>
      </trkpt>
      <trkpt lat="43.73034" lon="6.87368">
        <ele>1061</ele>
        <time>2012-04-02T05:09:05Z</time>
      </trkpt>
      <trkpt lat="43.72899" lon="6.87274">
        <ele>1084</ele>
        <time>2012-04-02T05:10:21Z</time>
      </trkpt>
      <trkpt lat="43.72866" lon="6.87248">
        <ele>1085</ele>
        <time>2012-04-02T05:10:29Z</time>
      </trkpt>
      <trkpt lat="43.72824" lon="6.87205">
        <ele>1087</ele>
        <time>2012-04-02T05:10:40Z</time>
      </trkpt>
      <trkpt lat="43.7276" lon="6.8712">
        <ele>1079</ele>
        <time>2012-04-02T05:10:52Z</time>
      </trkpt>
      <trkpt lat="43.72715" lon="6.87043">
        <ele>1074</ele>
        <time>2012-04-02T05:11:01Z</time>
      </trkpt>
      <trkpt lat="43.72677" lon="6.86937">
        <ele>1052</ele>
        <time>2012-04-02T05:11:13Z</time>
      </trkpt>
      <trkpt lat="43.72661" lon="6.8691">
        <ele>1046</ele>
        <time>2012-04-02T05:11:16Z</time>
      </trkpt>
      <trkpt lat="43.72645" lon="6.86897">
        <ele>1046</ele>
        <time>2012-04-02T05:11:19Z</time>
      </trkpt>
      <trkpt lat="43.72619" lon="6.86886">
        <ele>1046</ele>
        <time>2012-04-02T05:11:24Z</time>
      </trkpt>
      <trkpt lat="43.72535" lon="6.86902">
        <ele>1048</ele>
        <time>2012-04-02T05:11:38Z</time>
      </trkpt>
      <trkpt lat="43.72423" lon="6.86902">
        <ele>1050</ele>
        <time>2012-04-02T05:11:58Z</time>
      </trkpt>
      <trkpt lat="43.72339" lon="6.8694">
        <ele>1074</ele>
        <time>2012-04-02T05:13:08Z</time>
      </trkpt>
      <trkpt lat="43.72293" lon="6.86949">
        <ele>1087</ele>
        <time>2012-04-02T05:13:45Z</time>
      </trkpt>
      <trkpt lat="43.72282" lon="6.86943">
        <ele>1084</ele>
        <time>2012-04-02T05:13:46Z</time>
      </trkpt>
      <trkpt lat="43.72275" lon="6.8693">
        <ele>1081</ele>
        <time>2012-04-02T05:13:48Z</time>
      </trkpt>
      <trkpt lat="43.72283" lon="6.8685">
        <ele>1066</ele>
        <time>2012-04-02T05:13:56Z</time>
      </trkpt>
      <trkpt lat="43.72276" lon="6.86717">
        <ele>1042</ele>
        <time>2012-04-02T05:14:09Z</time>
      </trkpt>
      <trkpt lat="43.72269" lon="6.86691">
        <ele>1039</ele>
        <time>2012-04-02T05:14:11Z</time>
      </trkpt>
      <trkpt lat="43.72259" lon="6.86674">
        <ele>1037</ele>
        <time>2012-04-02T05:14:14Z</time>
      </trkpt>
      <trkpt lat="43.72241" lon="6.86658">
        <ele>1034</ele>
        <time>2012-04-02T05:14:16Z</time>
      </trkpt>
      <trkpt lat="43.72192" lon="6.8663">
        <ele>1027</ele>
        <time>2012-04-02T05:14:23Z</time>
      </trkpt>
      <trkpt lat="43.72116" lon="6.866">
        <ele>1021</ele>
        <time>2012-04-02T05:14:34Z</time>
      </trkpt>
      <trkpt lat="43.72052" lon="6.86592">
        <ele>1017</ele>
        <time>2012-04-02T05:14:43Z</time>
      </trkpt>
      <trkpt lat="43.7201" lon="6.86594">
        <ele>1022</ele>
        <time>2012-04-02T05:15:01Z</time>
      </trkpt>
      <trkpt lat="43.7198" lon="6.86598">
        <ele>1026</ele>
        <time>2012-04-02T05:15:15Z</time>
      </trkpt>
      <trkpt lat="43.71884" lon="6.86625">
        <ele>1039</ele>
        <time>2012-04-02T05:15:58Z</time>
      </trkpt>
      <trkpt lat="43.71693" lon="6.86574">
        <ele>1031</ele>
        <time>2012-04-02T05:16:24Z</time>
      </trkpt>
      <trkpt lat="43.71608" lon="6.8654">
        <ele>1033</ele>
        <time>2012-04-02T05:16:41Z</time>
      </trkpt>
      <trkpt lat="43.71579" lon="6.86523">
        <ele>1034</ele>
        <time>2012-04-02T05:16:47Z</time>
      </trkpt>
      <trkpt lat="43.71478" lon="6.86461">
        <ele>1037</ele>
        <time>2012-04-02T05:17:09Z</time>
      </trkpt>
      <trkpt lat="43.7144" lon="6.86423">
        <ele>1037</ele>
        <time>2012-04-02T05:17:16Z</time>
      </trkpt>
      <trkpt lat="43.7144" lon="6.86423">
        <ele>1037</ele>
        <time>2012-04-02T05:17:17Z</time>
      </trkpt>
      <trkpt lat="43.71416" lon="6.86393">
        <ele>1040</ele>
        <time>2012-04-02T05:17:29Z</time>
      </trkpt>
      <trkpt lat="43.71407" lon="6.86388">
        <ele>1041</ele>
        <time>2012-04-02T05:17:32Z</time>
      </trkpt>
      <trkpt lat="43.71357" lon="6.86385">
        <ele>1046</ele>
        <time>2012-04-02T05:17:51Z</time>
      </trkpt>
      <trkpt lat="43.71329" lon="6.86389">
        <ele>1049</ele>
        <time>2012-04-02T05:18:01Z</time>
      </trkpt>
      <trkpt lat="43.71289" lon="6.86412">
        <ele>1045</ele>
        <time>2012-04-02T05:18:07Z</time>
      </trkpt>
      <trkpt lat="43.7111" lon="6.86567">
        <ele>1028</ele>
        <time>2012-04-02T05:18:35Z</time>
      </trkpt>
      <trkpt lat="43.71069" lon="6.86585">
        <ele>1020</ele>
        <time>2012-04-02T05:18:41Z</time>
      </trkpt>
      <trkpt lat="43.70973" lon="6.86581">
        <ele>1004</ele>
        <time>2012-04-02T05:18:54Z</time>
      </trkpt>
      <trkpt lat="43.70952" lon="6.86571">
        <ele>1001</ele>
        <time>2012-04-02T05:18:57Z</time>
      </trkpt>
      <trkpt lat="43.70933" lon="6.86553">
        <ele>999</ele>
        <time>2012-04-02T05:19:00Z</time>
      </trkpt>
      <trkpt lat="43.70924" lon="6.86538">
        <ele>998</ele>
        <time>2012-04-02T05:19:02Z</time>
      </trkpt>
      <trkpt lat="43.70916" lon="6.86511">
        <ele>996</ele>
        <time>2012-04-02T05:19:05Z</time>
      </trkpt>
      <trkpt lat="43.70896" lon="6.86289">
        <ele>981</ele>
        <time>2012-04-02T05:19:26Z</time>
      </trkpt>
      <trkpt lat="43.70895" lon="6.86207">
        <ele>974</ele>
        <time>2012-04-02T05:19:34Z</time>
      </trkpt>
      <trkpt lat="43.70901" lon="6.86126">
        <ele>968</ele>
        <time>2012-04-02T05:19:42Z</time>
      </trkpt>
      <trkpt lat="43.70896" lon="6.85944">
        <ele>948</ele>
        <time>2012-04-02T05:20:00Z</time>
      </trkpt>
      <trkpt lat="43.70886" lon="6.85873">
        <ele>932</ele>
        <time>2012-04-02T05:20:07Z</time>
      </trkpt>
      <trkpt lat="43.70869" lon="6.85818">
        <ele>920</ele>
        <time>2012-04-02T05:20:12Z</time>
      </trkpt>
      <trkpt lat="43.70869" lon="6.85804">
        <ele>920</ele>
        <time>2012-04-02T05:20:15Z</time>
      </trkpt>
      <trkpt lat="43.70874" lon="6.85714">
        <ele>922</ele>
        <time>2012-04-02T05:20:28Z</time>
      </trkpt>
      <trkpt lat="43.70901" lon="6.85581">
        <ele>925</ele>
        <time>2012-04-02T05:20:48Z</time>
      </trkpt>
      <trkpt lat="43.70947" lon="6.85448">
        <ele>947</ele>
        <time>2012-04-02T05:21:55Z</time>
      </trkpt>
      <trkpt lat="43.70957" lon="6.85392">
        <ele>950</ele>
        <time>2012-04-02T05:22:10Z</time>
      </trkpt>
      <trkpt lat="43.70956" lon="6.85364">
        <ele>952</ele>
        <time>2012-04-02T05:22:17Z</time>
      </trkpt>
      <trkpt lat="43.70945" lon="6.85315">
        <ele>956</ele>
        <time>2012-04-02T05:22:30Z</time>
      </trkpt>
      <trkpt lat="43.70897" lon="6.85181">
        <ele>937</ele>
        <time>2012-04-02T05:22:44Z</time>
      </trkpt>
      <trkpt lat="43.70893" lon="6.85183">
        <ele>937</ele>
        <time>2012-04-02T05:22:45Z</time>
      </trkpt>
      <trkpt lat="43.70892" lon="6.85191">
        <ele>937</ele>
        <time>2012-04-02T05:22:47Z</time>
      </trkpt>
      <trkpt lat="43.70915" lon="6.8527">
        <ele>941</ele>
        <time>2012-04-02T05:23:05Z</time>
      </trkpt>
      <trkpt lat="43.70926" lon="6.8534">
        <ele>945</ele>
        <time>2012-04-02T05:23:20Z</time>
      </trkpt>
      <trkpt lat="43.70922" lon="6.8539">
        <ele>934</ele>
        <time>2012-04-02T05:23:25Z</time>
      </trkpt>
      <trkpt lat="43.70903" lon="6.85442">
        <ele>921</ele>
        <time>2012-04-02T05:23:30Z</time>
      </trkpt>
      <trkpt lat="43.70843" lon="6.85547">
        <ele>892</ele>
        <time>2012-04-02T05:23:43Z</time>
      </trkpt>
      <trkpt lat="43.70771" lon="6.85758">
        <ele>869</ele>
        <time>2012-04-02T05:24:06Z</time>
      </trkpt>
      <trkpt lat="43.70759" lon="6.8581">
        <ele>871</ele>
        <time>2012-04-02T05:24:18Z</time>
      </trkpt>
      <trkpt lat="43.70739" lon="6.85937">
        <ele>879</ele>
        <time>2012-04-02T05:24:48Z</time>
      </trkpt>
      <trkpt lat="43.70697" lon="6.86071">
        <ele>893</ele>
        <time>2012-04-02T05:25:35Z</time>
      </trkpt>
      <trkpt lat="43.70683" lon="6.86088">
        <ele>892</ele>
        <time>2012-04-02T05:25:38Z</time>
      </trkpt>
      <trkpt lat="43.70665" lon="6.86091">
        <ele>891</ele>
        <time>2012-04-02T05:25:40Z</time>
      </trkpt>
      <trkpt lat="43.70655" lon="6.86078">
        <ele>891</ele>
        <time>2012-04-02T05:25:42Z</time>
      </trkpt>
      <trkpt lat="43.70645" lon="6.86042">
        <ele>890</ele>
        <time>2012-04-02T05:25:46Z</time>
      </trkpt>
      <trkpt lat="43.70632" lon="6.85916">
        <ele>888</ele>
        <time>2012-04-02T05:25:58Z</time>
      </trkpt>
      <trkpt lat="43.706" lon="6.85768">
        <ele>882</ele>
        <time>2012-04-02T05:26:13Z</time>
      </trkpt>
      <trkpt lat="43.70592" lon="6.85684">
        <ele>872</ele>
        <time>2012-04-02T05:26:21Z</time>
      </trkpt>
      <trkpt lat="43.7059" lon="6.85571">
        <ele>860</ele>
        <time>2012-04-02T05:26:32Z</time>
      </trkpt>
      <trkpt lat="43.70564" lon="6.85418">
        <ele>839</ele>
        <time>2012-04-02T05:26:47Z</time>
      </trkpt>
      <trkpt lat="43.7054" lon="6.85355">
        <ele>833</ele>
        <time>2012-04-02T05:26:54Z</time>
      </trkpt>
      <trkpt lat="43.70514" lon="6.85325">
        <ele>830</ele>
        <time>2012-04-02T05:26:59Z</time>
      </trkpt>
      <trkpt lat="43.70448" lon="6.85312">
        <ele>823</ele>
        <time>2012-04-02T05:27:08Z</time>
      </trkpt>
      <trkpt lat="43.70414" lon="6.85317">
        <ele>821</ele>
        <time>2012-04-02T05:27:12Z</time>
      </trkpt>
      <trkpt lat="43.70134" lon="6.85443">
        <ele>805</ele>
        <time>2012-04-02T05:27:52Z</time>
      </trkpt>
      <trkpt lat="43.70061" lon="6.85457">
        <ele>795</ele>
        <time>2012-04-02T05:28:01Z</time>
      </trkpt>
      <trkpt lat="43.70006" lon="6.85487">
        <ele>788</ele>
        <time>2012-04-02T05:28:09Z</time>
      </trkpt>
      <trkpt lat="43.69961" lon="6.85529">
        <ele>788</ele>
        <time>2012-04-02T05:28:18Z</time>
      </trkpt>
      <trkpt lat="43.69922" lon="6.8558">
        <ele>789</ele>
        <time>2012-04-02T05:28:26Z</time>
      </trkpt>
      <trkpt lat="43.69918" lon="6.8558">
        <ele>788</ele>
        <time>2012-04-02T05:28:27Z</time>
      </trkpt>
      <trkpt lat="43.69913" lon="6.85577">
        <ele>788</ele>
        <time>2012-04-02T05:28:27Z</time>
      </trkpt>
      <trkpt lat="43.69915" lon="6.85566">
        <ele>787</ele>
        <time>2012-04-02T05:28:28Z</time>
      </trkpt>
      <trkpt lat="43.70049" lon="6.85347">
        <ele>771</ele>
        <time>2012-04-02T05:28:56Z</time>
      </trkpt>
      <trkpt lat="43.7017" lon="6.85189">
        <ele>764</ele>
        <time>2012-04-02T05:29:18Z</time>
      </trkpt>
      <trkpt lat="43.70262" lon="6.85048">
        <ele>757</ele>
        <time>2012-04-02T05:29:37Z</time>
      </trkpt>
      <trkpt lat="43.7031" lon="6.84993">
        <ele>751</ele>
        <time>2012-04-02T05:29:45Z</time>
      </trkpt>
      <trkpt lat="43.70318" lon="6.84967">
        <ele>750</ele>
        <time>2012-04-02T05:29:48Z</time>
      </trkpt>
      <trkpt lat="43.70317" lon="6.84847">
        <ele>743</ele>
        <time>2012-04-02T05:29:59Z</time>
      </trkpt>
      <trkpt lat="43.70276" lon="6.8484">
        <ele>739</ele>
        <time>2012-04-02T05:30:05Z</time>
      </trkpt>
      <trkpt lat="43.70222" lon="6.84816">
        <ele>735</ele>
        <time>2012-04-02T05:30:12Z</time>
      </trkpt>
      <trkpt lat="43.70203" lon="6.84813">
        <ele>733</ele>
        <time>2012-04-02T05:30:15Z</time>
      </trkpt>
      <trkpt lat="43.70188" lon="6.84819">
        <ele>731</ele>
        <time>2012-04-02T05:30:17Z</time>
      </trkpt>
      <trkpt lat="43.7017" lon="6.84834">
        <ele>729</ele>
        <time>2012-04-02T05:30:20Z</time>
      </trkpt>
      <trkpt lat="43.70127" lon="6.84882">
        <ele>724</ele>
        <time>2012-04-02T05:30:27Z</time>
      </trkpt>
      <trkpt lat="43.70093" lon="6.84893">
        <ele>721</ele>
        <time>2012-04-02T05:30:32Z</time>
      </trkpt>
      <trkpt lat="43.6995" lon="6.84844">
        <ele>713</ele>
        <time>2012-04-02T05:30:52Z</time>
      </trkpt>
      <trkpt lat="43.6995" lon="6.84825">
        <ele>712</ele>
        <time>2012-04-02T05:30:53Z</time>
      </trkpt>
      <trkpt lat="43.69935" lon="6.84792">
        <ele>710</ele>
        <time>2012-04-02T05:30:57Z</time>
      </trkpt>
      <trkpt lat="43.69901" lon="6.8476">
        <ele>708</ele>
        <time>2012-04-02T05:31:03Z</time>
      </trkpt>
      <trkpt lat="43.69882" lon="6.84748">
        <ele>707</ele>
        <time>2012-04-02T05:31:05Z</time>
      </trkpt>
      <trkpt lat="43.69854" lon="6.84697">
        <ele>704</ele>
        <time>2012-04-02T05:31:12Z</time>
      </trkpt>
      <trkpt lat="43.698" lon="6.84567">
        <ele>699</ele>
        <time>2012-04-02T05:31:26Z</time>
      </trkpt>
      <trkpt lat="43.6977" lon="6.84539">
        <ele>698</ele>
        <time>2012-04-02T05:31:31Z</time>
      </trkpt>
      <trkpt lat="43.69732" lon="6.84473">
        <ele>697</ele>
        <time>2012-04-02T05:31:39Z</time>
      </trkpt>
      <trkpt lat="43.69679" lon="6.84413">
        <ele>696</ele>
        <time>2012-04-02T05:31:48Z</time>
      </trkpt>
      <trkpt lat="43.69658" lon="6.84383">
        <ele>696</ele>
        <time>2012-04-02T05:31:52Z</time>
      </trkpt>
      <trkpt lat="43.69627" lon="6.84303">
        <ele>691</ele>
        <time>2012-04-02T05:32:01Z</time>
      </trkpt>
      <trkpt lat="43.69578" lon="6.84275">
        <ele>687</ele>
        <time>2012-04-02T05:32:08Z</time>
      </trkpt>
      <trkpt lat="43.69561" lon="6.8426">
        <ele>685</ele>
        <time>2012-04-02T05:32:11Z</time>
      </trkpt>
      <trkpt lat="43.69526" lon="6.84226">
        <ele>683</ele>
        <time>2012-04-02T05:32:17Z</time>
      </trkpt>
      <trkpt lat="43.69481" lon="6.8417">
        <ele>680</ele>
        <time>2012-04-02T05:32:25Z</time>
      </trkpt>
      <trkpt lat="43.69463" lon="6.84158">
        <ele>679</ele>
        <time>2012-04-02T05:32:27Z</time>
      </trkpt>
      <trkpt lat="43.69391" lon="6.84149">
        <ele>679</ele>
        <time>2012-04-02T05:32:37Z</time>
      </trkpt>
      <trkpt lat="43.69353" lon="6.84137">
        <ele>678</ele>
        <time>2012-04-02T05:32:42Z</time>
      </trkpt>
      <trkpt lat="43.69324" lon="6.84116">
        <ele>678</ele>
        <time>2012-04-02T05:32:47Z</time>
      </trkpt>
      <trkpt lat="43.69316" lon="6.84101">
        <ele>678</ele>
        <time>2012-04-02T05:32:48Z</time>
      </trkpt>
      <trkpt lat="43.69286" lon="6.83941">
        <ele>678</ele>
        <time>2012-04-02T05:33:04Z</time>
      </trkpt>
      <trkpt lat="43.69217" lon="6.83766">
        <ele>674</ele>
        <time>2012-04-02T05:33:24Z</time>
      </trkpt>
      <trkpt lat="43.69189" lon="6.83718">
        <ele>673</ele>
        <time>2012-04-02T05:33:30Z</time>
      </trkpt>
      <trkpt lat="43.69084" lon="6.83587">
        <ele>672</ele>
        <time>2012-04-02T05:33:48Z</time>
      </trkpt>
      <trkpt lat="43.69048" lon="6.8351">
        <ele>673</ele>
        <time>2012-04-02T05:34:01Z</time>
      </trkpt>
      <trkpt lat="43.69037" lon="6.83474">
        <ele>674</ele>
        <time>2012-04-02T05:34:06Z</time>
      </trkpt>
      <trkpt lat="43.6903" lon="6.83407">
        <ele>675</ele>
        <time>2012-04-02T05:34:16Z</time>
      </trkpt>
      <trkpt lat="43.69018" lon="6.83365">
        <ele>676</ele>
        <time>2012-04-02T05:34:23Z</time>
      </trkpt>
      <trkpt lat="43.68992" lon="6.83298">
        <ele>678</ele>
        <time>2012-04-02T05:34:34Z</time>
      </trkpt>
      <trkpt lat="43.68982" lon="6.83206">
        <ele>676</ele>
        <time>2012-04-02T05:34:43Z</time>
      </trkpt>
      <trkpt lat="43.68966" lon="6.83129">
        <ele>676</ele>
        <time>2012-04-02T05:34:50Z</time>
      </trkpt>
      <trkpt lat="43.68966" lon="6.83129">
        <ele>676</ele>
        <time>2012-04-02T05:34:51Z</time>
      </trkpt>
      <trkpt lat="43.68945" lon="6.83047">
        <ele>672</ele>
        <time>2012-04-02T05:35:00Z</time>
      </trkpt>
      <trkpt lat="43.68932" lon="6.8302">
        <ele>671</ele>
        <time>2012-04-02T05:35:03Z</time>
      </trkpt>
      <trkpt lat="43.68915" lon="6.83001">
        <ele>670</ele>
        <time>2012-04-02T05:35:06Z</time>
      </trkpt>
      <trkpt lat="43.68894" lon="6.82982">
        <ele>671</ele>
        <time>2012-04-02T05:35:13Z</time>
      </trkpt>
      <trkpt lat="43.68869" lon="6.82969">
        <ele>673</ele>
        <time>2012-04-02T05:35:21Z</time>
      </trkpt>
      <trkpt lat="43.68783" lon="6.82955">
        <ele>679</ele>
        <time>2012-04-02T05:35:46Z</time>
      </trkpt>
      <trkpt lat="43.68765" lon="6.82947">
        <ele>680</ele>
        <time>2012-04-02T05:35:53Z</time>
      </trkpt>
      <trkpt lat="43.68751" lon="6.82933">
        <ele>682</ele>
        <time>2012-04-02T05:36:00Z</time>
      </trkpt>
      <trkpt lat="43.68732" lon="6.82898">
        <ele>685</ele>
        <time>2012-04-02T05:36:11Z</time>
      </trkpt>
      <trkpt lat="43.68725" lon="6.82855">
        <ele>689</ele>
        <time>2012-04-02T05:36:23Z</time>
      </trkpt>
      <trkpt lat="43.68729" lon="6.82833">
        <ele>687</ele>
        <time>2012-04-02T05:36:26Z</time>
      </trkpt>
      <trkpt lat="43.68752" lon="6.82777">
        <ele>683</ele>
        <time>2012-04-02T05:36:32Z</time>
      </trkpt>
      <trkpt lat="43.68783" lon="6.82672">
        <ele>676</ele>
        <time>2012-04-02T05:36:43Z</time>
      </trkpt>
      <trkpt lat="43.68787" lon="6.8264">
        <ele>674</ele>
        <time>2012-04-02T05:36:46Z</time>
      </trkpt>
      <trkpt lat="43.68785" lon="6.82596">
        <ele>673</ele>
        <time>2012-04-02T05:36:50Z</time>
      </trkpt>
      <trkpt lat="43.68765" lon="6.82544">
        <ele>671</ele>
        <time>2012-04-02T05:36:56Z</time>
      </trkpt>
      <trkpt lat="43.68727" lon="6.82499">
        <ele>674</ele>
        <time>2012-04-02T05:37:12Z</time>
      </trkpt>
      <trkpt lat="43.68699" lon="6.82473">
        <ele>677</ele>
        <time>2012-04-02T05:37:23Z</time>
      </trkpt>
      <trkpt lat="43.68617" lon="6.82416">
        <ele>685</ele>
        <time>2012-04-02T05:37:53Z</time>
      </trkpt>
      <trkpt lat="43.68604" lon="6.82396">
        <ele>686</ele>
        <time>2012-04-02T05:37:59Z</time>
      </trkpt>
      <trkpt lat="43.686" lon="6.82378">
        <ele>687</ele>
        <time>2012-04-02T05:38:03Z</time>
      </trkpt>
      <trkpt lat="43.68601" lon="6.8236">
        <ele>688</ele>
        <time>2012-04-02T05:38:07Z</time>
      </trkpt>
      <trkpt lat="43.68625" lon="6.82281">
        <ele>693</ele>
        <time>2012-04-02T05:38:26Z</time>
      </trkpt>
      <trkpt lat="43.68629" lon="6.82238">
        <ele>692</ele>
        <time>2012-04-02T05:38:31Z</time>
      </trkpt>
      <trkpt lat="43.68627" lon="6.82187">
        <ele>691</ele>
        <time>2012-04-02T05:38:36Z</time>
      </trkpt>
      <trkpt lat="43.68608" lon="6.82114">
        <ele>691</ele>
        <time>2012-04-02T05:38:43Z</time>
      </trkpt>
      <trkpt lat="43.68591" lon="6.82076">
        <ele>691</ele>
        <time>2012-04-02T05:38:47Z</time>
      </trkpt>
      <trkpt lat="43.68569" lon="6.82046">
        <ele>691</ele>
        <time>2012-04-02T05:38:52Z</time>
      </trkpt>
      <trkpt lat="43.68544" lon="6.82021">
        <ele>691</ele>
        <time>2012-04-02T05:38:56Z</time>
      </trkpt>
      <trkpt lat="43.68475" lon="6.81971">
        <ele>690</ele>
        <time>2012-04-02T05:39:06Z</time>
      </trkpt>
      <trkpt lat="43.68434" lon="6.81932">
        <ele>690</ele>
        <time>2012-04-02T05:39:13Z</time>
      </trkpt>
      <trkpt lat="43.68345" lon="6.819">
        <ele>695</ele>
        <time>2012-04-02T05:39:37Z</time>
      </trkpt>
      <trkpt lat="43.68317" lon="6.81877">
        <ele>695</ele>
        <time>2012-04-02T05:39:44Z</time>
      </trkpt>
      <trkpt lat="43.68292" lon="6.81841">
        <ele>697</ele>
        <time>2012-04-02T05:39:51Z</time>
      </trkpt>
      <trkpt lat="43.68244" lon="6.81719">
        <ele>700</ele>
        <time>2012-04-02T05:40:12Z</time>
      </trkpt>
      <trkpt lat="43.68228" lon="6.81671">
        <ele>698</ele>
        <time>2012-04-02T05:40:17Z</time>
      </trkpt>
      <trkpt lat="43.6822" lon="6.81623">
        <ele>697</ele>
        <time>2012-04-02T05:40:21Z</time>
      </trkpt>
      <trkpt lat="43.68235" lon="6.81525">
        <ele>695</ele>
        <time>2012-04-02T05:40:31Z</time>
      </trkpt>
      <trkpt lat="43.68236" lon="6.81479">
        <ele>694</ele>
        <time>2012-04-02T05:40:36Z</time>
      </trkpt>
      <trkpt lat="43.6823" lon="6.81442">
        <ele>693</ele>
        <time>2012-04-02T05:40:39Z</time>
      </trkpt>
      <trkpt lat="43.68209" lon="6.81368">
        <ele>693</ele>
        <time>2012-04-02T05:40:47Z</time>
      </trkpt>
      <trkpt lat="43.68188" lon="6.81315">
        <ele>693</ele>
        <time>2012-04-02T05:40:54Z</time>
      </trkpt>
      <trkpt lat="43.68136" lon="6.81231">
        <ele>695</ele>
        <time>2012-04-02T05:41:08Z</time>
      </trkpt>
      <trkpt lat="43.68108" lon="6.81171">
        <ele>693</ele>
        <time>2012-04-02T05:41:15Z</time>
      </trkpt>
      <trkpt lat="43.68041" lon="6.81091">
        <ele>692</ele>
        <time>2012-04-02T05:41:27Z</time>
      </trkpt>
      <trkpt lat="43.68026" lon="6.81061">
        <ele>690</ele>
        <time>2012-04-02T05:41:30Z</time>
      </trkpt>
      <trkpt lat="43.68019" lon="6.8103">
        <ele>689</ele>
        <time>2012-04-02T05:41:34Z</time>
      </trkpt>
      <trkpt lat="43.68019" lon="6.8094">
        <ele>687</ele>
        <time>2012-04-02T05:41:42Z</time>
      </trkpt>
      <trkpt lat="43.68035" lon="6.807">
        <ele>679</ele>
        <time>2012-04-02T05:42:06Z</time>
      </trkpt>
      <trkpt lat="43.68051" lon="6.80606">
        <ele>673</ele>
        <time>2012-04-02T05:42:15Z</time>
      </trkpt>
      <trkpt lat="43.68069" lon="6.80553">
        <ele>670</ele>
        <time>2012-04-02T05:42:21Z</time>
      </trkpt>
      <trkpt lat="43.68065" lon="6.8054">
        <ele>670</ele>
        <time>2012-04-02T05:42:22Z</time>
      </trkpt>
      <trkpt lat="43.68052" lon="6.80544">
        <ele>670</ele>
        <time>2012-04-02T05:42:24Z</time>
      </trkpt>
      <trkpt lat="43.68029" lon="6.80584">
        <ele>670</ele>
        <time>2012-04-02T05:42:29Z</time>
      </trkpt>
      <trkpt lat="43.68018" lon="6.80595">
        <ele>670</ele>
        <time>2012-04-02T05:42:30Z</time>
      </trkpt>
      <trkpt lat="43.67998" lon="6.80601">
        <ele>670</ele>
        <time>2012-04-02T05:42:33Z</time>
      </trkpt>
      <trkpt lat="43.67981" lon="6.80592">
        <ele>670</ele>
        <time>2012-04-02T05:42:36Z</time>
      </trkpt>
      <trkpt lat="43.67895" lon="6.80496">
        <ele>659</ele>
        <time>2012-04-02T05:42:50Z</time>
      </trkpt>
      <trkpt lat="43.67871" lon="6.80483">
        <ele>655</ele>
        <time>2012-04-02T05:42:54Z</time>
      </trkpt>
      <trkpt lat="43.67846" lon="6.80493">
        <ele>651</ele>
        <time>2012-04-02T05:42:57Z</time>
      </trkpt>
      <trkpt lat="43.67771" lon="6.80544">
        <ele>639</ele>
        <time>2012-04-02T05:43:08Z</time>
      </trkpt>
      <trkpt lat="43.67741" lon="6.80574">
        <ele>634</ele>
        <time>2012-04-02T05:43:13Z</time>
      </trkpt>
      <trkpt lat="43.67703" lon="6.80654">
        <ele>626</ele>
        <time>2012-04-02T05:43:23Z</time>
      </trkpt>
      <trkpt lat="43.67693" lon="6.80687">
        <ele>626</ele>
        <time>2012-04-02T05:43:27Z</time>
      </trkpt>
      <trkpt lat="43.67687" lon="6.80727">
        <ele>626</ele>
        <time>2012-04-02T05:43:31Z</time>
      </trkpt>
      <trkpt lat="43.67682" lon="6.80844">
        <ele>627</ele>
        <time>2012-04-02T05:43:44Z</time>
      </trkpt>
      <trkpt lat="43.67676" lon="6.80866">
        <ele>624</ele>
        <time>2012-04-02T05:43:46Z</time>
      </trkpt>
      <trkpt lat="43.67627" lon="6.80949">
        <ele>614</ele>
        <time>2012-04-02T05:43:56Z</time>
      </trkpt>
      <trkpt lat="43.67552" lon="6.81123">
        <ele>597</ele>
        <time>2012-04-02T05:44:16Z</time>
      </trkpt>
      <trkpt lat="43.67517" lon="6.81247">
        <ele>595</ele>
        <time>2012-04-02T05:44:29Z</time>
      </trkpt>
      <trkpt lat="43.67508" lon="6.81258">
        <ele>594</ele>
        <time>2012-04-02T05:44:30Z</time>
      </trkpt>
      <trkpt lat="43.675" lon="6.81254">
        <ele>593</ele>
        <time>2012-04-02T05:44:32Z</time>
      </trkpt>
      <trkpt lat="43.67496" lon="6.81243">
        <ele>592</ele>
        <time>2012-04-02T05:44:33Z</time>
      </trkpt>
      <trkpt lat="43.67504" lon="6.81188">
        <ele>589</ele>
        <time>2012-04-02T05:44:38Z</time>
      </trkpt>
      <trkpt lat="43.67503" lon="6.81154">
        <ele>587</ele>
        <time>2012-04-02T05:44:41Z</time>
      </trkpt>
      <trkpt lat="43.67471" lon="6.80931">
        <ele>575</ele>
        <time>2012-04-02T05:45:03Z</time>
      </trkpt>
      <trkpt lat="43.67441" lon="6.80818">
        <ele>568</ele>
        <time>2012-04-02T05:45:15Z</time>
      </trkpt>
      <trkpt lat="43.67432" lon="6.80744">
        <ele>565</ele>
        <time>2012-04-02T05:45:22Z</time>
      </trkpt>
      <trkpt lat="43.67432" lon="6.80687">
        <ele>563</ele>
        <time>2012-04-02T05:45:28Z</time>
      </trkpt>
      <trkpt lat="43.67448" lon="6.80449">
        <ele>557</ele>
        <time>2012-04-02T05:45:51Z</time>
      </trkpt>
      <trkpt lat="43.67471" lon="6.80367">
        <ele>557</ele>
        <time>2012-04-02T05:46:02Z</time>
      </trkpt>
      <trkpt lat="43.67515" lon="6.80277">
        <ele>559</ele>
        <time>2012-04-02T05:46:15Z</time>
      </trkpt>
      <trkpt lat="43.67524" lon="6.80242">
        <ele>557</ele>
        <time>2012-04-02T05:46:18Z</time>
      </trkpt>
      <trkpt lat="43.67547" lon="6.79911">
        <ele>543</ele>
        <time>2012-04-02T05:46:50Z</time>
      </trkpt>
      <trkpt lat="43.67546" lon="6.79859">
        <ele>539</ele>
        <time>2012-04-02T05:46:55Z</time>
      </trkpt>
      <trkpt lat="43.67532" lon="6.79825">
        <ele>537</ele>
        <time>2012-04-02T05:46:59Z</time>
      </trkpt>
      <trkpt lat="43.67521" lon="6.79813">
        <ele>535</ele>
        <time>2012-04-02T05:47:01Z</time>
      </trkpt>
      <trkpt lat="43.67397" lon="6.79739">
        <ele>524</ele>
        <time>2012-04-02T05:47:19Z</time>
      </trkpt>
      <trkpt lat="43.67289" lon="6.79718">
        <ele>516</ele>
        <time>2012-04-02T05:47:34Z</time>
      </trkpt>
      <trkpt lat="43.67092" lon="6.79738">
        <ele>502</ele>
        <time>2012-04-02T05:48:00Z</time>
      </trkpt>
      <trkpt lat="43.67012" lon="6.7978">
        <ele>499</ele>
        <time>2012-04-02T05:48:12Z</time>
      </trkpt>
      <trkpt lat="43.66975" lon="6.7978">
        <ele>499</ele>
        <time>2012-04-02T05:48:16Z</time>
      </trkpt>
      <trkpt lat="43.66939" lon="6.79762">
        <ele>498</ele>
        <time>2012-04-02T05:48:22Z</time>
      </trkpt>
      <trkpt lat="43.66843" lon="6.79682">
        <ele>497</ele>
        <time>2012-04-02T05:48:37Z</time>
      </trkpt>
      <trkpt lat="43.66745" lon="6.79655">
        <ele>496</ele>
        <time>2012-04-02T05:48:50Z</time>
      </trkpt>
      <trkpt lat="43.66551" lon="6.7956">
        <ele>483</ele>
        <time>2012-04-02T05:49:17Z</time>
      </trkpt>
      <trkpt lat="43.66427" lon="6.7951">
        <ele>476</ele>
        <time>2012-04-02T05:49:35Z</time>
      </trkpt>
      <trkpt lat="43.66396" lon="6.79495">
        <ele>475</ele>
        <time>2012-04-02T05:49:39Z</time>
      </trkpt>
      <trkpt lat="43.66343" lon="6.7945">
        <ele>474</ele>
        <time>2012-04-02T05:49:47Z</time>
      </trkpt>
      <trkpt lat="43.66283" lon="6.79421">
        <ele>471</ele>
        <time>2012-04-02T05:49:56Z</time>
      </trkpt>
      <trkpt lat="43.66236" lon="6.79406">
        <ele>470</ele>
        <time>2012-04-02T05:50:02Z</time>
      </trkpt>
      <trkpt lat="43.66087" lon="6.79386">
        <ele>465</ele>
        <time>2012-04-02T05:50:22Z</time>
      </trkpt>
      <trkpt lat="43.66061" lon="6.79369">
        <ele>464</ele>
        <time>2012-04-02T05:50:26Z</time>
      </trkpt>
      <trkpt lat="43.66061" lon="6.79369">
        <ele>464</ele>
        <time>2012-04-02T05:50:27Z</time>
      </trkpt>
      <trkpt lat="43.66019" lon="6.79341">
        <ele>462</ele>
        <time>2012-04-02T05:50:33Z</time>
      </trkpt>
      <trkpt lat="43.65938" lon="6.79321">
        <ele>460</ele>
        <time>2012-04-02T05:50:44Z</time>
      </trkpt>
      <trkpt lat="43.65881" lon="6.793">
        <ele>459</ele>
        <time>2012-04-02T05:50:52Z</time>
      </trkpt>
      <trkpt lat="43.65856" lon="6.79312">
        <ele>458</ele>
        <time>2012-04-02T05:50:56Z</time>
      </trkpt>
      <trkpt lat="43.65797" lon="6.79383">
        <ele>458</ele>
        <time>2012-04-02T05:51:06Z</time>
      </trkpt>
      <trkpt lat="43.65782" lon="6.79395">
        <ele>457</ele>
        <time>2012-04-02T05:51:09Z</time>
      </trkpt>
      <trkpt lat="43.65746" lon="6.79403">
        <ele>456</ele>
        <time>2012-04-02T05:51:13Z</time>
      </trkpt>
      <trkpt lat="43.65726" lon="6.7939">
        <ele>455</ele>
        <time>2012-04-02T05:51:16Z</time>
      </trkpt>
      <trkpt lat="43.65668" lon="6.79337">
        <ele>454</ele>
        <time>2012-04-02T05:51:26Z</time>
      </trkpt>
      <trkpt lat="43.65626" lon="6.79267">
        <ele>452</ele>
        <time>2012-04-02T05:51:34Z</time>
      </trkpt>
      <trkpt lat="43.65588" lon="6.79231">
        <ele>451</ele>
        <time>2012-04-02T05:51:41Z</time>
      </trkpt>
      <trkpt lat="43.65513" lon="6.79202">
        <ele>446</ele>
        <time>2012-04-02T05:51:51Z</time>
      </trkpt>
      <trkpt lat="43.65255" lon="6.79125">
        <ele>430</ele>
        <time>2012-04-02T05:52:26Z</time>
      </trkpt>
      <trkpt lat="43.65218" lon="6.79125">
        <ele>430</ele>
        <time>2012-04-02T05:52:33Z</time>
      </trkpt>
      <trkpt lat="43.6513" lon="6.79144">
        <ele>433</ele>
        <time>2012-04-02T05:52:50Z</time>
      </trkpt>
      <trkpt lat="43.65055" lon="6.79285">
        <ele>453</ele>
        <time>2012-04-02T05:53:55Z</time>
      </trkpt>
      <trkpt lat="43.65045" lon="6.79295">
        <ele>451</ele>
        <time>2012-04-02T05:53:57Z</time>
      </trkpt>
      <trkpt lat="43.65029" lon="6.79301">
        <ele>449</ele>
        <time>2012-04-02T05:53:59Z</time>
      </trkpt>
      <trkpt lat="43.65014" lon="6.793">
        <ele>447</ele>
        <time>2012-04-02T05:54:01Z</time>
      </trkpt>
      <trkpt lat="43.64984" lon="6.79273">
        <ele>443</ele>
        <time>2012-04-02T05:54:06Z</time>
      </trkpt>
      <trkpt lat="43.64977" lon="6.79259">
        <ele>442</ele>
        <time>2012-04-02T05:54:07Z</time>
      </trkpt>
      <trkpt lat="43.64959" lon="6.79245">
        <ele>440</ele>
        <time>2012-04-02T05:54:10Z</time>
      </trkpt>
      <trkpt lat="43.64951" lon="6.79246">
        <ele>440</ele>
        <time>2012-04-02T05:54:13Z</time>
      </trkpt>
      <trkpt lat="43.64944" lon="6.79254">
        <ele>441</ele>
        <time>2012-04-02T05:54:16Z</time>
      </trkpt>
      <trkpt lat="43.6492" lon="6.7931">
        <ele>444</ele>
        <time>2012-04-02T05:54:31Z</time>
      </trkpt>
      <trkpt lat="43.6485" lon="6.79388">
        <ele>452</ele>
        <time>2012-04-02T05:55:00Z</time>
      </trkpt>
      <trkpt lat="43.64797" lon="6.79431">
        <ele>454</ele>
        <time>2012-04-02T05:55:13Z</time>
      </trkpt>
      <trkpt lat="43.64795" lon="6.79437">
        <ele>454</ele>
        <time>2012-04-02T05:55:14Z</time>
      </trkpt>
      <trkpt lat="43.64939" lon="6.79517">
        <ele>460</ele>
        <time>2012-04-02T05:55:48Z</time>
      </trkpt>
      <trkpt lat="43.64884" lon="6.79758">
        <ele>459</ele>
        <time>2012-04-02T05:56:13Z</time>
      </trkpt>
      <trkpt lat="43.64881" lon="6.79893">
        <ele>456</ele>
        <time>2012-04-02T05:56:26Z</time>
      </trkpt>
      <trkpt lat="43.64831" lon="6.80011">
        <ele>457</ele>
        <time>2012-04-02T05:56:42Z</time>
      </trkpt>
      <trkpt lat="43.64798" lon="6.80075">
        <ele>456</ele>
        <time>2012-04-02T05:56:49Z</time>
      </trkpt>
      <trkpt lat="43.64766" lon="6.80117">
        <ele>456</ele>
        <time>2012-04-02T05:56:55Z</time>
      </trkpt>
      <trkpt lat="43.64736" lon="6.80142">
        <ele>455</ele>
        <time>2012-04-02T05:57:00Z</time>
      </trkpt>
      <trkpt lat="43.64728" lon="6.80154">
        <ele>455</ele>
        <time>2012-04-02T05:57:01Z</time>
      </trkpt>
      <trkpt lat="43.6472" lon="6.80173">
        <ele>455</ele>
        <time>2012-04-02T05:57:03Z</time>
      </trkpt>
      <trkpt lat="43.64716" lon="6.80202">
        <ele>455</ele>
        <time>2012-04-02T05:57:06Z</time>
      </trkpt>
      <trkpt lat="43.64738" lon="6.80348">
        <ele>455</ele>
        <time>2012-04-02T05:57:21Z</time>
      </trkpt>
      <trkpt lat="43.64754" lon="6.80391">
        <ele>455</ele>
        <time>2012-04-02T05:57:27Z</time>
      </trkpt>
      <trkpt lat="43.64769" lon="6.80423">
        <ele>455</ele>
        <time>2012-04-02T05:57:31Z</time>
      </trkpt>
      <trkpt lat="43.64947" lon="6.80733">
        <ele>460</ele>
        <time>2012-04-02T05:58:19Z</time>
      </trkpt>
      <trkpt lat="43.64992" lon="6.80828">
        <ele>459</ele>
        <time>2012-04-02T05:58:30Z</time>
      </trkpt>
      <trkpt lat="43.65006" lon="6.80872">
        <ele>459</ele>
        <time>2012-04-02T05:58:35Z</time>
      </trkpt>
      <trkpt lat="43.65018" lon="6.80943">
        <ele>459</ele>
        <time>2012-04-02T05:58:43Z</time>
      </trkpt>
      <trkpt lat="43.65026" lon="6.81044">
        <ele>460</ele>
        <time>2012-04-02T05:58:54Z</time>
      </trkpt>
      <trkpt lat="43.65049" lon="6.81197">
        <ele>460</ele>
        <time>2012-04-02T05:59:09Z</time>
      </trkpt>
      <trkpt lat="43.65034" lon="6.81373">
        <ele>463</ele>
        <time>2012-04-02T05:59:34Z</time>
      </trkpt>
      <trkpt lat="43.65038" lon="6.81446">
        <ele>462</ele>
        <time>2012-04-02T05:59:41Z</time>
      </trkpt>
      <trkpt lat="43.65036" lon="6.81477">
        <ele>462</ele>
        <time>2012-04-02T05:59:44Z</time>
      </trkpt>
      <trkpt lat="43.65017" lon="6.81636">
        <ele>462</ele>
        <time>2012-04-02T05:59:59Z</time>
      </trkpt>
      <trkpt lat="43.64993" lon="6.81727">
        <ele>459</ele>
        <time>2012-04-02T06:00:09Z</time>
      </trkpt>
      <trkpt lat="43.64853" lon="6.82112">
        <ele>450</ele>
        <time>2012-04-02T06:00:50Z</time>
      </trkpt>
      <trkpt lat="43.64761" lon="6.82349">
        <ele>441</ele>
        <time>2012-04-02T06:01:16Z</time>
      </trkpt>
      <trkpt lat="43.64734" lon="6.82382">
        <ele>439</ele>
        <time>2012-04-02T06:01:21Z</time>
      </trkpt>
      <trkpt lat="43.64596" lon="6.82474">
        <ele>431</ele>
        <time>2012-04-02T06:01:42Z</time>
      </trkpt>
      <trkpt lat="43.64544" lon="6.82521">
        <ele>431</ele>
        <time>2012-04-02T06:01:50Z</time>
      </trkpt>
      <trkpt lat="43.64416" lon="6.82713">
        <ele>432</ele>
        <time>2012-04-02T06:02:17Z</time>
      </trkpt>
      <trkpt lat="43.64402" lon="6.82726">
        <ele>432</ele>
        <time>2012-04-02T06:02:20Z</time>
      </trkpt>
      <trkpt lat="43.64175" lon="6.82906">
        <ele>432</ele>
        <time>2012-04-02T06:02:55Z</time>
      </trkpt>
      <trkpt lat="43.64147" lon="6.8292">
        <ele>430</ele>
        <time>2012-04-02T06:02:59Z</time>
      </trkpt>
      <trkpt lat="43.64125" lon="6.82921">
        <ele>429</ele>
        <time>2012-04-02T06:03:02Z</time>
      </trkpt>
      <trkpt lat="43.64063" lon="6.82912">
        <ele>426</ele>
        <time>2012-04-02T06:03:10Z</time>
      </trkpt>
      <trkpt lat="43.64034" lon="6.82901">
        <ele>425</ele>
        <time>2012-04-02T06:03:14Z</time>
      </trkpt>
      <trkpt lat="43.6401" lon="6.82881">
        <ele>424</ele>
        <time>2012-04-02T06:03:18Z</time>
      </trkpt>
      <trkpt lat="43.63981" lon="6.82837">
        <ele>424</ele>
        <time>2012-04-02T06:03:23Z</time>
      </trkpt>
      <trkpt lat="43.63934" lon="6.82785">
        <ele>421</ele>
        <time>2012-04-02T06:03:32Z</time>
      </trkpt>
      <trkpt lat="43.63886" lon="6.82748">
        <ele>420</ele>
        <time>2012-04-02T06:03:39Z</time>
      </trkpt>
      <trkpt lat="43.63871" lon="6.82743">
        <ele>419</ele>
        <time>2012-04-02T06:03:41Z</time>
      </trkpt>
      <trkpt lat="43.63867" lon="6.82735">
        <ele>419</ele>
        <time>2012-04-02T06:03:42Z</time>
      </trkpt>
      <trkpt lat="43.63844" lon="6.8273">
        <ele>418</ele>
        <time>2012-04-02T06:03:45Z</time>
      </trkpt>
      <trkpt lat="43.63844" lon="6.8273">
        <ele>418</ele>
        <time>2012-04-02T06:03:46Z</time>
      </trkpt>
      <trkpt lat="43.63864" lon="6.82733">
        <ele>417</ele>
        <time>2012-04-02T06:03:49Z</time>
      </trkpt>
      <trkpt lat="43.63871" lon="6.82743">
        <ele>417</ele>
        <time>2012-04-02T06:03:50Z</time>
      </trkpt>
      <trkpt lat="43.63821" lon="6.82734">
        <ele>417</ele>
        <time>2012-04-02T06:03:57Z</time>
      </trkpt>
      <trkpt lat="43.63724" lon="6.8275">
        <ele>416</ele>
        <time>2012-04-02T06:04:10Z</time>
      </trkpt>
      <trkpt lat="43.63676" lon="6.82772">
        <ele>412</ele>
        <time>2012-04-02T06:04:17Z</time>
      </trkpt>
      <trkpt lat="43.63612" lon="6.82815">
        <ele>407</ele>
        <time>2012-04-02T06:04:26Z</time>
      </trkpt>
      <trkpt lat="43.63596" lon="6.82838">
        <ele>407</ele>
        <time>2012-04-02T06:04:29Z</time>
      </trkpt>
      <trkpt lat="43.63534" lon="6.82996">
        <ele>407</ele>
        <time>2012-04-02T06:04:47Z</time>
      </trkpt>
      <trkpt lat="43.63516" lon="6.8306">
        <ele>405</ele>
        <time>2012-04-02T06:04:53Z</time>
      </trkpt>
      <trkpt lat="43.635" lon="6.83098">
        <ele>403</ele>
        <time>2012-04-02T06:04:57Z</time>
      </trkpt>
      <trkpt lat="43.63445" lon="6.83201">
        <ele>400</ele>
        <time>2012-04-02T06:05:10Z</time>
      </trkpt>
      <trkpt lat="43.63433" lon="6.83263">
        <ele>397</ele>
        <time>2012-04-02T06:05:16Z</time>
      </trkpt>
      <trkpt lat="43.63437" lon="6.83299">
        <ele>395</ele>
        <time>2012-04-02T06:05:19Z</time>
      </trkpt>
      <trkpt lat="43.63454" lon="6.83339">
        <ele>394</ele>
        <time>2012-04-02T06:05:24Z</time>
      </trkpt>
      <trkpt lat="43.63536" lon="6.83434">
        <ele>402</ele>
        <time>2012-04-02T06:05:57Z</time>
      </trkpt>
      <trkpt lat="43.63553" lon="6.8351">
        <ele>394</ele>
        <time>2012-04-02T06:06:05Z</time>
      </trkpt>
      <trkpt lat="43.63556" lon="6.83539">
        <ele>391</ele>
        <time>2012-04-02T06:06:08Z</time>
      </trkpt>
      <trkpt lat="43.63571" lon="6.83573">
        <ele>388</ele>
        <time>2012-04-02T06:06:12Z</time>
      </trkpt>
      <trkpt lat="43.63726" lon="6.8369">
        <ele>425</ele>
        <time>2012-04-02T06:08:04Z</time>
      </trkpt>
      <trkpt lat="43.63747" lon="6.83719">
        <ele>420</ele>
        <time>2012-04-02T06:08:08Z</time>
      </trkpt>
      <trkpt lat="43.63759" lon="6.83747">
        <ele>417</ele>
        <time>2012-04-02T06:08:11Z</time>
      </trkpt>
      <trkpt lat="43.63778" lon="6.83829">
        <ele>409</ele>
        <time>2012-04-02T06:08:20Z</time>
      </trkpt>
      <trkpt lat="43.63816" lon="6.83943">
        <ele>397</ele>
        <time>2012-04-02T06:08:32Z</time>
      </trkpt>
      <trkpt lat="43.63831" lon="6.84025">
        <ele>389</ele>
        <time>2012-04-02T06:08:40Z</time>
      </trkpt>
      <trkpt lat="43.63869" lon="6.84143">
        <ele>379</ele>
        <time>2012-04-02T06:08:52Z</time>
      </trkpt>
      <trkpt lat="43.6388" lon="6.842">
        <ele>375</ele>
        <time>2012-04-02T06:08:58Z</time>
      </trkpt>
      <trkpt lat="43.63889" lon="6.84291">
        <ele>369</ele>
        <time>2012-04-02T06:09:07Z</time>
      </trkpt>
      <trkpt lat="43.63896" lon="6.84309">
        <ele>369</ele>
        <time>2012-04-02T06:09:10Z</time>
      </trkpt>
      <trkpt lat="43.63929" lon="6.84358">
        <ele>370</ele>
        <time>2012-04-02T06:09:19Z</time>
      </trkpt>
      <trkpt lat="43.63946" lon="6.84445">
        <ele>372</ele>
        <time>2012-04-02T06:09:31Z</time>
      </trkpt>
      <trkpt lat="43.63986" lon="6.84517">
        <ele>369</ele>
        <time>2012-04-02T06:09:40Z</time>
      </trkpt>
      <trkpt lat="43.63973" lon="6.84602">
        <ele>367</ele>
        <time>2012-04-02T06:09:49Z</time>
      </trkpt>
      <trkpt lat="43.63981" lon="6.84627">
        <ele>369</ele>
        <time>2012-04-02T06:09:57Z</time>
      </trkpt>
      <trkpt lat="43.64007" lon="6.84649">
        <ele>372</ele>
        <time>2012-04-02T06:10:09Z</time>
      </trkpt>
      <trkpt lat="43.64125" lon="6.84694">
        <ele>387</ele>
        <time>2012-04-02T06:11:00Z</time>
      </trkpt>
      <trkpt lat="43.64156" lon="6.84714">
        <ele>385</ele>
        <time>2012-04-02T06:11:04Z</time>
      </trkpt>
      <trkpt lat="43.64172" lon="6.84735">
        <ele>383</ele>
        <time>2012-04-02T06:11:07Z</time>
      </trkpt>
      <trkpt lat="43.64199" lon="6.84796">
        <ele>381</ele>
        <time>2012-04-02T06:11:14Z</time>
      </trkpt>
      <trkpt lat="43.64215" lon="6.84906">
        <ele>364</ele>
        <time>2012-04-02T06:11:25Z</time>
      </trkpt>
      <trkpt lat="43.64232" lon="6.84955">
        <ele>357</ele>
        <time>2012-04-02T06:11:30Z</time>
      </trkpt>
      <trkpt lat="43.64247" lon="6.84974">
        <ele>357</ele>
        <time>2012-04-02T06:11:33Z</time>
      </trkpt>
      <trkpt lat="43.64282" lon="6.85004">
        <ele>357</ele>
        <time>2012-04-02T06:11:40Z</time>
      </trkpt>
      <trkpt lat="43.64311" lon="6.8505">
        <ele>358</ele>
        <time>2012-04-02T06:11:47Z</time>
      </trkpt>
      <trkpt lat="43.64413" lon="6.85126">
        <ele>373</ele>
        <time>2012-04-02T06:12:38Z</time>
      </trkpt>
      <trkpt lat="43.64458" lon="6.85181">
        <ele>370</ele>
        <time>2012-04-02T06:12:46Z</time>
      </trkpt>
      <trkpt lat="43.64468" lon="6.852">
        <ele>370</ele>
        <time>2012-04-02T06:12:48Z</time>
      </trkpt>
      <trkpt lat="43.64485" lon="6.85253">
        <ele>369</ele>
        <time>2012-04-02T06:12:54Z</time>
      </trkpt>
      <trkpt lat="43.6453" lon="6.85332">
        <ele>365</ele>
        <time>2012-04-02T06:13:04Z</time>
      </trkpt>
      <trkpt lat="43.64547" lon="6.85354">
        <ele>365</ele>
        <time>2012-04-02T06:13:07Z</time>
      </trkpt>
      <trkpt lat="43.64599" lon="6.85402">
        <ele>361</ele>
        <time>2012-04-02T06:13:15Z</time>
      </trkpt>
      <trkpt lat="43.64609" lon="6.8542">
        <ele>361</ele>
        <time>2012-04-02T06:13:17Z</time>
      </trkpt>
      <trkpt lat="43.64611" lon="6.85435">
        <ele>360</ele>
        <time>2012-04-02T06:13:19Z</time>
      </trkpt>
      <trkpt lat="43.64606" lon="6.85449">
        <ele>360</ele>
        <time>2012-04-02T06:13:20Z</time>
      </trkpt>
      <trkpt lat="43.64606" lon="6.85487">
        <ele>359</ele>
        <time>2012-04-02T06:13:24Z</time>
      </trkpt>
      <trkpt lat="43.64618" lon="6.85514">
        <ele>358</ele>
        <time>2012-04-02T06:13:27Z</time>
      </trkpt>
      <trkpt lat="43.64686" lon="6.85629">
        <ele>356</ele>
        <time>2012-04-02T06:13:42Z</time>
      </trkpt>
      <trkpt lat="43.64732" lon="6.85722">
        <ele>355</ele>
        <time>2012-04-02T06:13:52Z</time>
      </trkpt>
      <trkpt lat="43.64746" lon="6.85789">
        <ele>355</ele>
        <time>2012-04-02T06:13:59Z</time>
      </trkpt>
      <trkpt lat="43.64741" lon="6.85791">
        <ele>354</ele>
        <time>2012-04-02T06:14:00Z</time>
      </trkpt>
      <trkpt lat="43.64718" lon="6.85749">
        <ele>352</ele>
        <time>2012-04-02T06:14:05Z</time>
      </trkpt>
      <trkpt lat="43.6469" lon="6.85727">
        <ele>350</ele>
        <time>2012-04-02T06:14:09Z</time>
      </trkpt>
      <trkpt lat="43.64662" lon="6.85668">
        <ele>347</ele>
        <time>2012-04-02T06:14:16Z</time>
      </trkpt>
      <trkpt lat="43.64586" lon="6.85611">
        <ele>338</ele>
        <time>2012-04-02T06:14:28Z</time>
      </trkpt>
      <trkpt lat="43.64553" lon="6.85573">
        <ele>335</ele>
        <time>2012-04-02T06:14:33Z</time>
      </trkpt>
      <trkpt lat="43.64532" lon="6.85538">
        <ele>333</ele>
        <time>2012-04-02T06:14:38Z</time>
      </trkpt>
      <trkpt lat="43.64506" lon="6.8548">
        <ele>331</ele>
        <time>2012-04-02T06:14:44Z</time>
      </trkpt>
      <trkpt lat="43.64446" lon="6.85449">
        <ele>329</ele>
        <time>2012-04-02T06:14:53Z</time>
      </trkpt>
      <trkpt lat="43.64431" lon="6.85433">
        <ele>327</ele>
        <time>2012-04-02T06:14:55Z</time>
      </trkpt>
      <trkpt lat="43.64418" lon="6.85408">
        <ele>325</ele>
        <time>2012-04-02T06:14:58Z</time>
      </trkpt>
      <trkpt lat="43.64405" lon="6.854">
        <ele>323</ele>
        <time>2012-04-02T06:15:00Z</time>
      </trkpt>
      <trkpt lat="43.64368" lon="6.85407">
        <ele>320</ele>
        <time>2012-04-02T06:15:05Z</time>
      </trkpt>
      <trkpt lat="43.64318" lon="6.8538">
        <ele>315</ele>
        <time>2012-04-02T06:15:12Z</time>
      </trkpt>
      <trkpt lat="43.64272" lon="6.85344">
        <ele>308</ele>
        <time>2012-04-02T06:15:20Z</time>
      </trkpt>
      <trkpt lat="43.64253" lon="6.85317">
        <ele>305</ele>
        <time>2012-04-02T06:15:23Z</time>
      </trkpt>
      <trkpt lat="43.64249" lon="6.85315">
        <ele>304</ele>
        <time>2012-04-02T06:15:24Z</time>
      </trkpt>
      <trkpt lat="43.64239" lon="6.85322">
        <ele>303</ele>
        <time>2012-04-02T06:15:25Z</time>
      </trkpt>
      <trkpt lat="43.64194" lon="6.85401">
        <ele>295</ele>
        <time>2012-04-02T06:15:35Z</time>
      </trkpt>
      <trkpt lat="43.6417" lon="6.85417">
        <ele>292</ele>
        <time>2012-04-02T06:15:39Z</time>
      </trkpt>
      <trkpt lat="43.64127" lon="6.8543">
        <ele>287</ele>
        <time>2012-04-02T06:15:44Z</time>
      </trkpt>
      <trkpt lat="43.64106" lon="6.85413">
        <ele>284</ele>
        <time>2012-04-02T06:15:48Z</time>
      </trkpt>
      <trkpt lat="43.64078" lon="6.85366">
        <ele>280</ele>
        <time>2012-04-02T06:15:54Z</time>
      </trkpt>
      <trkpt lat="43.6407" lon="6.8532">
        <ele>279</ele>
        <time>2012-04-02T06:15:58Z</time>
      </trkpt>
      <trkpt lat="43.64062" lon="6.85305">
        <ele>278</ele>
        <time>2012-04-02T06:16:00Z</time>
      </trkpt>
      <trkpt lat="43.64051" lon="6.85298">
        <ele>278</ele>
        <time>2012-04-02T06:16:02Z</time>
      </trkpt>
      <trkpt lat="43.64009" lon="6.85295">
        <ele>277</ele>
        <time>2012-04-02T06:16:07Z</time>
      </trkpt>
      <trkpt lat="43.63999" lon="6.85289">
        <ele>277</ele>
        <time>2012-04-02T06:16:09Z</time>
      </trkpt>
      <trkpt lat="43.63984" lon="6.85266">
        <ele>276</ele>
        <time>2012-04-02T06:16:12Z</time>
      </trkpt>
      <trkpt lat="43.6397" lon="6.85253">
        <ele>276</ele>
        <time>2012-04-02T06:16:14Z</time>
      </trkpt>
      <trkpt lat="43.63957" lon="6.85251">
        <ele>275</ele>
        <time>2012-04-02T06:16:16Z</time>
      </trkpt>
      <trkpt lat="43.63945" lon="6.85257">
        <ele>275</ele>
        <time>2012-04-02T06:16:17Z</time>
      </trkpt>
      <trkpt lat="43.63909" lon="6.85333">
        <ele>274</ele>
        <time>2012-04-02T06:16:26Z</time>
      </trkpt>
      <trkpt lat="43.6389" lon="6.85426">
        <ele>265</ele>
        <time>2012-04-02T06:16:35Z</time>
      </trkpt>
      <trkpt lat="43.63874" lon="6.85476">
        <ele>261</ele>
        <time>2012-04-02T06:16:41Z</time>
      </trkpt>
      <trkpt lat="43.63835" lon="6.85544">
        <ele>256</ele>
        <time>2012-04-02T06:16:49Z</time>
      </trkpt>
      <trkpt lat="43.63781" lon="6.85616">
        <ele>252</ele>
        <time>2012-04-02T06:16:59Z</time>
      </trkpt>
    </trkseg>
  </trk>
</gpx>